[[{"header":{"parameterUnit":"m.s-1","parameterCategory":1,"la1":30.6,"la2":29.2853,"lo1":-89.7004,"lo2":-87.6739,"dy":0.0162,"dx":0.0183,"nx":112,"ny":82,"refTime":"2023-03-26T12:00:00:Z","depth":0,"parameterNumber":2,"parameterNumberName":"U-component_of_WINDS"},"data":[0.0,0.0,0.0,0.0,0.0,0.0,0.0,0.0,0.0,0.0,0.0,0.0,0.0,0.0,0.0,0.0,0.0,0.0,0.0,0.0,0.0,0.0,0.0,0.0,0.0,0.0,0.0,0.0,0.0,0.0,0.0,0.0,0.0,0.0,0.0,0.0,0.0,0.0,0.0,0.0,0.0,0.0,0.0,0.0,0.0,0.0,0.0,0.0,0.0,0.0,0.0,0.0,0.0,0.0,0.0,0.0,0.0,0.0,0.0,0.0,0.0,0.0,0.0,0.0,0.0,0.0,0.0,0.0,0.0,0.0,0.0,0.0,0.0,0.0,0.0,0.0,0.0,0.0,0.0,0.0,0.0,0.0,0.0,0.0,0.0,0.0,0.0,0.0,0.0,0.0,-4.0744,-4.2488,-4.6819,-4.9555,-4.9408,-5.0527,-4.9609,-4.5773,0.0,0.0,0.0,0.0,0.0,0.0,0.0,0.0,0.0,0.0,0.0,0.0,0.0,0.0,0.0,0.0,0.0,0.0,0.0,0.0,0.0,0.0,0.0,0.0,0.0,0.0,0.0,0.0,0.0,0.0,0.0,0.0,0.0,0.0,0.0,0.0,0.0,0.0,0.0,0.0,0.0,0.0,0.0,0.0,0.0,0.0,0.0,0.0,0.0,0.0,0.0,0.0,0.0,0.0,0.0,0.0,0.0,0.0,0.0,0.0,0.0,0.0,0.0,0.0,0.0,0.0,0.0,0.0,0.0,0.0,0.0,0.0,0.0,0.0,0.0,0.0,0.0,0.0,0.0,0.0,0.0,0.0,0.0,0.0,0.0,0.0,0.0,0.0,0.0,0.0,0.0,0.0,0.0,0.0,0.0,0.0,0.0,0.0,0.0,0.0,0.0,0.0,0.0,0.0,-4.1792,-4.4103,-4.748,-4.9317,-4.8563,-4.8085,-4.6709,-4.403,0.0,0.0,0.0,0.0,0.0,0.0,0.0,0.0,0.0,0.0,0.0,0.0,0.0,0.0,0.0,0.0,0.0,0.0,0.0,0.0,0.0,0.0,0.0,0.0,0.0,0.0,0.0,0.0,0.0,0.0,0.0,0.0,0.0,0.0,0.0,0.0,0.0,0.0,0.0,0.0,0.0,0.0,0.0,0.0,0.0,0.0,0.0,0.0,0.0,0.0,0.0,0.0,0.0,0.0,0.0,0.0,0.0,0.0,0.0,0.0,0.0,0.0,0.0,0.0,0.0,0.0,0.0,0.0,0.0,0.0,0.0,0.0,0.0,0.0,0.0,0.0,0.0,0.0,0.0,0.0,0.0,0.0,0.0,0.0,0.0,0.0,0.0,0.0,0.0,0.0,0.0,0.0,0.0,0.0,0.0,0.0,0.0,0.0,0.0,0.0,0.0,0.0,0.0,-4.1717,-4.2176,-4.3277,-4.592,-4.726,-4.6434,-4.5608,-4.4488,-4.2947,-4.4599,0.0,0.0,0.0,0.0,0.0,0.0,0.0,0.0,0.0,0.0,0.0,0.0,0.0,0.0,0.0,0.0,0.0,0.0,0.0,0.0,0.0,0.0,0.0,0.0,0.0,0.0,0.0,0.0,0.0,0.0,0.0,0.0,0.0,0.0,0.0,0.0,0.0,0.0,0.0,0.0,0.0,0.0,0.0,0.0,0.0,0.0,0.0,0.0,0.0,0.0,0.0,0.0,0.0,0.0,0.0,0.0,0.0,0.0,0.0,0.0,0.0,0.0,0.0,0.0,0.0,0.0,0.0,0.0,0.0,0.0,0.0,0.0,0.0,0.0,0.0,0.0,0.0,0.0,0.0,0.0,0.0,0.0,0.0,0.0,0.0,0.0,0.0,0.0,0.0,0.0,0.0,0.0,0.0,0.0,0.0,0.0,0.0,0.0,0.0,0.0,0.0,0.0,-4.1552,-4.1735,-4.2506,-4.4232,-4.5002,-4.4213,-4.3406,-4.2671,-4.2066,-4.1846,0.0,0.0,0.0,0.0,0.0,0.0,0.0,0.0,0.0,0.0,0.0,0.0,0.0,0.0,0.0,0.0,0.0,0.0,0.0,0.0,0.0,0.0,0.0,0.0,0.0,0.0,0.0,0.0,0.0,0.0,0.0,0.0,0.0,0.0,0.0,0.0,0.0,0.0,0.0,0.0,0.0,0.0,0.0,0.0,0.0,0.0,0.0,0.0,0.0,0.0,0.0,0.0,0.0,0.0,0.0,0.0,0.0,0.0,0.0,0.0,0.0,0.0,0.0,0.0,0.0,0.0,0.0,0.0,0.0,0.0,0.0,0.0,0.0,0.0,0.0,0.0,0.0,0.0,0.0,0.0,0.0,0.0,0.0,0.0,0.0,0.0,0.0,0.0,0.0,0.0,0.0,0.0,0.0,0.0,0.0,0.0,0.0,0.0,0.0,0.0,0.0,0.0,-4.0763,-4.0102,-4.3111,-4.357,-4.3332,-4.2543,-4.1735,-4.1242,-4.1187,-4.0487,0.0,0.0,0.0,0.0,0.0,0.0,0.0,0.0,0.0,0.0,0.0,0.0,0.0,0.0,0.0,0.0,0.0,0.0,0.0,0.0,0.0,0.0,0.0,0.0,0.0,0.0,0.0,0.0,0.0,0.0,0.0,0.0,0.0,0.0,0.0,0.0,0.0,0.0,0.0,0.0,0.0,0.0,0.0,0.0,0.0,0.0,0.0,0.0,0.0,0.0,0.0,0.0,0.0,0.0,0.0,0.0,0.0,0.0,0.0,0.0,0.0,0.0,0.0,0.0,0.0,0.0,0.0,0.0,0.0,0.0,0.0,0.0,0.0,0.0,0.0,0.0,0.0,0.0,0.0,0.0,0.0,0.0,0.0,0.0,0.0,0.0,0.0,0.0,0.0,0.0,0.0,0.0,0.0,0.0,0.0,0.0,0.0,0.0,0.0,0.0,0.0,0.0,-4.0948,-4.0469,0.0,-4.1699,-4.1479,-4.0175,-3.9313,-3.9074,-3.9554,0.0,0.0,0.0,0.0,0.0,0.0,0.0,0.0,0.0,0.0,0.0,0.0,0.0,0.0,0.0,0.0,0.0,0.0,0.0,0.0,0.0,0.0,0.0,0.0,0.0,0.0,0.0,0.0,0.0,0.0,0.0,0.0,0.0,0.0,0.0,0.0,0.0,0.0,0.0,0.0,0.0,0.0,0.0,0.0,0.0,0.0,0.0,0.0,0.0,0.0,0.0,0.0,0.0,0.0,0.0,0.0,0.0,0.0,0.0,0.0,0.0,0.0,0.0,0.0,0.0,0.0,0.0,0.0,0.0,0.0,0.0,0.0,0.0,0.0,0.0,0.0,0.0,0.0,0.0,0.0,0.0,0.0,0.0,0.0,0.0,0.0,0.0,0.0,0.0,0.0,0.0,0.0,0.0,0.0,0.0,0.0,0.0,0.0,0.0,0.0,0.0,0.0,-4.1423,-4.0123,-3.915,0.0,-3.9625,-3.9405,-3.8046,-3.7184,-3.7276,-3.8615,0.0,0.0,0.0,0.0,0.0,0.0,0.0,0.0,0.0,0.0,0.0,0.0,0.0,0.0,0.0,0.0,0.0,0.0,0.0,0.0,0.0,0.0,0.0,0.0,0.0,0.0,0.0,0.0,0.0,0.0,0.0,0.0,0.0,0.0,0.0,0.0,0.0,0.0,0.0,0.0,0.0,0.0,0.0,0.0,0.0,0.0,0.0,0.0,0.0,0.0,0.0,0.0,0.0,0.0,0.0,0.0,0.0,0.0,0.0,0.0,0.0,0.0,0.0,0.0,0.0,0.0,0.0,0.0,0.0,0.0,0.0,0.0,0.0,0.0,0.0,0.0,0.0,0.0,0.0,0.0,0.0,0.0,0.0,0.0,0.0,0.0,0.0,0.0,0.0,0.0,0.0,0.0,0.0,0.0,0.0,0.0,0.0,0.0,0.0,0.0,0.0,0.0,-4.1864,-3.8013,-3.5628,-3.7309,-3.7492,-3.7162,-3.634,-3.5481,-3.605,0.0,0.0,0.0,0.0,0.0,0.0,0.0,0.0,0.0,0.0,0.0,0.0,0.0,0.0,0.0,0.0,0.0,0.0,0.0,0.0,0.0,0.0,0.0,0.0,0.0,0.0,0.0,0.0,0.0,0.0,0.0,0.0,0.0,0.0,0.0,0.0,0.0,0.0,0.0,0.0,0.0,0.0,0.0,0.0,0.0,0.0,0.0,0.0,0.0,0.0,0.0,0.0,0.0,0.0,0.0,0.0,0.0,0.0,0.0,0.0,0.0,0.0,0.0,0.0,0.0,0.0,0.0,0.0,0.0,0.0,0.0,0.0,0.0,0.0,0.0,0.0,0.0,0.0,0.0,0.0,0.0,0.0,0.0,0.0,0.0,0.0,0.0,0.0,0.0,0.0,0.0,0.0,0.0,0.0,0.0,0.0,0.0,0.0,0.0,0.0,0.0,0.0,0.0,-4.1187,-3.7184,-3.4798,-3.6468,-3.6652,-3.6064,-3.4651,-3.4302,-3.522,-3.7713,0.0,0.0,0.0,0.0,0.0,0.0,0.0,0.0,0.0,0.0,0.0,0.0,0.0,0.0,0.0,0.0,0.0,0.0,0.0,0.0,0.0,0.0,0.0,0.0,0.0,0.0,0.0,0.0,0.0,0.0,0.0,0.0,0.0,0.0,0.0,0.0,0.0,0.0,0.0,0.0,0.0,0.0,0.0,0.0,0.0,0.0,0.0,0.0,0.0,0.0,0.0,0.0,0.0,0.0,0.0,0.0,0.0,0.0,0.0,0.0,0.0,0.0,0.0,0.0,0.0,0.0,0.0,0.0,0.0,0.0,0.0,0.0,0.0,0.0,0.0,0.0,0.0,0.0,0.0,0.0,0.0,0.0,0.0,0.0,0.0,0.0,0.0,0.0,0.0,0.0,0.0,0.0,0.0,0.0,0.0,0.0,0.0,0.0,0.0,0.0,0.0,0.0,-4.093,-3.7422,-3.5055,-3.5716,-3.6083,-3.5752,-3.438,-3.399,-3.4578,-3.6395,0.0,0.0,0.0,0.0,0.0,0.0,0.0,0.0,0.0,0.0,0.0,0.0,0.0,0.0,0.0,0.0,0.0,0.0,0.0,0.0,0.0,0.0,0.0,0.0,0.0,0.0,0.0,0.0,0.0,0.0,0.0,0.0,0.0,0.0,0.0,0.0,0.0,0.0,0.0,0.0,0.0,0.0,0.0,0.0,0.0,0.0,0.0,0.0,0.0,0.0,0.0,0.0,0.0,0.0,0.0,0.0,0.0,0.0,0.0,0.0,0.0,0.0,0.0,0.0,0.0,0.0,0.0,0.0,0.0,0.0,0.0,0.0,0.0,0.0,0.0,0.0,0.0,0.0,0.0,0.0,0.0,0.0,0.0,0.0,0.0,0.0,0.0,0.0,0.0,0.0,0.0,0.0,0.0,0.0,0.0,0.0,0.0,0.0,0.0,0.0,0.0,0.0,-4.1095,-3.8267,-3.5917,-3.5206,-3.5826,-3.5917,-3.4968,-3.4362,-3.4339,-3.5078,0.0,0.0,0.0,0.0,0.0,0.0,0.0,0.0,0.0,0.0,0.0,0.0,0.0,0.0,0.0,0.0,0.0,0.0,0.0,0.0,0.0,0.0,0.0,0.0,0.0,0.0,0.0,0.0,0.0,0.0,0.0,0.0,0.0,0.0,0.0,0.0,0.0,0.0,0.0,0.0,0.0,0.0,0.0,0.0,0.0,0.0,0.0,0.0,0.0,0.0,0.0,0.0,0.0,0.0,0.0,0.0,0.0,0.0,0.0,0.0,-4.872,0.0,0.0,0.0,0.0,0.0,0.0,0.0,0.0,0.0,0.0,0.0,0.0,0.0,0.0,0.0,0.0,0.0,0.0,0.0,0.0,0.0,0.0,0.0,0.0,0.0,0.0,0.0,0.0,0.0,0.0,0.0,0.0,0.0,0.0,0.0,0.0,0.0,0.0,0.0,0.0,0.0,-4.1937,-3.8068,-3.5463,-3.5973,-3.6193,-3.5679,-3.4174,-3.511,-3.5844,-3.6009,-3.7716,0.0,0.0,0.0,0.0,0.0,0.0,0.0,0.0,0.0,0.0,0.0,0.0,0.0,0.0,0.0,0.0,0.0,0.0,0.0,0.0,0.0,0.0,0.0,0.0,0.0,0.0,0.0,0.0,0.0,0.0,0.0,0.0,0.0,0.0,0.0,0.0,0.0,0.0,0.0,0.0,0.0,0.0,0.0,0.0,0.0,0.0,0.0,0.0,0.0,0.0,0.0,0.0,0.0,0.0,0.0,0.0,0.0,0.0,0.0,0.0,-4.8452,0.0,0.0,0.0,0.0,0.0,0.0,0.0,0.0,0.0,0.0,0.0,0.0,0.0,0.0,0.0,0.0,0.0,0.0,0.0,0.0,0.0,0.0,0.0,0.0,0.0,0.0,0.0,0.0,0.0,0.0,0.0,0.0,0.0,0.0,0.0,0.0,0.0,0.0,0.0,0.0,-4.2304,-3.9074,-3.6802,-3.6868,-3.6886,-3.6505,-3.5656,-3.6009,-3.6303,-3.6303,-3.7808,0.0,0.0,0.0,0.0,0.0,0.0,0.0,0.0,0.0,0.0,0.0,0.0,0.0,0.0,0.0,0.0,0.0,0.0,0.0,0.0,0.0,0.0,0.0,0.0,0.0,0.0,0.0,0.0,0.0,0.0,0.0,0.0,0.0,0.0,0.0,0.0,0.0,0.0,0.0,0.0,0.0,0.0,0.0,0.0,0.0,0.0,0.0,0.0,0.0,0.0,0.0,0.0,0.0,-5.2235,-5.253,-5.2234,-5.3041,-5.2692,-5.1351,-4.9934,-4.8541,-4.7368,0.0,0.0,0.0,0.0,0.0,0.0,0.0,0.0,0.0,0.0,0.0,0.0,0.0,0.0,0.0,0.0,0.0,0.0,0.0,0.0,0.0,0.0,0.0,0.0,0.0,-4.6403,-4.6059,0.0,0.0,0.0,0.0,0.0,0.0,0.0,0.0,0.0,0.0,0.0,0.0,-4.2213,-4.012,-3.845,-3.7786,-3.7713,-3.7658,-3.7511,-3.7033,-3.6652,-3.6505,-3.7881,-3.8836,0.0,0.0,0.0,0.0,0.0,0.0,0.0,0.0,0.0,0.0,0.0,0.0,0.0,0.0,0.0,0.0,0.0,0.0,0.0,0.0,0.0,0.0,0.0,0.0,0.0,0.0,0.0,0.0,0.0,0.0,0.0,0.0,-4.5465,-4.6163,0.0,0.0,0.0,0.0,0.0,0.0,0.0,0.0,0.0,0.0,0.0,0.0,0.0,-5.2229,-5.3042,-5.3628,-5.3573,-5.2914,-5.4419,-5.4408,-5.3078,-5.3867,-5.4124,-5.3885,-5.2975,0.0,-4.8102,-4.7708,0.0,0.0,0.0,0.0,0.0,0.0,0.0,0.0,0.0,0.0,0.0,0.0,0.0,0.0,0.0,0.0,0.0,0.0,0.0,0.0,0.0,0.0,-4.5773,-4.5168,-4.5498,-4.5737,0.0,-4.603,-4.6691,-4.5278,-4.5095,0.0,0.0,0.0,0.0,0.0,0.0,0.0,-4.1444,-3.9756,-3.867,-3.856,-3.8542,-3.8267,-3.7566,-3.8028,-3.8083,-3.7401,-3.8193,-3.9331,-4.0728,-4.0985,0.0,0.0,0.0,0.0,0.0,0.0,0.0,0.0,0.0,0.0,0.0,0.0,0.0,0.0,0.0,0.0,0.0,0.0,0.0,0.0,0.0,0.0,0.0,0.0,0.0,0.0,0.0,0.0,0.0,-4.7512,-4.8102,-4.6985,-4.901,-5.0198,0.0,0.0,0.0,0.0,0.0,0.0,0.0,0.0,0.0,-5.3353,-5.3775,-5.3977,-5.3885,-5.5133,-5.5574,-5.5222,-5.6859,-5.7024,-5.5923,-5.673,-5.6602,-5.5739,-5.539,-5.3904,-5.1644,-5.0464,-4.983,-4.9553,0.0,0.0,0.0,0.0,-4.6717,-4.6382,-4.6359,-4.6581,0.0,0.0,0.0,0.0,0.0,0.0,0.0,0.0,0.0,0.0,0.0,0.0,0.0,-4.6158,-4.641,-4.6474,-4.5572,-4.5938,-4.6085,0.0,-4.5425,-4.6159,-4.6507,0.0,0.0,0.0,0.0,-4.2561,-4.1882,-3.9974,-3.8707,-3.8707,-3.8707,-3.8744,-3.8851,-3.9166,-3.9423,-3.9515,-3.9863,-4.0361,-4.1058,-4.1974,-4.3112,0.0,0.0,0.0,0.0,0.0,0.0,0.0,0.0,0.0,0.0,0.0,0.0,0.0,0.0,0.0,0.0,0.0,0.0,0.0,0.0,0.0,0.0,0.0,0.0,0.0,0.0,0.0,0.0,-4.899,-4.9096,-4.7723,-4.9825,-5.1059,0.0,0.0,0.0,0.0,0.0,0.0,-5.3775,-5.4381,-5.4803,-5.5005,-5.5776,-5.6033,-5.5629,-5.7226,-5.8033,-5.8052,-5.9441,-5.9813,-5.9245,-5.963,-5.9171,-5.8015,-5.7593,-5.662,-5.517,-5.3133,-5.1463,-5.0198,-4.9996,-4.9094,-4.788,-4.794,-4.7795,-4.7536,-4.7379,-4.7625,-4.792,-4.7516,0.0,-4.7553,-4.6526,0.0,0.0,0.0,0.0,-4.7846,-4.7259,-4.7227,-4.7282,-4.7128,-4.7372,-4.732,-4.6158,-4.6067,-4.5792,0.0,-4.504,-4.5938,-4.614,0.0,0.0,0.0,0.0,-4.2158,-4.1735,-3.9937,-3.8781,-3.9001,-3.9019,-3.9331,-4.0139,-4.0212,-4.0469,-4.1058,-4.1095,-4.1003,-4.0802,-4.2139,-4.2983,-4.3185,0.0,0.0,0.0,0.0,0.0,0.0,0.0,0.0,0.0,0.0,0.0,0.0,0.0,0.0,0.0,0.0,0.0,0.0,0.0,0.0,0.0,0.0,0.0,0.0,0.0,0.0,0.0,0.0,0.0,-4.8041,-4.9112,0.0,0.0,0.0,0.0,-5.3023,-5.383,-5.462,-5.5427,-5.5522,-5.5886,-5.6657,-5.7464,-5.8235,-5.8946,-6.0548,-6.1355,-6.1374,-6.2236,-6.2597,-6.2523,-6.1814,-6.1429,-6.1263,-5.9758,-5.8602,-5.7574,-5.4436,-5.2637,-5.1793,-5.1041,-5.0213,-4.9479,-4.9498,-4.8946,-4.8157,-4.7368,-4.713,-4.7278,-4.8012,-4.8802,-4.917,-4.7516,-4.759,0.0,0.0,-4.7168,-4.7149,-4.7113,-4.7112,-4.7112,-4.7113,-4.7681,-4.7827,-4.625,-4.6507,-4.6122,0.0,-4.2488,-4.2782,-4.3534,0.0,-4.3643,-4.3663,-4.2892,-4.1754,-4.0212,-3.9239,-3.9001,-3.9753,-3.9827,-4.0175,-4.0967,-4.104,-4.1058,-4.1095,-4.1095,-4.0763,-3.9992,-4.0781,-4.1572,-4.2359,-4.3185,0.0,0.0,0.0,0.0,0.0,0.0,0.0,0.0,0.0,0.0,0.0,0.0,0.0,0.0,0.0,0.0,0.0,0.0,0.0,0.0,0.0,0.0,0.0,0.0,0.0,0.0,0.0,0.0,-5.0591,-5.2352,0.0,-5.2307,-5.3482,-5.4216,-5.3995,-5.5207,-5.6308,-5.7097,-5.7648,-5.8529,-5.985,-6.0162,-6.0694,-6.1496,-6.2108,-6.2383,-6.2383,-6.2677,-6.278,-6.2762,-6.1961,-6.1318,-6.0768,-5.9661,-5.8455,-5.7097,-5.5427,-5.3977,-5.2637,-5.1316,-5.0306,-4.961,-4.961,-4.904,-4.8343,-4.8618,-4.8343,-4.7828,-4.759,-4.7388,-4.7205,-4.7113,-4.7296,-4.7571,-4.781,-4.7865,-4.7865,-4.7865,-4.7865,-4.7865,-4.7865,-4.8104,-4.7865,-4.625,-4.6122,-4.5681,-4.3497,-4.3497,-4.3938,-4.4232,-4.3828,-4.368,-4.4195,-4.3149,-4.1919,-4.0818,-4.0416,-4.0157,-3.9918,-4.0359,-4.1001,-4.1809,-4.1882,-4.2084,-4.2598,-4.2158,-4.1974,-4.2211,-4.1992,-4.2249,-4.3057,-4.3349,-4.4287,0.0,0.0,0.0,0.0,0.0,0.0,0.0,0.0,0.0,0.0,0.0,0.0,0.0,0.0,0.0,0.0,0.0,0.0,0.0,0.0,0.0,0.0,0.0,0.0,0.0,0.0,-5.2201,-5.3539,-5.5076,-5.5794,-5.5262,-5.5684,-5.6014,-5.6033,-5.7024,-5.8217,-5.9557,-5.9869,-6.0621,-6.1961,-6.1998,-6.2126,-6.2401,-6.2677,-6.2377,-6.1588,-6.2144,-6.2126,-6.1551,-6.1043,-6.0346,-5.9557,-5.8749,-5.7483,-5.5959,-5.5409,-5.4418,-5.3057,-5.1738,-5.071,-5.0051,-5.0308,-5.0031,-4.9591,-4.9884,-4.926,-4.8214,-4.7681,-4.715,-4.6764,-4.7021,-4.7278,-4.7553,-4.781,-4.8104,-4.8306,-4.8306,-4.8306,-4.8306,-4.8306,-4.8306,-4.7865,-4.625,-4.5902,-4.5498,-4.4158,-4.4342,-4.4691,-4.4691,-4.4268,-4.4176,-4.4984,-4.3497,-4.2213,-4.1937,-4.1425,-4.0985,-4.0744,-4.1423,-4.2139,-4.2653,-4.3204,-4.3516,-4.3515,-4.324,-4.3112,-4.3094,-4.3094,-4.3222,-4.3496,-4.3754,-4.4562,-4.5902,0.0,0.0,0.0,0.0,0.0,0.0,0.0,0.0,0.0,0.0,0.0,0.0,0.0,0.0,0.0,0.0,0.0,0.0,0.0,0.0,0.0,0.0,0.0,-5.0977,-5.2353,-5.4223,-5.6571,-5.6895,-5.6914,-5.6895,-5.6932,-5.7593,-5.9111,-5.9276,-6.0322,-6.2695,-6.2053,-6.1998,-6.2762,-6.278,-6.2438,-6.1649,-6.2365,-6.1533,-5.9258,-6.0786,-6.0694,-5.9148,-5.9148,-5.8731,-5.7923,-5.7116,-5.5868,-5.4399,-5.4399,-5.394,-5.3112,-5.2344,-5.1555,-5.0967,-5.172,-5.1958,-5.1793,-5.1004,-4.9664,-4.8306,-4.8306,-4.8306,-4.8159,-4.7369,-4.7681,-4.8141,-4.7351,-4.77,-4.8306,-4.8306,-4.8306,-4.8306,-4.8306,-4.8306,-4.7884,-4.6287,-4.5938,-4.57,-4.4892,-4.4746,-4.4782,-4.4745,-4.4745,-4.5002,-4.5773,-4.3883,0.0,-4.3387,-4.2139,-4.1462,-4.2249,-4.3057,-4.3551,-4.357,-4.4984,-4.5204,-4.3643,-4.4213,-4.3938,-4.2396,-4.3809,-4.4268,-4.3497,-4.4305,-4.5131,-4.5902,0.0,0.0,0.0,0.0,0.0,0.0,0.0,0.0,0.0,0.0,0.0,0.0,0.0,0.0,0.0,0.0,0.0,0.0,0.0,0.0,0.0,0.0,-5.2553,-5.2622,-5.3981,-5.5633,-5.7441,-5.8712,-5.9189,-5.8597,-5.9593,-6.0217,-6.0089,-6.1147,-6.2083,-6.2743,-6.2603,-6.2585,-6.278,-6.278,-6.267,-6.2475,-6.1539,-6.0731,-6.007,-5.9942,-5.9336,-5.8327,-5.8327,-5.7886,-5.7097,-5.6271,-5.5354,-5.4399,-5.4399,-5.394,-5.3167,-5.2968,-5.2747,-5.2509,-5.2123,-5.1263,-5.0143,-4.9279,-4.8691,-4.8306,-4.8306,-4.8306,-4.8269,-4.8049,-4.8122,-4.8251,-4.8031,-4.8141,-4.8306,-4.8306,-4.8306,-4.8306,-4.8306,-4.8306,-4.8031,-4.6984,-4.6764,-4.6526,-4.5736,-4.603,-4.625,-4.5681,-4.5571,-4.5645,-4.5865,-4.4837,0.0,-4.3551,-4.3112,-4.291,-4.3149,-4.3883,-4.4617,-4.5186,-4.5112,-4.4837,-4.4397,-4.3479,-4.302,-4.3149,-4.302,-4.313,-4.3496,-4.4856,-4.5681,0.0,0.0,0.0,0.0,0.0,0.0,0.0,0.0,0.0,0.0,0.0,0.0,0.0,0.0,0.0,0.0,0.0,0.0,0.0,0.0,0.0,0.0,-5.3613,-5.4693,-5.6066,-5.6762,-5.7831,-5.9777,-6.0841,-6.1374,-6.1263,-6.1777,-6.2053,-6.1961,-6.2493,-6.297,-6.3337,-6.3007,-6.2658,-6.231,-6.264,-6.2468,-6.1814,-6.0878,-6.007,-5.9391,-5.8584,-5.796,-5.7483,-5.7152,-5.673,0.0,-5.5445,-5.4638,-5.3904,-5.3904,-5.3628,0.0,0.0,0.0,0.0,0.0,-5.0674,-4.9537,-4.9022,-4.8618,-4.8306,-4.8306,-4.8306,-4.8306,-4.8306,-4.8306,-4.8306,-4.8306,-4.8306,-4.8306,-4.8306,-4.8306,-4.8306,-4.8306,-4.8306,-4.7994,-4.6837,-4.6856,-4.6856,-4.6067,-4.6562,0.0,-4.6929,-4.6636,-4.6526,-4.6856,-4.5663,-4.4654,-4.4507,-4.4213,-4.3993,-4.3993,-4.5021,-4.5773,-4.5883,-4.6104,0.0,0.0,0.0,-4.4011,-4.4488,-4.4378,0.0,0.0,0.0,-4.6416,-4.6416,0.0,0.0,0.0,-4.792,-4.8306,0.0,0.0,0.0,0.0,0.0,0.0,0.0,0.0,0.0,0.0,0.0,0.0,0.0,0.0,0.0,0.0,-5.5941,-5.7134,-6.0364,-6.0102,-6.0395,-6.2542,-6.278,-6.3099,-6.387,-6.3264,-6.3135,-6.3888,-6.3337,-6.3246,-6.3906,0.0,0.0,0.0,0.0,-6.2126,-6.0694,-6.0401,-5.9557,-5.8125,-5.7244,-5.6712,-5.651,-5.5868,-5.5482,-5.528,-5.4564,-5.3867,-5.3185,-5.3185,-5.3075,-5.2876,-5.2234,-5.194,-5.1756,-5.0967,-5.0196,-4.9592,-4.95,0.0,0.0,-4.8306,-4.8306,-4.8306,-4.8306,-4.8306,-4.8306,-4.8306,-4.8306,-4.8306,-4.8306,-4.8306,-4.8306,-4.8306,-4.8306,-4.7921,-4.6489,-4.6727,-4.7021,-4.6305,-4.6764,-4.7461,-4.8196,-4.77,-4.748,-4.8196,-4.6397,-4.5241,-4.5938,-4.5333,-4.4856,-4.4948,0.0,0.0,-4.6214,-4.7407,-4.726,-4.5095,-4.5571,-4.5902,-4.5902,-4.6654,-4.7388,-4.8031,-4.7406,-4.7094,-4.7094,-4.7094,-4.7149,-4.7241,-4.7957,-4.8306,0.0,0.0,0.0,0.0,0.0,0.0,0.0,0.0,0.0,0.0,0.0,0.0,0.0,0.0,0.0,-5.7111,-5.8088,-5.9648,-6.2915,-6.2658,-6.2266,-6.2725,-6.278,-6.2879,-6.3044,-6.2915,-6.2879,-6.3044,-6.3558,-6.3613,-6.3099,-6.3558,0.0,-6.2603,-6.2707,-6.2658,-6.2321,-6.0395,-5.9276,-5.8946,0.0,0.0,-5.4876,-5.5372,-5.4876,-5.3665,-5.35,-5.3332,-5.3185,-5.3185,-5.2454,-5.1316,-5.1811,-5.1591,-5.093,-5.0123,-4.9739,-4.95,-4.8802,-4.8434,-4.8306,-4.8306,-4.8306,-4.8306,-4.8306,-4.8306,0.0,-4.8306,-4.8306,-4.8306,-4.8306,-4.8306,-4.8306,-4.8306,-4.8306,-4.8214,-4.7902,-4.7976,-4.8031,-4.7884,-4.7976,-4.8122,-4.8269,-4.8177,-4.8122,-4.8288,-4.7351,-4.6691,-4.6856,-4.6177,-4.592,-4.6562,-4.6911,-4.7296,-4.7792,-4.7516,-4.7131,-4.6672,-4.6177,-4.5902,-4.5902,-4.6654,-4.6856,-4.6379,-4.6837,-4.7094,-4.7094,-4.7094,-4.7424,-4.8086,-4.8233,-4.8306,0.0,0.0,0.0,0.0,0.0,0.0,0.0,0.0,0.0,0.0,0.0,-5.3922,0.0,0.0,-5.7336,-5.8951,-5.9887,-6.1117,-6.3172,-6.308,-6.3092,-6.3961,-6.3319,-6.2989,-6.3411,-6.3062,-6.278,-6.278,-6.3209,-6.3264,-6.2817,-6.3209,-6.308,-6.2236,-6.2603,-6.2395,-6.1612,-5.9992,-5.9184,-5.9166,-5.6767,-5.5611,-5.5592,-5.517,-5.4564,-5.3812,-5.3812,-5.3573,-5.3185,-5.3185,-5.2252,-5.0875,-5.1683,-5.1004,-4.9554,-4.9592,-4.9335,-4.8893,-4.8453,-4.8306,-4.8306,-4.8306,-4.8306,-4.8306,-4.8306,-4.8306,-4.8306,-4.8306,-4.8306,-4.8306,-4.8306,-4.8306,-4.8306,-4.8306,-4.8306,-4.8196,-4.7791,-4.8012,-4.8196,-4.7773,-4.8012,-4.8306,-4.8306,-4.8306,-4.8306,-4.8306,-4.7608,-4.7094,-4.7094,-4.6746,-4.6636,-4.7058,-4.7461,-4.7846,-4.8269,-4.7553,-4.7094,-4.7094,-4.6709,-4.6507,-4.6507,-4.7259,-4.7517,-4.7113,-4.7498,-4.77,-4.77,-4.77,-4.7901,-4.8306,-4.8306,-4.8306,0.0,0.0,0.0,0.0,0.0,0.0,0.0,-5.0657,-5.1922,-5.2564,-5.3977,-5.5445,-5.6602,-5.823,-5.9698,-6.0511,-6.13,-6.2163,-6.3154,-6.3025,-6.3374,-6.4897,-6.3741,-6.308,-6.3778,-6.3209,-6.278,-6.278,-6.297,-6.3062,-6.3062,-6.3209,-6.2989,-6.2328,-6.2805,-6.2438,-6.1135,-6.0015,-5.9423,-5.9386,-5.6492,-5.5702,-5.6767,-5.5464,-5.4693,-5.4399,-5.4234,-5.3812,-5.3185,-5.3185,-5.2252,-5.0894,-5.1867,-5.0729,-4.8636,-4.9353,-4.917,-4.8526,-4.8361,-4.8306,-4.8306,-4.8306,-4.8306,-4.8306,-4.8306,-4.8306,-4.8306,-4.8306,-4.8306,-4.8306,-4.8306,-4.8306,-4.8306,-4.8306,-4.8306,-4.8122,-4.7461,-4.7828,-4.8122,-4.7461,-4.7846,-4.8306,-4.8306,-4.8306,-4.8306,-4.8306,-4.7736,-4.7333,-4.7333,-4.7333,-4.7333,-4.7333,-4.7901,-4.8306,-4.8306,-4.77,-4.7333,-4.7333,-4.7333,-4.7333,-4.7333,-4.7957,-4.8306,-4.8306,-4.8306,-4.8306,-4.8306,-4.8306,-4.8306,-4.8306,-4.8306,-4.8306,-4.8002,-4.7482,-4.6816,-4.8981,-4.9583,-5.0153,0.0,-5.3916,-5.5078,-5.517,-5.6473,-5.7428,-5.6914,-5.8712,-6.0529,-6.1318,-6.2144,-6.3227,-6.4806,-6.3734,-6.3172,-6.4108,-6.3392,-6.286,-6.2952,-6.2853,-6.278,-6.278,-6.3521,-6.3943,-6.3943,-6.464,-6.4989,-6.4897,-6.4273,-6.387,-6.3686,-6.141,-6.0272,-6.0254,-5.8455,-5.7317,-5.6804,-5.662,-5.5757,-5.4363,-5.3647,-5.3277,-5.3185,-5.3185,-5.2252,-5.0949,-5.2472,-5.1591,-4.9482,-4.9555,-4.9537,-4.9353,-4.8563,-4.8306,-4.8306,-4.8306,-4.8306,-4.8306,-4.8306,-4.8306,-4.8306,-4.8306,-4.8306,-4.8306,-4.8306,-4.8306,-4.8306,-4.8306,-4.8306,-4.8288,-4.8196,-4.8251,-4.8269,-4.8196,-4.8251,-4.8306,-4.8306,-4.8306,-4.8306,-4.8306,-4.8233,-4.8177,-4.8177,-4.8177,-4.8177,-4.8177,-4.8251,-4.8306,-4.8306,-4.8233,-4.8177,-4.8177,-4.8177,-4.8177,-4.8177,-4.8251,-4.8306,-4.8306,-4.8306,-4.8306,-4.8306,-4.8306,-4.8306,-4.8306,-4.8306,-4.8306,-4.6312,-4.7638,-4.9101,-4.957,-5.1062,-5.2766,-5.4252,-5.5482,-5.6436,-5.6895,-5.8272,-5.9446,-5.9575,-6.1208,-6.2493,0.0,-6.3007,-6.3631,-6.3833,-6.2842,-6.2053,-6.1961,-6.163,-6.1777,-6.2707,-6.278,-6.278,-6.278,-6.3154,-6.3558,-6.4053,-6.442,-6.4824,-6.5301,-6.4512,-6.3851,-6.3356,-6.1851,-6.086,-6.0401,-5.9245,-5.829,-5.7483,-5.7024,-5.5923,-5.4381,-5.4051,-5.3628,-5.3185,-5.3185,-5.2546,-5.161,-5.2766,-5.2013,-5.0288,-5.0288,-4.9994,-4.9482,-4.86,-4.8306,-4.8306,-4.8306,-4.8306,-4.8306,-4.8306,-4.8306,-4.8306,-4.8306,-4.8306,-4.8306,-4.8306,-4.8306,-4.8306,-4.8306,-4.8306,-4.8306,-4.8306,-4.8306,-4.8306,-4.8306,-4.8306,-4.8306,-4.8306,-4.8306,-4.8306,-4.8306,-4.8306,-4.8306,-4.8306,-4.8306,-4.8306,-4.8306,-4.8306,-4.8306,-4.8306,-4.8306,-4.8306,-4.8306,-4.8306,-4.8306,-4.8306,-4.8306,-4.8306,-4.8306,-4.8306,-4.8306,-4.8306,-4.8306,-4.8306,-4.8306,-4.8306,-4.8563,-4.6562,-4.8616,-5.0944,-5.0922,-5.2674,-5.4785,-5.6253,-5.7226,-5.8088,-5.9116,-6.007,-6.0915,-6.1484,-6.2401,-6.2952,-6.2548,-6.3007,-6.3191,-6.2567,-6.1777,-6.097,-6.0162,-5.9869,-6.0291,-6.1661,-6.2218,-6.2475,-6.2475,-6.2652,-6.3282,-6.4365,-6.442,-6.4897,-6.5925,-6.4971,-6.4127,-6.3521,-6.2236,-6.13,-6.0731,-5.9924,-5.9116,-5.8309,-5.7281,-5.5923,-5.4399,-5.4399,-5.394,-5.3185,-5.3185,-5.2729,-5.2068,-5.2894,-5.2362,-5.1132,-5.1132,-5.0618,-4.9793,-4.8948,-4.8802,-4.8912,-4.8453,-4.8471,-4.8618,-4.8379,-4.8306,-4.8306,-4.8306,-4.8306,-4.8306,-4.8306,-4.8306,-4.8306,-4.8306,-4.8306,-4.8306,-4.8306,-4.8306,-4.8306,-4.8306,-4.8306,-4.8306,-4.8306,-4.8306,-4.8306,-4.8306,-4.8306,-4.8306,-4.8306,-4.8306,-4.8306,-4.8306,-4.8306,-4.8306,-4.8306,-4.8306,-4.8306,-4.8306,-4.8306,-4.8306,-4.8306,-4.8306,-4.8416,-4.8655,-4.8655,-4.8655,-4.8655,-4.8655,-4.8655,-4.8655,-4.8655,-4.9114,-5.0196,-5.0708,-5.1369,-5.3683,-5.4326,-5.5225,-5.8359,-5.9698,-6.075,-6.2346,-6.2071,-6.1557,-6.1594,-6.1006,-6.0768,-6.1502,-6.1649,-6.1667,-6.163,-6.0933,-6.0144,-5.9313,-5.8547,-5.84,0.0,-6.0731,-6.163,-6.163,-6.2365,-6.3514,-6.5191,-6.5264,-6.5999,-6.7577,-6.609,-6.5264,-6.5228,-6.2805,-6.1575,-6.1539,-6.075,-5.9942,-5.9093,-5.7538,-5.5923,-5.4399,-5.4399,-5.394,-5.3185,-5.3185,-5.2729,-5.2068,-5.2894,-5.2692,-5.1958,-5.1958,-5.1444,-5.0655,-4.9849,-5.0068,-5.0472,-4.8838,-4.8875,-4.9408,-4.8563,-4.8306,-4.8306,-4.8306,-4.8306,-4.8306,-4.8306,-4.8306,-4.8306,-4.8306,-4.8306,-4.8306,-4.8306,-4.8306,-4.8306,-4.8306,-4.8306,-4.8306,-4.8306,-4.8306,-4.8306,-4.8306,-4.8306,-4.8306,-4.8306,-4.8306,-4.8306,-4.8306,-4.8306,-4.8306,-4.8306,-4.8306,-4.8306,-4.8306,-4.8306,-4.8306,-4.8306,-4.8306,-4.8691,-4.9537,-4.9555,-4.9555,-4.9555,-4.9555,-4.9555,-4.9555,-4.9555,-4.9976,-4.9867,-5.1169,-5.2839,-5.473,-5.64,-5.7992,-5.963,-6.1043,-6.1704,-6.0615,-6.0193,-5.9685,-5.8621,-5.8198,-5.8272,-5.9079,-6.0107,-6.0805,-6.0805,-6.1502,-6.0915,-5.7978,-5.8786,0.0,0.0,0.0,0.0,-6.152,-6.1851,-6.297,-6.5191,-6.5319,-6.6035,-6.7659,-6.6145,-6.5319,-6.5319,-6.3374,-6.2401,-6.2383,-6.1043,-5.9703,-5.8382,-5.7299,-5.5923,-5.4399,-5.4399,-5.394,-5.3185,-5.3185,-5.3041,-5.2821,-5.3075,-5.3041,-5.2803,-5.2803,-5.2619,-5.2215,-5.0857,-5.0563,-5.0618,-4.9517,-4.9372,-4.9445,-4.8563,-4.8306,-4.8416,-4.9003,-4.8746,-4.8434,-4.9003,-4.915,-4.915,-4.915,-4.915,-4.915,-4.915,-4.871,-4.8306,-4.8306,-4.8306,-4.8306,-4.8306,-4.8306,-4.8306,-4.8306,-4.8306,-4.8306,-4.8306,-4.8306,-4.8306,-4.8306,-4.8306,-4.8306,-4.8306,-4.8306,-4.8306,-4.8306,-4.8306,-4.8306,-4.8306,-4.8857,-4.9317,-4.9592,-5.0105,-5.0398,-5.0398,-5.0398,-5.0398,-5.038,-4.9849,-5.0013,-5.0802,-5.2858,-5.5244,-5.6565,-5.8492,-6.0272,-6.108,-6.1612,-6.1429,-5.957,-5.8529,-5.7519,-5.6198,-5.5244,-5.5115,-5.6492,-5.7097,-5.7905,-5.9336,-5.9942,-5.9593,-5.7868,-5.8529,-5.8529,0.0,0.0,0.0,-6.1043,-6.1979,-6.3301,-6.5209,-6.5576,-6.6329,-6.765,-6.6421,-6.5742,-6.5742,-6.4383,-6.3558,-6.3246,-6.1318,-5.9722,-5.84,-5.7299,-5.5923,-5.4399,-5.4399,-5.394,-5.3185,-5.3185,-5.3185,-5.3185,-5.3185,-5.3185,-5.3185,-5.3185,-5.3185,-5.3002,-5.1683,-5.1426,-5.1426,-5.0051,-4.9794,-4.9811,-4.8655,-4.8526,-4.882,-4.9058,-4.915,-4.926,-4.9537,-4.9812,-5.0013,-5.0013,-5.0013,-4.9939,-4.9665,-4.917,-4.8673,-4.8361,-4.8545,-4.8673,-4.8361,-4.8306,-4.8416,-4.8728,-4.8508,-4.8306,-4.8306,-4.8306,-4.8306,-4.8306,-4.8306,-4.8306,-4.8306,-4.8306,-4.8306,-4.8306,-4.8306,-4.8434,-4.8746,-4.9317,-4.9867,-5.0455,-5.0967,-5.1224,-5.1224,-5.1224,-5.1224,-5.1206,-5.0398,-5.0453,-5.3151,-5.5647,-5.8217,-5.9093,-6.0438,-6.1722,-6.2456,-6.141,-6.0015,-5.9074,-5.7042,-5.5152,-5.4308,-5.2325,-5.1573,-5.3959,-5.3188,-5.3647,-5.7519,-5.6877,-5.6822,-5.8946,-5.7978,-5.7662,-5.9111,0.0,0.0,-6.0401,0.0,-6.4383,-6.5319,-6.609,-6.6861,-6.765,-6.6916,-6.6494,-6.6494,-6.5668,-6.4806,-6.3925,-6.1594,-5.9997,-5.9019,-5.7533,-5.5978,-5.4454,-5.4418,-5.3977,-5.3259,-5.3203,-5.3185,-5.3185,-5.324,-5.3259,-5.3259,-5.3259,-5.3259,-5.3151,-5.238,-5.2601,-5.2821,-5.0492,-5.027,-5.0618,-4.8948,-4.9022,-4.9555,-4.8728,-4.9609,-5.0637,-4.9922,-5.0288,-5.0857,-5.0857,-5.0857,-5.0637,-4.9849,-4.9629,-4.9353,-4.8471,-4.8967,-4.928,-4.8434,-4.8306,-4.8581,-4.9408,-4.882,-4.8306,-4.8306,-4.8306,-4.8306,-4.8306,-4.8306,-4.8306,-4.8306,-4.8306,-4.8324,-4.8361,-4.8379,-4.8765,-4.9629,-4.9702,-5.0455,-5.1958,-5.2032,-5.205,-5.205,-5.205,-5.205,-5.2032,-5.1242,-5.1261,-5.5354,-5.6932,-5.8474,-6.0493,-6.086,-6.0603,-6.0193,-5.9355,-5.7868,-5.528,-5.3757,-5.2493,-5.1079,-5.0802,-5.1389,-5.3225,-5.517,0.0,-5.8676,-6.0639,-6.1245,-5.9404,-6.0413,-6.097,-6.0181,-6.0456,0.0,0.0,-6.2218,-6.3392,-6.6054,-6.6384,-6.6861,-6.765,-6.6916,-6.6494,-6.6494,-6.5099,-6.3668,-6.2218,-6.1594,-5.9924,-5.7428,-5.7611,-5.6822,-5.5244,-5.4656,-5.4289,-5.4051,-5.3463,-5.3185,-5.3259,-5.3867,-5.4087,-5.4087,-5.4087,-5.4087,-5.4069,-5.3867,-5.3537,-5.3004,-5.1775,-5.1922,-5.2289,-5.0655,-5.0729,-5.1334,-5.1114,-5.093,-5.0894,-5.1279,-5.1536,-5.1683,-5.1683,-5.1683,-5.1463,-5.0674,-5.0013,-4.9353,-4.8471,-4.8489,-4.8563,-4.8343,-4.8306,-4.8379,-4.86,-4.8434,-4.8306,-4.8306,-4.8306,-4.8306,-4.8306,-4.8306,-4.8306,-4.8306,-4.8306,-4.8581,-4.9224,-4.928,-4.9627,-5.0453,-5.1059,-5.1593,-5.1977,-5.2601,-5.2894,-5.2894,-5.2894,-5.2894,-5.2876,-5.2068,-5.1793,-5.7831,-5.8969,-5.9905,-6.1263,-6.1006,-6.0107,-5.8951,-5.7776,-5.6124,-5.3261,-5.2032,-5.0967,-4.9334,-4.882,-4.9297,0.0,0.0,0.0,-5.7717,-5.974,-6.1006,-6.1318,-6.1906,-6.2346,-6.253,-6.2291,-6.2622,0.0,-6.3484,-6.4035,-6.587,-6.6641,-6.7228,-6.7687,-6.7247,-6.7026,-6.7026,-6.543,-6.4145,-6.3209,-6.2108,-6.0474,-5.8382,-5.8125,-5.7299,-5.6069,0.0,-5.4932,-5.4876,-5.4436,-5.4051,-5.3775,-5.4216,-5.4399,-5.4399,-5.4399,-5.462,-5.4932,-5.4932,-5.4638,-5.4124,-5.3298,-5.3353,-5.35,-5.2234,-5.2417,-5.2913,-5.2197,-5.2435,-5.2839,-5.2582,-5.3041,-5.3573,-5.3573,-5.3298,-5.2821,-5.2032,-5.0949,-4.9866,-4.9022,-4.8563,-4.8526,-4.9279,-4.8802,-4.8434,-4.8802,-4.8545,-4.8306,-4.8306,-4.8306,-4.8306,-4.8306,-4.8618,-4.8838,-4.8875,-4.9187,-4.9609,-5.0086,-5.0123,-5.049,-5.1279,-5.1756,-5.216,-5.2527,-5.2968,-5.3185,-5.3185,-5.3185,-5.3185,-5.3167,-5.2362,-5.1995,-6.0309,-6.1318,-6.1887,-6.1796,-6.0915,-5.9667,-5.8052,-5.6345,-5.4476,-5.2162,-5.1132,-5.016,-4.86,-4.726,-4.7186,-4.9684,-4.9536,-5.1022,-5.651,-5.7281,-5.8969,-6.3558,-6.2805,-6.286,-6.5246,-6.4053,-6.3796,-6.5356,-6.5466,-6.5466,-6.5466,-6.688,-6.7687,-6.7687,-6.7595,-6.7522,-6.7522,-6.5833,-6.4916,-6.4787,-6.2622,-6.1062,-6.0052,-5.8859,-5.7813,-5.6914,0.0,0.0,-5.5614,-5.5614,-5.5115,-5.4418,-5.4528,-5.462,-5.4711,-5.4601,-5.506,-5.5757,-5.5757,-5.5757,-5.5629,-5.4821,-5.4638,-5.4564,-5.3775,-5.4087,-5.4418,-5.2894,-5.3977,-5.5262,-5.3885,-5.4546,-5.5578,-5.5464,-5.4913,-5.4142,-5.3243,-5.1793,-5.0472,-4.9867,-4.8967,-4.8838,-5.0508,-4.9407,-4.86,-4.9482,-4.8857,-4.8306,-4.8306,-4.8306,-4.8306,-4.8306,-4.9022,-4.9555,-4.961,-5.0343,-5.0857,-5.0949,-5.0967,-5.1316,-5.2123,-5.216,-5.2491,-5.3206,-5.3185,-5.3185,-5.3185,-5.3185,-5.3185,-5.3167,-5.2472,-5.216,-6.2144,-6.3007,-6.3484,-6.2768,-6.0493,-5.7997,-5.6363,-5.4252,-5.2144,-5.0381,-4.9922,-4.9499,-4.8489,-4.8655,-4.9738,-5.2179,-5.3004,-5.4858,-5.9171,-5.9777,-6.086,-6.3759,-6.3833,-6.4347,-6.6127,-6.543,0.0,0.0,0.0,-6.6292,-6.6292,-6.7173,-6.7687,-6.7687,-6.7045,-6.6714,-6.6714,-6.4402,-6.2915,-6.2236,-6.1796,-6.0474,-5.8455,-5.9501,-5.9189,-5.7758,-5.695,0.0,-5.5614,-5.5614,-5.5115,-5.4473,-5.5115,-5.5794,-5.6308,-5.5629,-5.5904,-5.6602,-5.6602,-5.6602,-5.6455,-5.5647,-5.5831,-5.6235,-5.5427,-5.5757,-5.6198,-5.5225,-5.5284,-5.5559,-5.5244,-5.5372,-5.5449,-5.4766,-5.4491,-5.3995,-5.2527,-5.093,-4.9978,-5.049,-4.9352,-4.8838,-5.0508,-4.9407,-4.86,-4.9482,-4.8857,-4.8306,-4.8306,-4.8306,-4.8306,-4.8306,-4.9058,-4.9592,-4.961,-5.0343,-5.1077,-5.1738,-5.1775,-5.2142,-5.2968,-5.3004,-5.3078,-5.3185,-5.3185,-5.3185,-5.3185,-5.3185,-5.3185,-5.3185,-5.3078,-5.3004,-6.3539,-6.442,-6.442,-6.3135,-6.007,-5.695,-5.5335,-5.3115,-5.1151,-5.038,-5.0215,-4.9829,-4.8545,-4.8306,-4.882,-5.0398,-5.0637,-5.2325,-5.7207,-5.7886,-5.9281,-6.2989,-6.3429,-6.4237,-6.6292,-6.5393,-6.5173,0.0,0.0,-6.6494,-6.6494,-6.6861,-6.7063,-6.7063,-6.5888,-6.5246,-6.5246,-6.3209,-6.1979,-6.1594,-6.1594,-6.0548,-5.8657,-5.9869,-5.952,-5.7978,-5.7593,0.0,-5.684,-5.684,-5.6363,-5.5702,-5.6069,-5.6455,-5.6804,-5.684,-5.7079,-5.7483,-5.7882,-5.7776,-5.7354,-5.6969,-5.7116,-5.7354,-5.6969,-5.7116,-5.7262,-5.6455,-5.6528,-5.6748,-5.6326,-5.6528,-5.6638,-5.5849,-5.5005,-5.3959,-5.2344,-5.1391,-5.0841,-5.082,-4.9811,-4.9224,-5.0031,-4.9132,-4.8434,-4.8857,-4.8563,-4.8306,-4.8306,-4.8306,-4.8306,-4.8306,-4.9444,-5.0215,-5.0215,-5.1353,-5.2215,-5.2601,-5.2619,-5.2803,-5.3167,-5.3185,-5.3185,-5.3185,-5.3185,-5.3185,-5.3185,-5.3185,-5.3185,-5.3185,-5.3185,-5.3185,-6.4512,-6.543,-6.5118,-6.3257,-5.9667,-5.618,-5.473,-5.2399,-5.0582,-5.0765,-5.0949,-5.06,-4.9114,-4.8196,-4.7902,-4.871,-4.8158,-4.9499,-5.484,-5.5614,-5.7446,-6.2493,-6.2915,0.0,-6.6494,-6.5301,0.0,0.0,0.0,0.0,-6.6476,-6.6494,-6.6421,-6.6256,-6.4842,-6.409,-6.409,-6.2089,-6.108,-6.108,-6.108,-6.0327,-5.8964,-5.9795,-5.9465,-5.8253,-5.807,0.0,0.0,-5.7923,-5.7538,-5.6804,-5.6804,-5.7024,-5.7373,-5.7831,-5.8217,-5.8584,-5.9038,-5.8804,-5.8235,-5.8052,-5.7997,-5.7997,-5.7997,-5.7997,-5.7868,-5.7226,-5.7519,-5.785,-5.7226,-5.7538,-5.774,-5.6785,-5.5317,-5.3794,-5.2527,-5.2252,-5.2068,-5.1444,-5.0802,-5.0437,-5.0602,-4.9774,-4.915,-4.9334,-4.9058,-4.8783,-4.86,-4.8728,-4.8783,-4.86,-4.9903,-5.0875,-5.1041,-5.238,-5.3185,-5.3185,-5.3371,-5.3463,-5.3463,-5.3463,-5.3555,-5.372,-5.3555,-5.3463,-5.3463,-5.3463,-5.3369,-5.3206,-5.3293,-5.3336,-6.4806,-6.5833,-6.5815,-6.3411,-5.9226,-5.5464,-5.4601,-5.1958,-4.9922,-5.0655,-5.1371,-5.161,-5.0729,-4.9903,-4.9647,-5.0435,-4.9884,-5.0841,-5.5005,-5.5614,-5.7666,-6.3301,0.0,0.0,-6.7265,-6.6127,0.0,0.0,0.0,0.0,-6.6421,-6.6494,-6.6164,-6.543,-6.4549,-6.409,-6.409,-6.0988,-5.9404,-5.9404,-5.9404,-5.8969,-5.8143,-5.8927,-5.9221,-5.9038,-5.8327,0.0,0.0,-5.7703,-5.7538,-5.6804,-5.6804,-5.7703,-5.8891,-5.8235,-5.8914,-6.0089,-5.9423,-5.9148,-5.8964,-5.8235,-5.7997,-5.7997,-5.7997,-5.7997,-5.7978,-5.7905,-5.7941,-5.7978,-5.7905,-5.7941,-5.7611,-5.6069,-5.4473,-5.328,-5.3112,-5.3096,-5.3057,-5.2983,-5.2931,-5.3115,-5.383,-5.2674,-5.1903,-5.2656,-5.1518,-5.0306,-4.9574,-5.0123,-5.0288,-4.9574,-5.027,-5.1096,-5.183,-5.2692,-5.3185,-5.3185,-5.3904,-5.4289,-5.4289,-5.4289,-5.4638,-5.5354,-5.4656,-5.4289,-5.4289,-5.4289,-5.3922,-5.3206,-5.3565,-5.374,-6.3484,-6.5118,-6.5907,-6.3429,-5.9171,-5.5244,-5.3977,-5.1169,-4.9058,-4.9884,-5.0345,-5.0288,-4.9462,-4.8636,-4.8049,-4.7884,-4.6764,-4.7352,-5.1428,-5.1536,-5.3683,-6.0364,-6.1282,0.0,0.0,0.0,0.0,0.0,0.0,0.0,-6.4292,-6.3815,-6.3392,-6.308,-6.1814,-6.1153,-6.1153,-5.9373,-5.8492,-5.8492,-5.8964,-5.8786,-5.8033,-5.8817,-5.8927,-5.8455,-5.8143,0.0,0.0,-5.7868,-5.7813,-5.7519,-5.7519,-5.8217,-5.9203,-5.9391,-5.985,-6.0419,-6.0584,-6.0015,-5.9148,-5.8841,-5.84,-5.7997,-5.7997,-5.7997,-5.7997,-5.7997,-5.7997,-5.7997,-5.7997,-5.7281,-5.6271,-5.5133,-5.4014,-5.3185,-5.3185,-5.3592,-5.3922,-5.3922,-5.3922,-5.3867,-5.372,-5.2729,-5.194,-5.1793,-5.1206,-5.0674,-5.0362,-5.06,-5.0857,-5.1042,-5.1316,-5.1646,-5.1958,-5.2747,-5.3427,-5.3904,-5.4216,-5.462,-5.5097,-5.5115,-5.5042,-5.4876,-5.5042,-5.4638,-5.3683,-5.4161,-5.411,-5.3584,-5.372,-5.3941,-6.1814,-6.3723,-6.4824,-6.2365,-5.8455,-5.4876,-5.3518,-5.0674,-4.8618,-4.9719,-4.9939,-4.9756,-4.915,-4.8379,-4.7572,-4.6746,-4.5461,-4.5645,-4.8784,-4.8691,-5.0582,-5.6689,0.0,-5.996,0.0,0.0,0.0,0.0,0.0,0.0,0.0,-6.1208,-6.1006,-6.1245,-6.0162,-5.9533,-5.9533,-5.829,-5.7648,-5.7648,-5.8235,-5.807,-5.7317,-5.8382,-5.8419,-5.7666,0.0,0.0,0.0,-5.8162,-5.8217,-5.8015,-5.8253,-5.8859,-5.9606,-6.0199,-6.0713,-6.1172,-6.1484,-6.086,-5.9832,-5.9349,-5.8822,-5.8309,-5.807,-5.7997,-5.7997,-5.7997,-5.8162,-5.8309,-5.8052,-5.7152,-5.6033,-5.5005,-5.4142,-5.3555,-5.3555,-5.4197,-5.4748,-5.4748,-5.5133,-5.5133,-5.4087,-5.3445,-5.2784,-5.1995,-5.1665,-5.1426,-5.1187,-5.1371,-5.1646,-5.1958,-5.2197,-5.2344,-5.2344,-5.3096,-5.3812,-5.4363,-5.4858,-5.5354,-5.5923,-5.5941,-5.5794,-5.5464,-5.5776,-5.539,-5.4271,-5.4975,-5.5062,-5.4559,-5.4813,-5.5185,-5.9997,-6.1612,-6.2248,-5.9826,-5.6822,-5.4197,-5.339,-5.0674,-4.8783,-5.0435,-5.0784,-5.0784,-5.0784,-5.0105,-4.9298,-4.8416,-4.759,-4.7351,-4.8214,-4.8324,-4.9536,0.0,0.0,-5.5188,-5.9997,0.0,0.0,0.0,0.0,0.0,0.0,-5.9221,-5.9588,-6.0401,-6.0401,-6.0401,-6.0401,-5.8015,-5.6822,-5.6822,-5.6822,-5.64,-5.5688,-5.7281,-5.7574,0.0,0.0,0.0,0.0,-5.8524,-5.8731,-5.807,-5.8872,-5.9661,-6.0401,-6.0401,-6.141,-6.2677,-6.1869,-6.1575,-6.13,-5.9722,-5.9184,-5.9038,-5.8235,-5.7997,-5.7997,-5.7997,-5.8584,-5.8982,-5.8217,-5.7997,-5.7574,-5.5959,-5.4968,-5.4399,-5.4399,-5.5023,-5.5574,-5.5574,-5.6859,-5.7446,-5.5849,-5.5578,-5.528,-5.4473,-5.3683,-5.2894,-5.2087,-5.2692,-5.2876,-5.2068,-5.2711,-5.3206,-5.3206,-5.3922,-5.4399,-5.4399,-5.5904,-5.6785,-5.6804,-5.6804,-5.7171,-5.7941,-5.7189,-5.6785,-5.6767,-5.7239,-5.7056,-5.6275,-5.7156,-5.7813,-5.8107,-5.9116,-6.001,-5.8712,-5.5959,-5.3371,-5.2564,-5.027,-4.8453,-4.8985,-4.9095,-4.9279,-4.9886,-4.9279,-4.8618,-4.8343,-4.7168,-4.6379,0.0,0.0,0.0,-5.3573,-5.7941,-6.1245,0.0,0.0,0.0,0.0,0.0,0.0,0.0,-5.9722,-5.963,-5.8786,-5.8749,-5.851,-5.7941,-5.7189,-5.6528,-5.5978,-5.5978,-5.6124,-5.6436,-5.695,0.0,0.0,0.0,0.0,0.0,-5.818,-5.8235,-5.8033,-5.829,-5.9208,-6.0401,-6.0401,-6.1429,-6.2768,-6.2511,-6.1704,-6.0694,-6.0199,-5.9643,-5.9148,-5.8914,-5.8822,-5.8933,-5.9483,-5.9832,-5.9722,-5.8345,-5.7593,-5.6767,-5.5152,-5.4583,-5.4399,-5.4399,-5.5464,-5.6418,-5.6418,-5.7281,-5.7483,-5.589,-5.5614,-5.5133,-5.3794,-5.3371,-5.3115,-5.2858,-5.3041,-5.3093,-5.2858,-5.3537,-5.3812,-5.324,-5.394,-5.4638,-5.5188,-5.6216,-5.706,-5.7593,-5.7938,-5.7944,-5.7647,-5.8273,-5.8053,-5.6948,-5.7637,-5.7714,-5.721,-5.7792,-5.8457,-5.662,-5.7079,-5.7593,-5.6473,-5.4454,-5.2454,-5.1334,-4.9884,-4.8783,-4.8783,-4.8783,-4.8948,-4.95,-4.8893,-4.8214,-4.7901,-4.6746,0.0,0.0,0.0,0.0,-5.3904,0.0,0.0,0.0,0.0,0.0,0.0,0.0,0.0,0.0,-5.952,-5.9355,-5.8033,-5.7703,-5.7317,-5.6804,-5.6198,-5.5647,-5.5133,-5.5133,-5.5574,-5.6345,-5.6345,0.0,0.0,0.0,0.0,0.0,-5.8198,-5.8272,-5.8033,-5.8327,-5.9079,-5.9997,-6.0291,-6.1227,-6.2346,-6.2346,-6.1704,-6.075,-6.0144,-5.9606,-5.9184,-5.9184,-5.9184,-5.9368,-6.0181,-6.0181,-5.9648,-5.8345,-5.7629,-5.6767,-5.4858,-5.4638,-5.484,-5.484,-5.5886,-5.6895,-5.7189,-5.7666,-5.7483,-5.589,-5.5614,-5.5042,-5.3445,-5.3185,-5.3185,-5.3185,-5.3463,-5.3665,-5.3665,-5.4363,-5.4638,-5.4161,-5.484,-5.539,-5.5574,-5.6638,-5.7483,-5.7978,-5.8461,-5.8452,-5.7949,-5.8913,-5.8916,-5.7912,-5.8589,-5.8889,-5.8808,-5.9122,-5.9511,0.0,-5.5486,-5.4987,-5.35,-5.2472,-5.1444,-5.0014,-4.9647,0.0,-4.9665,-4.9647,-4.9629,-4.9665,-4.8967,-4.8141,-4.7314,0.0,0.0,0.0,-4.7572,0.0,0.0,-5.6693,0.0,0.0,0.0,0.0,0.0,0.0,0.0,0.0,-5.8584,-5.8602,-5.785,-5.706,-5.6675,-5.6712,-5.5188,-5.4363,-5.4308,-5.4308,-5.4766,-5.5614,-5.5614,0.0,0.0,0.0,0.0,0.0,-5.8395,-5.8621,-5.807,-5.8822,-5.9148,-5.9276,-6.0052,-6.0823,-6.1502,-6.1502,-6.1465,-6.1172,-5.9703,-5.9239,-5.9294,-5.9349,-5.9313,-5.9441,-6.0272,-5.9924,-5.9093,-5.8364,-5.8033,-5.7354,-5.5097,-5.5097,-5.5611,-5.5666,-5.6326,-5.7116,-5.785,-5.7997,-5.7519,-5.6014,-5.5702,-5.517,-5.3683,-5.3427,-5.3369,-5.3369,-5.4014,-5.4491,-5.4491,-5.5207,-5.5647,-5.5614,-5.6345,-5.6492,-5.5721,-5.7134,-5.7997,-5.7997,-5.8484,-5.8755,-5.8755,-5.923,-5.9492,-5.9492,-5.9931,-6.0365,-6.08,-6.08,-6.08,-5.5614,0.0,-5.2747,-5.238,-5.1206,-5.0235,0.0,-5.0051,-4.9776,-5.038,-5.0013,-4.9794,-5.0398,-4.9848,-4.9003,-4.8159,0.0,-4.6819,-4.6819,0.0,0.0,-5.5978,-5.8382,0.0,0.0,0.0,0.0,0.0,0.0,0.0,0.0,-5.6675,-5.6345,-5.6161,-5.5372,-5.5262,-5.5868,-5.4895,-5.4087,-5.3482,-5.3482,-5.4234,-5.5614,-5.5614,0.0,0.0,0.0,0.0,-5.684,-5.7226,-5.7629,-5.8015,-5.8217,-5.8657,-5.9221,-5.9404,-5.9997,-6.0676,-6.0676,-6.0291,-5.9698,-5.9313,-5.9606,-6.0236,-6.086,-6.0621,-6.0291,-6.108,-6.075,-6.007,-5.9887,-5.8474,-5.695,-5.6381,-5.5904,-5.5757,-5.64,-5.7152,-5.7776,-5.796,-5.7997,-5.7868,-5.7501,-5.6932,-5.64,-5.6014,-5.5427,-5.5042,-5.5042,-5.5188,-5.5317,-5.5317,-5.6033,-5.6271,-5.5669,-5.6345,-5.673,-5.6528,-5.7446,-5.7997,-5.7997,-5.8814,-5.9249,-5.9249,-6.004,-6.0482,-6.0482,-6.0578,-6.069,-6.08,-6.08,-6.08,-5.5133,-5.3555,-5.1903,-5.1536,-5.0784,-5.016,-5.0215,-5.0492,-5.0822,-5.1261,-5.071,-5.0398,-5.1206,-4.9756,-4.8306,-4.7828,-4.7369,0.0,0.0,0.0,-5.4436,-5.7515,0.0,0.0,0.0,0.0,0.0,0.0,0.0,0.0,0.0,-5.6033,-5.5614,-5.5614,-5.4821,-5.4601,-5.5042,-5.4252,-5.3628,-5.3185,-5.3185,-5.3849,-5.5042,-5.5042,-5.5684,0.0,0.0,0.0,-5.7317,-5.695,-5.7281,-5.7997,-5.7997,-5.8272,-5.8694,-5.9056,-5.9478,-5.9869,-5.9869,-5.9336,-5.8657,-5.8657,-5.9189,-5.9869,-5.9924,-5.9905,-6.0181,-6.1722,-6.0768,-5.9391,-5.9758,-5.8345,-5.6712,-5.6345,-5.6198,-5.6271,-5.6712,-5.7721,-5.8437,-5.807,-5.8602,-5.8877,-5.8125,-5.7648,-5.7226,-5.6877,-5.6106,-5.5614,-5.5614,-5.5904,-5.6143,-5.6143,-5.6877,-5.7171,-5.673,-5.7287,-5.7423,-5.6822,-5.7556,-5.7997,-5.7997,-5.8694,-5.9266,-5.9709,-6.0424,-6.08,-6.08,-6.08,-6.08,-6.08,-6.08,-6.08,-5.4473,-5.3133,-5.1811,-5.1004,-5.071,-5.049,-5.0069,-5.1024,-5.2013,-5.216,-5.1536,-5.1114,-5.1536,-4.9462,-4.7498,-4.7003,0.0,0.0,-5.1922,-5.2674,-5.4381,0.0,0.0,0.0,0.0,0.0,0.0,0.0,0.0,0.0,0.0,-5.5739,-5.5225,-5.5225,-5.4564,-5.4161,-5.4032,-5.3371,-5.2968,-5.2839,-5.2839,-5.3335,-5.4216,-5.4087,-5.4987,0.0,0.0,0.0,-5.7758,-5.7079,-5.7281,-5.7997,-5.7997,-5.7997,-5.807,-5.8786,-5.9001,-5.9001,-5.9001,-5.8584,-5.7997,-5.7997,-5.8547,-5.9056,-5.84,-5.8657,-5.968,-6.1979,-6.0493,-5.84,-5.9336,-5.8382,-5.7005,-5.6308,-5.6583,-5.6987,-5.6987,-5.8162,-5.8982,-5.8327,-5.9391,-6.0015,-5.8749,-5.8345,-5.7997,-5.7446,-5.6565,-5.5959,-5.5959,-5.6565,-5.6987,-5.6987,-5.7593,-5.7997,-5.7997,-5.8439,-5.8229,-5.7162,-5.7729,-5.8142,-5.8213,-5.8591,-5.9248,-6.0175,-6.061,-6.08,-6.08,-6.08,-6.08,-6.08,-6.08,-6.0858,-5.3794,-5.2711,-5.1811,-5.1004,-5.0288,-5.0124,-5.1334,-5.1811,-5.2179,-5.2876,-5.238,-5.1426,-5.0198,-5.0105,-4.9334,-4.6544,0.0,-5.1132,0.0,0.0,0.0,0.0,0.0,0.0,0.0,0.0,0.0,0.0,0.0,0.0,0.0,0.0,-5.3573,-5.3573,-5.3463,-5.3059,-5.238,-5.2252,-5.183,-5.1169,-5.1169,-5.1958,-5.3371,-5.2674,-5.361,0.0,0.0,-5.55,-5.6969,-5.6859,-5.7281,-5.7997,-5.7997,-5.7997,-5.8015,-5.8143,-5.818,-5.818,-5.818,-5.8107,-5.7997,-5.7997,-5.8547,-5.9166,-5.9038,-5.9093,-5.9551,-6.13,-6.0456,-5.9373,-6.086,-6.0052,-5.8799,-5.8671,-5.8235,-5.7813,-5.7813,-5.8547,-5.9148,-5.9038,-5.9777,-6.0548,-6.097,-5.9924,-5.9203,-5.9758,-5.8584,-5.7629,-5.7629,-5.774,-5.7813,-5.7813,-5.7923,-5.7997,-5.7997,-5.8439,-5.8617,-5.8405,-5.8516,-5.8775,-5.9176,-5.9248,-5.9725,-6.0678,-6.0757,-6.08,-6.08,-6.08,-6.08,-6.08,-6.08,-6.1204,-5.3115,-5.227,-5.1683,-5.0453,-5.0196,-5.0435,-5.1169,-5.1353,-5.1573,-5.2399,-5.1555,-5.0749,-5.0877,-5.0105,-4.9389,-4.9224,0.0,-5.2803,0.0,0.0,0.0,0.0,0.0,0.0,0.0,0.0,0.0,0.0,0.0,0.0,0.0,0.0,-5.2344,-5.1922,-5.1903,-5.1518,-5.0712,-5.0712,-5.0729,-5.0802,-5.0802,-5.1187,-5.1922,-5.1958,-5.2839,-5.4308,0.0,-5.5317,-5.6804,-5.6804,-5.7281,-5.7997,-5.7997,-5.7997,-5.7997,-5.7997,-5.7997,-5.7997,-5.7997,-5.7997,-5.7997,-5.7997,-5.8253,-5.8547,-5.8547,-5.8547,-5.8804,-5.9979,-5.9777,-5.9551,-6.1172,-6.0419,-5.9184,-5.9184,-5.8602,-5.8125,-5.8547,-5.93,-5.9869,-5.9869,-6.086,-6.1686,-6.1612,-6.0639,-5.9979,-6.0346,-5.9024,-5.7997,-5.7997,-5.7997,-5.7997,-5.7997,-5.7997,-5.7997,-5.7997,-5.8654,-5.9084,-5.9084,-5.8835,-5.8913,-5.9372,-5.9389,-5.9725,-6.0411,-6.0678,-6.08,-6.08,-6.08,-6.1031,-6.1493,-6.1493,-6.1954,-5.2546,-5.1995,-5.1683,-5.0473,-5.0618,-5.1077,-5.1077,-5.1224,-5.1536,-5.2142,-5.1298,-5.0563,-5.1041,-4.9426,0.0,-5.1316,-5.2711,-5.4124,0.0,0.0,0.0,0.0,0.0,0.0,0.0,0.0,0.0,0.0,0.0,0.0,0.0,0.0,-5.1444,-5.082,-5.0802,-5.0398,-4.9592,-4.9592,-4.9793,-5.0215,-5.0215,-5.0325,-5.0545,-5.1151,-5.2087,-5.3222,-5.3849,-5.5152,-5.6804,-5.6602,-5.7097,-5.7978,-5.7795,-5.7831,-5.7997,-5.7997,-5.7997,-5.7997,-5.7997,-5.7997,-5.7997,-5.7997,-5.7997,-5.7997,-5.7997,-5.7997,-5.8162,-5.8964,-5.9184,-5.9551,-6.1172,-6.0548,-5.9515,-5.9722,-5.9006,-5.8455,-5.9056,-5.9832,-6.0401,-6.0401,-6.1704,-6.2548,-6.1741,-6.0933,-6.0346,-6.0162,-5.8914,-5.7997,-5.7997,-5.7997,-5.7997,-5.7997,-5.7997,-5.8092,-5.8307,-5.899,-5.9492,-5.9709,-5.9303,-5.9195,-5.9561,-5.9559,-5.9773,-6.025,-6.0622,-6.08,-6.08,-6.0993,-6.1447,-6.2101,-6.2281,-6.282,-5.2252,-5.1995,-5.1958,-5.1848,-5.1867,-5.1903,-5.1903,-5.2491,-5.3038,-5.3093,-5.3023,-5.205,-4.9114,-4.781,-4.7993,-5.049,-5.2821,0.0,0.0,0.0,0.0,0.0,0.0,0.0,0.0,0.0,0.0,0.0,0.0,0.0,0.0,0.0,0.0,-5.0802,-5.0802,-5.038,-4.9517,-4.9574,-4.9205,-4.8489,-4.8489,-4.8893,-4.9702,-4.9757,-5.1022,-5.3185,-5.3259,-5.4638,-5.6748,-5.5978,-5.6602,-5.7923,-5.7189,-5.7336,-5.7997,-5.7997,-5.7997,-5.7997,-5.7997,-5.7997,-5.7997,-5.7997,-5.7997,-5.7997,-5.7997,-5.7997,-5.8162,-5.8964,-5.9184,-5.9551,-6.1172,-6.097,-6.0511,-6.1245,-6.0236,-5.9129,-5.9184,-5.9832,-6.0401,-6.0401,-6.1704,-6.2548,-6.1741,-6.0933,-6.0162,-5.9386,-5.8547,-5.7997,-5.7997,-5.7997,-5.7997,-5.7997,-5.7997,-5.8351,-5.9231,-5.9354,-5.9773,-6.0634,-6.025,-6.001,-6.004,-6.004,-6.0264,-6.0746,-6.0769,-6.08,-6.08,-6.162,-6.2043,-6.212,-6.2878,-6.3685,-5.161,-5.1242,-5.1242,-5.1242,-5.1628,-5.1995,-5.1995,-5.2234,-5.2307,-5.1811,-5.2509,-5.2506,-5.027,-5.0435,-5.1039,-5.1481,0.0,0.0,0.0,0.0,0.0,0.0,0.0,0.0,0.0,0.0,0.0,0.0,0.0,0.0,0.0,0.0,0.0,-4.926,-4.926,-4.9095,-4.8765,-4.8783,-4.8636,-4.8306,-4.8306,-4.8765,-4.961,-4.961,-5.0657,-5.2472,-5.2986,-5.4289,-5.6069,-5.6271,-5.7005,-5.796,-5.7666,-5.7428,-5.7317,-5.7813,-5.7997,-5.7997,-5.7997,-5.7997,-5.7997,-5.7997,-5.8345,-5.8767,-5.8767,-5.9098,-5.9557,-5.9869,-5.996,-6.0107,-6.0694,-6.0272,-5.9869,-6.0658,-6.0015,-5.9459,-6.0493,-6.0933,-6.1282,-6.1814,-6.2383,-6.2548,-6.1741,-6.0933,-6.0144,-5.9313,-5.8529,-5.8115,-5.8397,-5.8168,-5.8119,-5.8397,-5.8629,-5.9153,-6.0128,-6.0671,-6.1365,-6.229,-6.0945,-6.0465,-6.1307,-6.1067,-6.1141,-6.1608,-6.162,-6.162,-6.162,-6.1947,-6.2627,-6.3666,-6.3974,-6.4589,-5.1408,-5.0986,-5.0802,-5.0802,-5.1389,-5.1995,-5.1995,-5.2197,-5.2215,-5.1683,-5.1811,-5.1867,-5.1279,-5.1665,0.0,0.0,0.0,0.0,0.0,0.0,0.0,0.0,0.0,0.0,0.0,0.0,0.0,0.0,0.0,0.0,0.0,0.0,0.0,0.0,-4.8306,-4.8306,-4.8306,-4.8306,-4.8306,-4.8306,-4.8306,-4.8765,-4.961,-4.9867,-5.071,-5.2032,-5.2858,-5.4106,-5.5611,-5.5923,-5.6528,-5.7244,-5.7244,-5.706,-5.6877,-5.7428,-5.7776,-5.7997,-5.7997,-5.7997,-5.7997,-5.7997,-5.8547,-5.9148,-5.8914,-5.9575,-6.0346,-6.0107,-6.0199,-6.0401,-6.0401,-5.9997,-5.9869,-6.0915,-6.0364,-5.996,-6.13,-6.1594,-6.1759,-6.231,-6.264,-6.2475,-6.1392,-6.0768,-6.0052,-5.8988,-5.8487,-5.8329,-5.8673,-5.8547,-5.8681,-5.9287,-5.9545,-6.0118,-6.1222,-6.1803,-6.2459,-6.3245,-6.1914,-6.1523,-6.2454,-6.2163,-6.2034,-6.2089,-6.2101,-6.2101,-6.2101,-6.2339,-6.3205,-6.4609,-6.4878,-6.532,-5.1775,-5.1408,-5.0802,-5.082,-5.1389,-5.1977,-5.1977,-5.2601,-5.3167,-5.3203,-5.1242,-5.0013,-5.1683,-5.0694,0.0,-5.2803,0.0,0.0,0.0,0.0,0.0,0.0,0.0,0.0,0.0,0.0,0.0,0.0,0.0,0.0,0.0,0.0,0.0,0.0,-4.8306,-4.8306,-4.8306,-4.8306,-4.8306,-4.8306,-4.8306,-4.8765,-4.9647,-5.0435,-5.1242,-5.205,-5.2858,-5.4106,-5.5519,-5.473,-5.4876,-5.5574,-5.5614,-5.6069,-5.6785,-5.6804,-5.7299,-5.7997,-5.7997,-5.7997,-5.7997,-5.7997,-5.8547,-5.9038,-5.8253,-5.9134,-6.0254,-5.9441,-5.9813,-6.0419,-6.0419,-6.0419,-6.0823,-6.242,-6.1575,-6.0639,-6.1429,-6.1594,-6.1594,-6.1594,-6.2254,-6.231,-6.0676,-6.0401,-5.9869,-5.8253,-5.8397,-5.8694,-5.8694,-5.9121,-5.9746,-6.0613,-6.0707,-6.1237,-6.251,-6.2616,-6.2816,-6.3295,-6.332,-6.332,-6.3308,-6.332,-6.2954,-6.2159,-6.2139,-6.2139,-6.2139,-6.2935,-6.3762,-6.4628,-6.5493,-6.5897,-5.194,-5.1006,-5.0235,-5.1353,-5.1389,-5.1151,-5.1151,-5.1353,-5.1995,-5.3683,-5.1646,-5.0233,-5.2435,-5.1059,0.0,0.0,0.0,0.0,0.0,0.0,0.0,0.0,0.0,0.0,0.0,0.0,0.0,0.0,0.0,0.0,0.0,0.0,0.0,0.0,-4.7736,-4.7461,-4.7461,-4.7461,-4.7461,-4.7461,-4.8031,-4.9058,-5.0453,-5.0692,-5.1555,-5.2858,-5.3093,-5.3794,-5.4785,-5.5097,-5.5042,-5.4803,-5.5372,-5.539,-5.5262,-5.6381,-5.695,-5.7244,-5.7795,-5.7997,-5.7997,-5.7997,-5.8547,-5.9148,-5.8933,-5.9979,-6.119,-6.097,-6.1484,-6.2108,-6.2108,-6.2108,-6.2071,-6.1979,-6.1594,-6.1465,-6.2273,-6.2456,-6.2456,-6.2456,-6.2658,-6.231,-6.0676,-6.0401,-6.0052,-5.9006,-5.8745,-5.8815,-5.9158,-6.0139,-6.0779,-6.0705,-6.1708,-6.2695,-6.3459,-6.4028,-6.4575,-6.5103,-6.5128,-6.4859,-6.4243,-6.4801,-6.5013,-6.4782,-6.4762,-6.4762,-6.4762,-6.4397,-6.4666,-6.5513,-6.5782,-6.6205,-5.071,-5.0068,-4.9684,-4.9976,-5.0435,-5.0637,-4.9958,-5.0325,-5.1298,-5.3078,-5.141,-5.0253,-5.2344,-5.1004,0.0,0.0,0.0,0.0,0.0,0.0,0.0,0.0,0.0,0.0,0.0,0.0,0.0,0.0,0.0,0.0,0.0,0.0,0.0,0.0,-4.7039,-4.6617,-4.6617,-4.6617,-4.6617,-4.6636,-4.7424,-4.871,-5.0325,-5.0655,-5.1683,-5.3203,-5.3555,-5.3959,-5.4436,-5.4913,-5.484,-5.4418,-5.4583,-5.4546,-5.4564,-5.5849,-5.6528,-5.6932,-5.7721,-5.7997,-5.7997,-5.7997,-5.8547,-5.9129,-5.8822,-5.985,-6.1117,-6.1117,-6.1704,-6.2401,-6.2707,-6.278,-6.2695,-6.2199,-6.2089,-6.2218,-6.2688,-6.278,-6.288,-6.3068,-6.2959,-6.2512,-6.1641,-6.1326,-6.0977,-6.0367,-6.0263,-6.0423,-6.089,-6.1655,-6.219,-6.2254,-6.3121,-6.3958,-6.4633,-6.5145,-6.569,-6.6327,-6.6378,-6.6301,-6.6128,-6.6282,-6.6378,-6.6378,-6.6378,-6.6224,-6.5897,-6.5378,-6.5397,-6.5897,-6.6224,-6.6628,-4.9058,-4.9114,-4.9225,-4.7608,-4.8782,-4.9976,-4.8526,-4.9315,-5.0637,-5.1573,-5.062,-5.0088,-5.1683,-5.062,0.0,0.0,0.0,0.0,0.0,0.0,0.0,0.0,0.0,0.0,0.0,0.0,0.0,0.0,0.0,0.0,0.0,0.0,0.0,0.0,-4.6214,-4.5792,-4.5792,-4.5792,-4.5792,0.0,-4.6746,-4.8049,-4.9629,-5.0435,-5.1683,-5.3243,-5.3977,-5.4289,-5.4289,-5.4289,-5.4289,-5.4216,-5.35,-5.3665,-5.4399,-5.5262,-5.6051,-5.6822,-5.7703,-5.7997,-5.7997,-5.7997,-5.8492,-5.8946,-5.8217,-5.9116,-6.0401,-6.0401,-6.1025,-6.1887,-6.2622,-6.278,-6.278,-6.278,-6.278,-6.278,-6.278,-6.283,-6.3014,-6.352,-6.3262,-6.2984,-6.3201,-6.2742,-6.2245,-6.1897,-6.2344,-6.2844,-6.3251,-6.3365,-6.3724,-6.4532,-6.4666,-6.5032,-6.582,-6.5897,-6.6244,-6.7051,-6.709,-6.7532,-6.8494,-6.7763,-6.734,-6.734,-6.734,-6.6974,-6.6244,-6.609,-6.6051,-6.6128,-6.6801,-6.7186,-5.1298,-5.0437,-4.9353,-4.8306,-4.7498,-4.7021,-4.7296,-4.715,-4.7553,-4.9684,-4.9849,-5.0088,-5.1683,0.0,0.0,0.0,0.0,0.0,0.0,0.0,0.0,0.0,0.0,0.0,0.0,0.0,0.0,0.0,0.0,0.0,0.0,0.0,0.0,-4.6159,-4.5388,-4.4966,-4.4966,-4.4966,-4.4966,0.0,-4.7058,-4.8581,-4.9629,-5.0435,-5.1683,-5.3203,-5.339,-5.3463,-5.3463,-5.3463,-5.3463,-5.3445,-5.328,-5.3295,-5.3628,-5.506,-5.5702,-5.6051,-5.7501,-5.7997,-5.7997,-5.7997,-5.8125,-5.8235,-5.8052,-5.9116,-6.0401,-6.0401,-6.1429,-6.2585,-6.2768,-6.278,-6.278,-6.278,-6.278,-6.278,-6.278,-6.3139,-6.3476,-6.3568,-6.385,-6.4062,-6.4124,-6.2956,-6.1898,-6.1555,-6.267,-6.348,-6.3328,-6.3897,-6.4397,-6.4589,-6.5205,-6.5705,-6.5878,-6.5897,-6.6244,-6.7051,-6.709,-6.7802,-6.936,-6.9244,-6.9148,-6.9148,-6.9148,-6.9052,-6.8879,-6.7513,-6.7186,-6.7859,-6.734,-6.7821,-4.9499,-4.9022,-4.8783,-4.7938,-4.6526,-4.5645,-4.6819,-4.6489,-4.6269,-4.7572,-4.7829,-4.8067,-4.8912,0.0,0.0,0.0,0.0,0.0,0.0,0.0,0.0,0.0,0.0,0.0,0.0,0.0,0.0,0.0,0.0,0.0,0.0,-4.5535,-4.5333,-4.5333,-4.4544,-4.4121,-4.4121,-4.4121,-4.4121,-4.4158,-4.5792,-4.7645,-4.9647,-5.1224,-5.2417,-5.3185,-5.3185,-5.3185,-5.3185,-5.3185,-5.3185,-5.3185,-5.3185,-5.3185,-5.3353,-5.4564,-5.5262,-5.5776,-5.7005,-5.7685,-5.7997,-5.7997,-5.7997,-5.7997,-5.7997,-5.8859,-5.9924,-6.0291,-6.1282,-6.231,-6.2688,-6.278,-6.2861,-6.3139,-6.299,-6.278,-6.278,-6.3215,-6.3789,-6.4441,-6.448,-6.4668,-6.5531,-6.466,-6.3615,-6.3015,-6.4,-6.4745,-6.4564,-6.4936,-6.5224,-6.5224,-6.5628,-6.5897,-6.5897,-6.6244,-6.6821,-6.7667,-6.8109,-6.8936,-7.0225,-7.0264,-7.0264,-7.0264,-6.9898,-6.9494,-6.9071,-6.7744,-6.7128,-6.7205,-6.7552,-6.8205,-4.7278,-4.7205,-4.7645,-4.6526,-4.537,-4.4819,-4.5993,-4.5773,-4.5278,-4.5278,-4.5608,-4.5902,0.0,0.0,0.0,0.0,0.0,0.0,0.0,0.0,0.0,0.0,0.0,0.0,0.0,0.0,0.0,0.0,0.0,0.0,-4.548,-4.4856,-4.4488,-4.4488,-4.3846,-4.3515,-4.3515,-4.3515,-4.3515,-4.3515,-4.447,-4.6562,-4.9665,-5.1811,-5.2949,-5.3185,-5.3185,-5.3185,-5.3185,-5.3185,-5.3185,-5.3185,-5.3185,-5.3185,-5.3316,-5.4106,-5.4821,-5.55,-5.6308,-5.7116,-5.7795,-5.7795,-5.7886,-5.7997,-5.7997,-5.8657,-5.9533,-6.0217,-6.1042,-6.191,-6.2714,-6.2903,-6.3007,-6.3597,-6.3408,-6.3044,-6.2941,-6.3363,-6.4058,-6.518,-6.5104,-6.5244,-6.646,-6.6359,-6.5763,-6.4743,-6.534,-6.5897,-6.5897,-6.5897,-6.5897,-6.5897,-6.6013,-6.6109,-6.6109,-6.6859,-6.7705,-6.8571,-6.9302,-7.0052,-7.086,-7.0898,-7.0975,-7.111,-7.0321,-6.9552,-6.884,-6.7975,-6.7282,-6.6782,-6.8052,-6.8706,-4.9225,-4.7682,-4.5681,-4.3497,-4.3296,-4.3534,-4.3057,-4.2855,-4.2782,0.0,-4.4433,0.0,0.0,0.0,0.0,0.0,0.0,0.0,0.0,0.0,0.0,0.0,0.0,0.0,0.0,0.0,0.0,0.0,0.0,0.0,-4.3827,-4.3718,-4.3644,-4.3644,-4.357,-4.3515,-4.3515,-4.3515,-4.3515,-4.3533,-4.5021,-4.7095,-4.9629,-5.0655,-5.1885,-5.3185,-5.3185,-5.3185,-5.3185,-5.3185,-5.3185,-5.3185,-5.3185,-5.3185,-5.3316,-5.4106,-5.4473,-5.4675,-5.5464,-5.629,-5.6969,-5.6969,-5.7428,-5.7997,-5.7997,-5.9061,-6.0272,-6.0382,-6.1274,-6.2416,-6.3275,-6.3287,-6.3256,-6.4105,-6.4236,-6.4058,-6.359,-6.3915,-6.435,-6.4521,-6.5734,-6.635,-6.5135,-6.6051,-6.6397,-6.4839,-6.534,-6.5897,-6.5897,-6.5897,-6.5897,-6.5897,-6.6513,-6.6936,-6.6936,-6.7725,-6.8609,-6.9475,-6.9648,-7.0052,-7.086,-7.0898,-7.1264,-7.2014,-7.1187,-7.0687,-7.0552,-6.9744,-6.9667,-7.0225,-6.9744,-6.9898,-4.9132,-4.6434,-4.3626,-4.258,-4.2561,-4.2616,-4.1809,-4.1992,-4.2176,-4.1735,0.0,0.0,0.0,0.0,0.0,0.0,0.0,0.0,0.0,0.0,0.0,0.0,0.0,0.0,0.0,0.0,0.0,0.0,0.0,-4.2158,-4.2158,-4.2158,-4.2158,-4.2158,-4.2158,-4.2378,-4.2818,-4.2818,-4.3039,-4.3497,-4.4672,-4.6049,-4.7535,-4.8361,-5.0123,-5.2546,-5.3004,-5.3185,-5.3185,-5.3185,-5.3185,-5.3185,-5.3185,-5.3185,-5.3243,-5.361,-5.4014,-5.4454,-5.4803,-5.5757,-5.6804,-5.6804,-5.7336,-5.7997,-5.7997,-5.8979,-6.0111,-6.0111,-6.1041,-6.2234,-6.3098,-6.3218,-6.3387,-6.4524,-6.459,-6.4407,-6.4426,-6.4626,-6.4869,-6.5168,-6.5876,-6.6032,-6.4801,-6.5205,-6.5455,-6.4705,-6.534,-6.5897,-6.5897,-6.5897,-6.5897,-6.5897,-6.6609,-6.709,-6.709,-6.834,-6.9475,-7.0321,-7.0379,-7.0744,-7.1591,-7.1629,-7.1802,-7.2187,-7.0898,-7.0456,-7.0898,-6.961,-6.9148,-6.9513,-6.9648,-6.9898,-4.8141,-4.5663,-4.3277,-4.2249,-4.2304,-4.2286,0.0,0.0,-4.1515,0.0,0.0,0.0,0.0,0.0,0.0,0.0,0.0,0.0,0.0,0.0,0.0,0.0,0.0,0.0,0.0,0.0,0.0,0.0,0.0,-4.1095,-4.1095,-4.1095,-4.1095,-4.1095,-4.1095,-4.1389,-4.1992,-4.2011,-4.2396,-4.3185,-4.3809,-4.4635,-4.5626,-4.6415,-4.8361,-5.1114,-5.2142,-5.2711,-5.2913,-5.3133,-5.3185,-5.3185,-5.3185,-5.3185,-5.3185,-5.3185,-5.3592,-5.4106,-5.4106,-5.5152,-5.651,-5.651,-5.7171,-5.802,-5.8142,-5.8992,-5.9924,-6.0048,-6.0849,-6.191,-6.3004,-6.3205,-6.3508,-6.4963,-6.5038,-6.4854,-6.5048,-6.5099,-6.5261,-6.5795,-6.5897,-6.5686,-6.5032,-6.4936,-6.4936,-6.4936,-6.5474,-6.5897,-6.5897,-6.5897,-6.5974,-6.6186,-6.6936,-6.7513,-6.7744,-6.9148,-7.0264,-7.086,-7.111,-7.1514,-7.2168,-7.2399,-7.2629,-7.2822,-7.1187,-7.0629,-7.1225,-6.9975,-6.9244,-6.9052,-6.9706,-6.9994,-4.6452,-4.6434,-4.592,-4.2122,-4.2304,-4.2835,0.0,0.0,0.0,0.0,0.0,0.0,0.0,0.0,0.0,0.0,0.0,0.0,0.0,0.0,0.0,0.0,0.0,0.0,0.0,0.0,0.0,0.0,0.0,-4.1095,-4.1095,-4.1095,-4.1095,-4.1095,-4.1095,-4.1113,-4.115,-4.115,-4.1572,-4.2359,-4.2396,-4.3259,-4.4783,-4.5608,-4.6893,-4.8581,-5.0215,-5.1353,-5.2105,-5.2894,-5.3185,-5.3185,-5.3185,-5.3185,-5.3185,-5.3185,-5.3222,-5.3259,-5.3259,-5.4326,-5.5647,-5.5647,-5.6712,-5.8074,-5.8526,-5.9231,-6.0006,-6.0454,-6.093,-6.1705,-6.3336,-6.3523,-6.3732,-6.5449,-6.584,-6.569,-6.5211,-6.5099,-6.5261,-6.5795,-6.5897,-6.5878,-6.584,-6.582,-6.582,-6.582,-6.5859,-6.5897,-6.5897,-6.5897,-6.6186,-6.6955,-6.7821,-6.8667,-6.9494,-7.036,-7.086,-7.0898,-7.1668,-7.2149,-7.2187,-7.2995,-7.3803,-7.4572,-7.2918,-7.2091,-7.2129,-7.2033,-7.1572,-7.0764,-7.0821,-7.0841,-4.7609,-4.6526,-4.5076,-4.313,-4.2304,-4.1607,-4.0212,-3.99,0.0,0.0,0.0,0.0,0.0,0.0,0.0,0.0,0.0,0.0,0.0,0.0,0.0,0.0,0.0,0.0,0.0,0.0,0.0,0.0,0.0,0.0,-3.957,-3.957,-3.957,-3.957,-3.957,-3.9808,-4.0322,-4.0838,-4.1242,-4.1535,-4.2047,-4.2598,-4.3185,-4.3993,-4.4966,-4.6085,-4.7718,-4.9793,-5.205,-5.2876,-5.3185,-5.3185,-5.3185,-5.3185,-5.3185,-5.3185,-5.3185,-5.3185,-5.3185,-5.408,-5.5308,-5.5867,-5.696,-5.8202,-5.8934,-5.9562,-6.0063,-6.0229,-6.0619,-6.1365,-6.3033,-6.3393,-6.3743,-6.5493,-6.5897,-6.5853,-6.5644,-6.6019,-6.6291,-6.5949,-6.5897,-6.5897,-6.5897,-6.5436,-6.5263,-6.582,-6.5897,-6.5897,-6.5897,-6.634,-6.6782,-6.7071,-6.8379,-6.9571,-7.0398,-7.0725,-7.1379,-7.2495,-7.2341,-7.2456,-7.3014,-7.3841,-7.4168,-7.3937,-7.386,-7.3553,-7.3033,-7.1918,-7.1206,-7.0898,-7.0898,-7.0898,-4.7957,-4.6727,-4.5186,-4.3828,-4.269,-4.1552,-4.0212,0.0,0.0,0.0,0.0,0.0,0.0,0.0,0.0,0.0,0.0,0.0,0.0,0.0,0.0,0.0,0.0,0.0,0.0,0.0,0.0,0.0,0.0,0.0,-3.8707,-3.8707,-3.8707,-3.8707,-3.8707,-3.8964,-3.9478,-4.0029,-4.0432,-4.0726,-4.1515,-4.2047,-4.2323,-4.313,-4.4085,-4.5168,-4.6214,-4.8251,-5.0857,-5.2234,-5.2803,-5.2821,-5.3075,-5.3274,-5.3402,-5.3402,-5.3504,-5.3623,-5.3623,-5.4221,-5.5174,-5.6164,-5.7153,-5.8122,-5.928,-5.9855,-6.0132,-6.0278,-6.0565,-6.1185,-6.2858,-6.3743,-6.4455,-6.5609,-6.5897,-6.5897,-6.5897,-6.632,-6.6609,-6.634,-6.607,-6.5994,-6.6263,-6.559,-6.5224,-6.5801,-6.5897,-6.5994,-6.6263,-6.7013,-6.7744,-6.8321,-6.9667,-7.0879,-7.1706,-7.1495,-7.1822,-7.2995,-7.2783,-7.2899,-7.3495,-7.4553,-7.4745,-7.3918,-7.4168,-7.3899,-7.3072,-7.1898,-7.1187,-7.0898,-7.0898,-7.0898,0.0,0.0,0.0,-4.414,0.0,0.0,-4.054,0.0,0.0,0.0,0.0,0.0,0.0,0.0,0.0,0.0,0.0,0.0,0.0,0.0,0.0,0.0,0.0,0.0,0.0,0.0,0.0,0.0,0.0,-3.8707,-3.8707,-3.8707,-3.8707,-3.8707,-3.8707,-3.8707,-3.8707,-3.8707,-3.9093,-3.9863,-4.0691,-4.1499,-4.2286,-4.3149,-4.436,-4.5828,-4.5902,-4.6819,-4.8416,-5.093,-5.1977,-5.2068,-5.2915,-5.3464,-5.3814,-5.3814,-5.4101,-5.4503,-5.4503,-5.4694,-5.5212,-5.65,-5.7188,-5.7828,-5.9589,-6.0132,-6.0222,-6.0678,-6.08,-6.1185,-6.2858,-6.4589,-6.5897,-6.5897,-6.5897,-6.5897,-6.5897,-6.5897,-6.6128,-6.6898,-6.6436,-6.6186,-6.6917,-6.6417,-6.5897,-6.5936,-6.5936,-6.6244,-6.7071,-6.7936,-6.9109,-7.0764,-7.1725,-7.2572,-7.3437,-7.2706,-7.2187,-7.2187,-7.3014,-7.3514,-7.3514,-7.5111,-7.5592,-7.4687,-7.3899,-7.3072,-7.2149,-7.2149,-7.1725,-7.0898,-7.0898,-7.0898,-4.6948,0.0,0.0,0.0,0.0,0.0,0.0,0.0,0.0,0.0,0.0,0.0,0.0,0.0,0.0,0.0,0.0,0.0,0.0,0.0,0.0,0.0,0.0,0.0,0.0,0.0,0.0,0.0,-3.8377,-3.8707,-3.8707,-3.8707,-3.8707,-3.8707,-3.8707,-3.8707,-3.8707,-3.8707,-3.8817,-3.9056,-4.0435,-4.1224,-4.1515,-4.3479,-4.4287,-4.425,-4.6012,-4.6691,-4.6801,-4.9866,-5.1463,-5.211,-5.321,-5.3702,-5.3851,-5.4187,-5.4387,-5.4503,-5.4503,-5.4554,-5.4936,-5.6797,-5.7468,-5.7958,-5.9983,-6.061,-6.0634,-6.0757,-6.08,-6.1185,-6.2858,-6.4589,-6.5897,-6.5897,-6.5897,-6.5897,-6.5897,-6.5897,-6.5974,-6.6186,-6.6513,-6.6647,-6.6282,-6.6051,-6.609,-6.6667,-6.6763,-6.7301,-6.8783,-6.9706,-7.0629,-7.1725,-7.2629,-7.3245,-7.3481,-7.2706,-7.2187,-7.2187,-7.3014,-7.3514,-7.3514,-7.5111,-7.5322,-7.386,-7.361,-7.2764,-7.1264,-7.1264,-7.1148,-7.0898,-7.0898,-7.0898,-4.7021,-4.7076,-4.7369,-4.5645,0.0,0.0,-4.3222,-4.2635,0.0,0.0,0.0,0.0,0.0,0.0,0.0,0.0,0.0,0.0,0.0,0.0,0.0,0.0,0.0,0.0,0.0,0.0,0.0,-3.8025,-3.8432,-3.8707,-3.8707,-3.8707,-3.8707,-3.8707,-3.8707,-3.8707,-3.8707,-3.8707,-3.8872,-3.9221,-4.049,-4.1279,-4.1645,-4.3406,-4.4121,-4.4085,-4.548,-4.6012,-4.6122,-4.904,-5.0747,-5.165,-5.3002,-5.3663,-5.3869,-5.4322,-5.4613,-5.476,-5.4952,-5.4895,-5.5089,-5.7212,-5.776,-5.7993,-6.016,-6.08,-6.08,-6.08,-6.105,-6.1627,-6.2974,-6.432,-6.5455,-6.5801,-6.5897,-6.5897,-6.5897,-6.5897,-6.5994,-6.634,-6.6513,-6.6551,-6.6417,-6.6109,-6.6167,-6.6974,-6.709,-6.784,-6.9937,-7.0937,-7.1898,-7.311,-7.4014,-7.4399,-7.4034,-7.3226,-7.2591,-7.2206,-7.3014,-7.3514,-7.3514,-7.4764,-7.4841,-7.3533,-7.3149,-7.2283,-7.0898,-7.0898,-7.0898,-7.0898,-7.0898,-7.1091,-4.7241,-4.7168,-4.7131,-4.6159,-4.5975,0.0,-4.3204,-4.2708,-4.2047,0.0,0.0,0.0,0.0,0.0,0.0,0.0,0.0,0.0,0.0,0.0,0.0,0.0,0.0,0.0,0.0,-3.7639,-3.7933,-3.8652,-3.8707,-3.8707,-3.8707,-3.8707,-3.8707,-3.8707,-3.8707,-3.8707,-3.8707,-3.8707,-3.9093,-3.9916,-4.0726,-4.1517,-4.2323,-4.3222,-4.3975,-4.458,-4.4856,-4.5333,-4.6085,-4.86,-5.005,-5.0839,-5.259,-5.3524,-5.3923,-5.4387,-5.4804,-5.5212,-5.5577,-5.5435,-5.5459,-5.7601,-5.7972,-5.7993,-6.016,-6.08,-6.08,-6.08,-6.1416,-6.2281,-6.3089,-6.3955,-6.482,-6.5686,-6.5897,-6.5897,-6.5897,-6.5974,-6.6224,-6.684,-6.6378,-6.6147,-6.6955,-6.6513,-6.6301,-6.7109,-6.7321,-6.8302,-7.086,-7.186,-7.2995,-7.4668,-7.5534,-7.5649,-7.4784,-7.3976,-7.3168,-7.2379,-7.3072,-7.3538,-7.363,-7.4418,-7.4418,-7.3533,-7.2552,-7.1668,-7.0898,-7.0898,-7.0898,-7.0898,-7.0898,-7.136,-4.6709,-4.759,-4.86,-4.6434,-4.6397,0.0,-4.5461,-4.5204,-4.469,0.0,0.0,0.0,0.0,0.0,0.0,0.0,0.0,0.0,0.0,0.0,0.0,0.0,0.0,0.0,0.0,-3.8469,-3.8524,-3.8689,-3.8707,-3.8707,-3.8707,-3.8707,-3.8707,-3.8707,-3.8707,-3.8707,-3.8707,-3.8707,-3.9093,-3.9916,-4.0726,-4.1517,-4.2359,-4.3809,-4.4195,-4.3828,-4.5792,-4.6342,-4.614,-4.926,-5.0251,-5.009,-5.2676,-5.396,-5.4404,-5.4819,-5.5244,-5.5588,-5.5673,-5.5435,-5.5459,-5.7601,-5.7972,-5.7993,-6.016,-6.08,-6.08,-6.08,-6.1416,-6.2281,-6.3089,-6.3955,-6.482,-6.5686,-6.5897,-6.5897,-6.5897,-6.6397,-6.6724,-6.6224,-6.6013,-6.6147,-6.6955,-6.6974,-6.7148,-6.8013,-6.8744,-7.011,-7.2668,-7.3149,-7.3899,-7.5572,-7.5899,-7.5649,-7.4784,-7.3976,-7.3437,-7.3264,-7.3418,-7.3803,-7.4437,-7.5284,-7.5034,-7.3533,-7.1956,-7.1071,-7.0898,-7.0898,-7.0898,-7.0898,-7.0898,-7.136,-4.7333,-4.7994,-4.8655,-4.7407,-4.7407,0.0,0.0,-4.5902,-4.5333,0.0,0.0,0.0,0.0,0.0,0.0,0.0,0.0,0.0,0.0,0.0,0.0,0.0,0.0,0.0,0.0,-3.8102,-3.8267,-3.867,-3.8707,-3.8707,-3.8707,-3.8707,-3.8707,-3.8707,-3.8707,-3.8707,-3.8707,-3.8707,-3.9313,-4.0506,-4.0912,-4.1735,-4.2928,-4.3736,-4.4205,-4.4494,-4.6089,-4.6687,-4.6749,-5.0033,-5.0908,-5.0441,-5.2864,-5.4083,-5.455,-5.4952,-5.5224,-5.5423,-5.564,-5.5577,-5.571,-5.7678,-5.8138,-5.831,-6.0215,-6.08,-6.08,-6.08,-6.1108,-6.1743,-6.2993,-6.3628,-6.4282,-6.559,-6.5897,-6.5897,-6.5897,-6.6224,-6.6551,-6.6724,-6.6282,-6.6032,-6.6417,-6.6821,-6.7398,-6.8282,-6.9148,-7.0629,-7.3168,-7.3514,-7.4149,-7.5822,-7.5995,-7.5476,-7.4207,-7.411,-7.3745,-7.2899,-7.3649,-7.4284,-7.4687,-7.513,-7.4553,-7.2879,-7.1572,-7.0898,-7.0898,-7.0898,-7.0898,-7.0898,-7.0898,-7.161,-4.8049,-4.8306,-4.8325,-4.8402,0.0,-4.8178,0.0,0.0,0.0,0.0,0.0,0.0,0.0,0.0,0.0,0.0,0.0,0.0,0.0,0.0,0.0,0.0,0.0,0.0,0.0,-3.7823,-3.7991,-3.8652,-3.8707,-3.8707,-3.8707,-3.8707,-3.8707,-3.8707,-3.8854,-3.8854,-3.8707,-3.9019,-3.9811,-4.1095,-4.126,-4.2134,-4.3597,-4.3597,-4.4175,-4.5212,-4.6187,-4.6776,-4.7338,-5.0631,-5.1658,-5.1324,-5.32,-5.4202,-5.464,-5.4979,-5.516,-5.525,-5.5588,-5.5703,-5.5992,-5.7723,-5.8531,-5.9031,-6.0396,-6.08,-6.08,-6.08,-6.0916,-6.1396,-6.2916,-6.3423,-6.3955,-6.5532,-6.5897,-6.5936,-6.609,-6.6128,-6.6359,-6.7109,-6.6647,-6.6224,-6.6494,-6.6994,-6.7648,-6.8532,-6.9379,-7.0802,-7.3187,-7.3514,-7.4149,-7.5822,-7.5842,-7.5265,-7.4091,-7.4284,-7.4034,-7.2995,-7.4034,-7.4784,-7.4938,-7.4649,-7.3745,-7.2225,-7.1341,-7.0898,-7.0898,-7.0898,-7.0898,-7.0898,-7.1071,-7.1995,0.0,0.0,0.0,0.0,-4.9141,0.0,0.0,0.0,-4.8894,-4.7829,0.0,0.0,0.0,0.0,0.0,0.0,0.0,0.0,0.0,0.0,0.0,0.0,0.0,0.0,0.0,0.0,-3.8597,-3.8689,-3.8707,-3.8707,-3.8707,-3.8707,-3.8707,-3.8707,-3.9386,-3.9423,-3.8707,-4.0104,-4.0912,-4.1113,-4.1827,-4.2779,-4.394,-4.394,-4.4202,-4.4753,-4.628,-4.6972,-4.7259,-5.0631,-5.2158,-5.2526,-5.3879,-5.4671,-5.5034,-5.5075,-5.5319,-5.564,-5.5673,-5.5703,-5.5992,-5.7723,-5.9319,-6.055,-6.0742,-6.08,-6.08,-6.08,-6.1358,-6.2147,-6.307,-6.3878,-6.4705,-6.5667,-6.5897,-6.609,-6.6801,-6.6955,-6.6782,-6.6205,-6.6551,-6.7359,-6.8609,-6.8513,-6.8552,-6.9417,-7.0244,-7.1437,-7.3264,-7.3514,-7.4149,-7.5822,-7.5303,-7.5091,-7.5668,-7.4437,-7.4187,-7.5495,-7.5014,-7.5053,-7.5822,-7.4437,-7.3187,-7.2206,-7.1341,-7.0898,-7.0898,-7.0898,-7.0898,-7.0918,-7.1687,-7.2572,0.0,0.0,0.0,0.0,0.0,0.0,-4.9842,0.0,-5.005,0.0,0.0,0.0,0.0,0.0,0.0,0.0,0.0,0.0,0.0,0.0,0.0,0.0,0.0,0.0,0.0,0.0,0.0,0.0,0.0,-3.8919,-3.8919,-3.8773,-3.8707,-3.8707,-3.9478,-3.9515,-3.8707,-4.0288,-4.1095,-4.1095,-4.2105,-4.3101,-4.4016,-4.4233,-4.5076,-4.6383,-4.7054,-4.8305,-4.9985,-5.1914,-5.3087,-5.3786,-5.481,-5.5306,-5.5435,-5.5435,-5.5566,-5.5703,-5.5703,-5.603,-5.6753,-5.8434,-5.98,-6.08,-6.08,-6.08,-6.08,-6.08,-6.1416,-6.2281,-6.3089,-6.3955,-6.482,-6.5686,-6.5897,-6.6109,-6.6917,-6.6724,-6.6301,-6.5974,-6.6167,-6.6994,-6.8879,-6.8763,-6.8706,-6.9571,-7.0379,-7.1533,-7.3283,-7.3514,-7.4149,-7.5822,-7.5668,-7.5399,-7.5265,-7.5053,-7.5034,-7.5226,-7.538,-7.5399,-7.5245,-7.413,-7.3091,-7.2206,-7.1341,-7.0898,-7.0898,-7.0898,-7.1168,-7.1648,-7.2033,-7.2918,-4.8719,0.0,0.0,0.0,0.0,0.0,0.0,0.0,0.0,0.0,0.0,0.0,0.0,0.0,-4.8207,-4.7777,0.0,-4.555,0.0,0.0,0.0,0.0,0.0,0.0,0.0,0.0,0.0,0.0,-3.9304,-3.9205,-3.9093,-3.8923,-3.8777,-3.8707,-3.9698,-3.9845,-3.9038,-4.0836,-4.1662,-4.1442,-4.2588,-4.3494,-4.4175,-4.4548,-4.571,-4.7414,-4.7644,-4.9196,-5.1664,-5.276,-5.3703,-5.4587,-5.5395,-5.5703,-5.5703,-5.5703,-5.5703,-5.5703,-5.5703,-5.6434,-5.7588,-5.9031,-6.0089,-6.08,-6.08,-6.08,-6.08,-6.08,-6.1589,-6.2551,-6.3147,-6.4128,-6.5128,-6.5743,-6.5897,-6.6186,-6.7225,-6.6628,-6.6032,-6.6494,-6.6205,-6.6551,-6.8629,-6.8667,-6.8783,-6.986,-7.0533,-7.1533,-7.3283,-7.3514,-7.4053,-7.5495,-7.5649,-7.5399,-7.4764,-7.5284,-7.5476,-7.5091,-7.5438,-7.5265,-7.4418,-7.3591,-7.2726,-7.186,-7.1225,-7.0898,-7.0898,-7.0898,-7.1475,-7.2552,-7.2552,-7.3322,0.0,0.0,0.0,-5.0082,0.0,0.0,0.0,0.0,-5.2766,0.0,0.0,0.0,0.0,-5.0017,-4.9513,-4.7947,-4.7282,0.0,0.0,0.0,0.0,0.0,0.0,0.0,0.0,0.0,0.0,-4.0347,-3.9846,-3.9438,-3.9125,-3.9099,-3.8975,-3.8723,-4.0249,-4.0689,-3.9863,-4.2229,-4.302,-4.2286,-4.3426,-4.4186,-4.4593,-4.4931,-4.575,-4.6972,-4.7741,-4.9096,-5.0866,-5.2529,-5.3703,-5.4587,-5.5395,-5.5703,-5.5703,-5.5703,-5.5703,-5.5703,-5.5703,-5.6819,-5.8396,-5.9223,-6.0089,-6.08,-6.08,-6.08,-6.08,-6.08,-6.1993,-6.3281,-6.3288,-6.457,-6.5859,-6.5878,-6.5897,-6.634,-6.8013,-6.7051,-6.6378,-6.8013,-6.7013,-6.6436,-6.8129,-6.8417,-6.8956,-7.061,-7.0879,-7.1533,-7.3283,-7.3514,-7.3822,-7.4649,-7.4745,-7.4726,-7.4707,-7.4726,-7.5091,-7.5918,-7.5188,-7.438,-7.3572,-7.2706,-7.1822,-7.0956,-7.0918,-7.0898,-7.0898,-7.0898,-7.1783,-7.3476,-7.3476,-7.3899,0.0,0.0,-4.6997,-4.8966,0.0,0.0,0.0,0.0,0.0,0.0,0.0,0.0,0.0,-5.0296,-4.9816,-4.9021,-4.8529,-4.7625,0.0,0.0,0.0,0.0,0.0,0.0,0.0,0.0,0.0,-4.1044,-4.0325,-3.9891,0.0,-3.9839,-3.9849,-3.9758,-4.1148,-4.1515,-4.0708,-4.2561,-4.3094,-4.2304,-4.3733,-4.4474,-4.4606,-4.5191,-4.6263,-4.774,-4.8586,-5.024,-5.2433,-5.3587,-5.4549,-5.5318,-5.5588,-5.5703,-5.5703,-5.5703,-5.5703,-5.5857,-5.7011,-5.7819,-5.8531,-5.9915,-6.055,-6.08,-6.08,-6.08,-6.08,-6.08,-6.1608,-6.2627,-6.3166,-6.4166,-6.5186,-6.5763,-6.5897,-6.6205,-6.7301,-6.6686,-6.6224,-6.7321,-6.6647,-6.6244,-6.734,-6.8013,-6.8975,-7.0648,-7.1379,-7.2187,-7.336,-7.3976,-7.4399,-7.4668,-7.5226,-7.5341,-7.4764,-7.5226,-7.5688,-7.5976,-7.5188,-7.4341,-7.3519,-7.2668,-7.1783,-7.0918,-7.0898,-7.0898,-7.0898,-7.0898,-7.1802,-7.3514,-7.3514,-7.4245,-4.681,-4.6647,0.0,-4.8334,-4.8478,0.0,-5.0108,0.0,0.0,0.0,0.0,0.0,0.0,-5.0063,-4.9987,-4.976,-4.9351,-4.8457,0.0,-4.6027,0.0,0.0,0.0,0.0,0.0,0.0,0.0,-4.1426,-4.0931,-4.0654,0.0,0.0,-4.0881,-4.0775,-4.1762,-4.2047,-4.1534,-4.2837,-4.3307,-4.292,-4.4065,-4.4657,-4.48,-4.5352,-4.6509,-4.8144,-4.9029,-5.0856,-5.328,-5.4145,-5.4972,-5.5703,-5.5703,-5.5703,-5.5703,-5.5703,-5.5895,-5.6415,-5.8127,-5.8723,-5.8954,-6.0339,-6.08,-6.08,-6.08,-6.08,-6.08,-6.08,-6.1627,-6.2647,-6.3166,-6.4185,-6.5205,-6.5763,-6.5897,-6.6109,-6.6917,-6.6455,-6.6128,-6.6936,-6.6436,-6.6147,-6.6955,-6.7571,-6.8417,-6.9802,-7.1264,-7.2399,-7.2976,-7.4014,-7.4591,-7.4303,-7.5303,-7.5765,-7.5207,-7.5688,-7.5861,-7.5553,-7.4745,-7.3899,-7.3072,-7.2206,-7.1475,-7.0918,-7.0898,-7.0898,-7.0898,-7.0898,-7.1687,-7.3187,-7.3187,-7.4187]},{"header":{"parameterUnit":"m.s-1","parameterCategory":1,"la1":30.6,"la2":29.2853,"lo1":-89.7004,"lo2":-87.6739,"dy":0.0162,"dx":0.0183,"nx":112,"ny":82,"refTime":"2023-03-26T12:00:00:Z","depth":0,"parameterNumber":3,"parameterNumberName":"V-component_of_WINDS"},"data":[0.0,0.0,0.0,0.0,0.0,0.0,0.0,0.0,0.0,0.0,0.0,0.0,0.0,0.0,0.0,0.0,0.0,0.0,0.0,0.0,0.0,0.0,0.0,0.0,0.0,0.0,0.0,0.0,0.0,0.0,0.0,0.0,0.0,0.0,0.0,0.0,0.0,0.0,0.0,0.0,0.0,0.0,0.0,0.0,0.0,0.0,0.0,0.0,0.0,0.0,0.0,0.0,0.0,0.0,0.0,0.0,0.0,0.0,0.0,0.0,0.0,0.0,0.0,0.0,0.0,0.0,0.0,0.0,0.0,0.0,0.0,0.0,0.0,0.0,0.0,0.0,0.0,0.0,0.0,0.0,0.0,0.0,0.0,0.0,0.0,0.0,0.0,0.0,0.0,0.0,-1.483,-1.5464,-1.7041,-1.7975,-1.7922,-1.839,-1.8056,-1.666,0.0,0.0,0.0,0.0,0.0,0.0,0.0,0.0,0.0,0.0,0.0,0.0,0.0,0.0,0.0,0.0,0.0,0.0,0.0,0.0,0.0,0.0,0.0,0.0,0.0,0.0,0.0,0.0,0.0,0.0,0.0,0.0,0.0,0.0,0.0,0.0,0.0,0.0,0.0,0.0,0.0,0.0,0.0,0.0,0.0,0.0,0.0,0.0,0.0,0.0,0.0,0.0,0.0,0.0,0.0,0.0,0.0,0.0,0.0,0.0,0.0,0.0,0.0,0.0,0.0,0.0,0.0,0.0,0.0,0.0,0.0,0.0,0.0,0.0,0.0,0.0,0.0,0.0,0.0,0.0,0.0,0.0,0.0,0.0,0.0,0.0,0.0,0.0,0.0,0.0,0.0,0.0,0.0,0.0,0.0,0.0,0.0,0.0,0.0,0.0,0.0,0.0,0.0,0.0,-1.5263,-1.6052,-1.7281,-1.7889,-1.7675,-1.7561,-1.7001,-1.6025,0.0,0.0,0.0,0.0,0.0,0.0,0.0,0.0,0.0,0.0,0.0,0.0,0.0,0.0,0.0,0.0,0.0,0.0,0.0,0.0,0.0,0.0,0.0,0.0,0.0,0.0,0.0,0.0,0.0,0.0,0.0,0.0,0.0,0.0,0.0,0.0,0.0,0.0,0.0,0.0,0.0,0.0,0.0,0.0,0.0,0.0,0.0,0.0,0.0,0.0,0.0,0.0,0.0,0.0,0.0,0.0,0.0,0.0,0.0,0.0,0.0,0.0,0.0,0.0,0.0,0.0,0.0,0.0,0.0,0.0,0.0,0.0,0.0,0.0,0.0,0.0,0.0,0.0,0.0,0.0,0.0,0.0,0.0,0.0,0.0,0.0,0.0,0.0,0.0,0.0,0.0,0.0,0.0,0.0,0.0,0.0,0.0,0.0,0.0,0.0,0.0,0.0,0.0,-1.5184,-1.5351,-1.5752,-1.6714,-1.7201,-1.6901,-1.66,-1.6192,-1.5631,-1.6233,0.0,0.0,0.0,0.0,0.0,0.0,0.0,0.0,0.0,0.0,0.0,0.0,0.0,0.0,0.0,0.0,0.0,0.0,0.0,0.0,0.0,0.0,0.0,0.0,0.0,0.0,0.0,0.0,0.0,0.0,0.0,0.0,0.0,0.0,0.0,0.0,0.0,0.0,0.0,0.0,0.0,0.0,0.0,0.0,0.0,0.0,0.0,0.0,0.0,0.0,0.0,0.0,0.0,0.0,0.0,0.0,0.0,0.0,0.0,0.0,0.0,0.0,0.0,0.0,0.0,0.0,0.0,0.0,0.0,0.0,0.0,0.0,0.0,0.0,0.0,0.0,0.0,0.0,0.0,0.0,0.0,0.0,0.0,0.0,0.0,0.0,0.0,0.0,0.0,0.0,0.0,0.0,0.0,0.0,0.0,0.0,0.0,0.0,0.0,0.0,0.0,0.0,-1.5124,-1.519,-1.5471,-1.6099,-1.638,-1.6092,-1.5798,-1.5531,-1.5311,-1.5231,0.0,0.0,0.0,0.0,0.0,0.0,0.0,0.0,0.0,0.0,0.0,0.0,0.0,0.0,0.0,0.0,0.0,0.0,0.0,0.0,0.0,0.0,0.0,0.0,0.0,0.0,0.0,0.0,0.0,0.0,0.0,0.0,0.0,0.0,0.0,0.0,0.0,0.0,0.0,0.0,0.0,0.0,0.0,0.0,0.0,0.0,0.0,0.0,0.0,0.0,0.0,0.0,0.0,0.0,0.0,0.0,0.0,0.0,0.0,0.0,0.0,0.0,0.0,0.0,0.0,0.0,0.0,0.0,0.0,0.0,0.0,0.0,0.0,0.0,0.0,0.0,0.0,0.0,0.0,0.0,0.0,0.0,0.0,0.0,0.0,0.0,0.0,0.0,0.0,0.0,0.0,0.0,0.0,0.0,0.0,0.0,0.0,0.0,0.0,0.0,0.0,0.0,-1.4836,-1.4596,-1.5638,-1.5804,-1.5772,-1.5484,-1.519,-1.5062,-1.5042,-1.4736,0.0,0.0,0.0,0.0,0.0,0.0,0.0,0.0,0.0,0.0,0.0,0.0,0.0,0.0,0.0,0.0,0.0,0.0,0.0,0.0,0.0,0.0,0.0,0.0,0.0,0.0,0.0,0.0,0.0,0.0,0.0,0.0,0.0,0.0,0.0,0.0,0.0,0.0,0.0,0.0,0.0,0.0,0.0,0.0,0.0,0.0,0.0,0.0,0.0,0.0,0.0,0.0,0.0,0.0,0.0,0.0,0.0,0.0,0.0,0.0,0.0,0.0,0.0,0.0,0.0,0.0,0.0,0.0,0.0,0.0,0.0,0.0,0.0,0.0,0.0,0.0,0.0,0.0,0.0,0.0,0.0,0.0,0.0,0.0,0.0,0.0,0.0,0.0,0.0,0.0,0.0,0.0,0.0,0.0,0.0,0.0,0.0,0.0,0.0,0.0,0.0,0.0,-1.4955,-1.473,0.0,-1.5177,-1.5097,-1.4623,-1.4309,-1.4222,-1.4445,0.0,0.0,0.0,0.0,0.0,0.0,0.0,0.0,0.0,0.0,0.0,0.0,0.0,0.0,0.0,0.0,0.0,0.0,0.0,0.0,0.0,0.0,0.0,0.0,0.0,0.0,0.0,0.0,0.0,0.0,0.0,0.0,0.0,0.0,0.0,0.0,0.0,0.0,0.0,0.0,0.0,0.0,0.0,0.0,0.0,0.0,0.0,0.0,0.0,0.0,0.0,0.0,0.0,0.0,0.0,0.0,0.0,0.0,0.0,0.0,0.0,0.0,0.0,0.0,0.0,0.0,0.0,0.0,0.0,0.0,0.0,0.0,0.0,0.0,0.0,0.0,0.0,0.0,0.0,0.0,0.0,0.0,0.0,0.0,0.0,0.0,0.0,0.0,0.0,0.0,0.0,0.0,0.0,0.0,0.0,0.0,0.0,0.0,0.0,0.0,0.0,0.0,-1.5077,-1.4653,-1.4298,0.0,-1.4422,-1.4342,-1.3848,-1.3534,-1.3567,-1.4055,0.0,0.0,0.0,0.0,0.0,0.0,0.0,0.0,0.0,0.0,0.0,0.0,0.0,0.0,0.0,0.0,0.0,0.0,0.0,0.0,0.0,0.0,0.0,0.0,0.0,0.0,0.0,0.0,0.0,0.0,0.0,0.0,0.0,0.0,0.0,0.0,0.0,0.0,0.0,0.0,0.0,0.0,0.0,0.0,0.0,0.0,0.0,0.0,0.0,0.0,0.0,0.0,0.0,0.0,0.0,0.0,0.0,0.0,0.0,0.0,0.0,0.0,0.0,0.0,0.0,0.0,0.0,0.0,0.0,0.0,0.0,0.0,0.0,0.0,0.0,0.0,0.0,0.0,0.0,0.0,0.0,0.0,0.0,0.0,0.0,0.0,0.0,0.0,0.0,0.0,0.0,0.0,0.0,0.0,0.0,0.0,0.0,0.0,0.0,0.0,0.0,0.0,-1.5237,-1.3883,-1.3012,-1.3533,-1.36,-1.348,-1.3227,-1.2958,-1.3166,0.0,0.0,0.0,0.0,0.0,0.0,0.0,0.0,0.0,0.0,0.0,0.0,0.0,0.0,0.0,0.0,0.0,0.0,0.0,0.0,0.0,0.0,0.0,0.0,0.0,0.0,0.0,0.0,0.0,0.0,0.0,0.0,0.0,0.0,0.0,0.0,0.0,0.0,0.0,0.0,0.0,0.0,0.0,0.0,0.0,0.0,0.0,0.0,0.0,0.0,0.0,0.0,0.0,0.0,0.0,0.0,0.0,0.0,0.0,0.0,0.0,0.0,0.0,0.0,0.0,0.0,0.0,0.0,0.0,0.0,0.0,0.0,0.0,0.0,0.0,0.0,0.0,0.0,0.0,0.0,0.0,0.0,0.0,0.0,0.0,0.0,0.0,0.0,0.0,0.0,0.0,0.0,0.0,0.0,0.0,0.0,0.0,0.0,0.0,0.0,0.0,0.0,0.0,-1.5042,-1.3534,-1.2665,-1.3273,-1.334,-1.3126,-1.2612,-1.2485,-1.2819,-1.368,0.0,0.0,0.0,0.0,0.0,0.0,0.0,0.0,0.0,0.0,0.0,0.0,0.0,0.0,0.0,0.0,0.0,0.0,0.0,0.0,0.0,0.0,0.0,0.0,0.0,0.0,0.0,0.0,0.0,0.0,0.0,0.0,0.0,0.0,0.0,0.0,0.0,0.0,0.0,0.0,0.0,0.0,0.0,0.0,0.0,0.0,0.0,0.0,0.0,0.0,0.0,0.0,0.0,0.0,0.0,0.0,0.0,0.0,0.0,0.0,0.0,0.0,0.0,0.0,0.0,0.0,0.0,0.0,0.0,0.0,0.0,0.0,0.0,0.0,0.0,0.0,0.0,0.0,0.0,0.0,0.0,0.0,0.0,0.0,0.0,0.0,0.0,0.0,0.0,0.0,0.0,0.0,0.0,0.0,0.0,0.0,0.0,0.0,0.0,0.0,0.0,0.0,-1.4948,-1.3621,-1.2759,-1.2999,-1.3133,-1.3013,-1.2556,-1.2371,-1.2585,-1.3247,0.0,0.0,0.0,0.0,0.0,0.0,0.0,0.0,0.0,0.0,0.0,0.0,0.0,0.0,0.0,0.0,0.0,0.0,0.0,0.0,0.0,0.0,0.0,0.0,0.0,0.0,0.0,0.0,0.0,0.0,0.0,0.0,0.0,0.0,0.0,0.0,0.0,0.0,0.0,0.0,0.0,0.0,0.0,0.0,0.0,0.0,0.0,0.0,0.0,0.0,0.0,0.0,0.0,0.0,0.0,0.0,0.0,0.0,0.0,0.0,0.0,0.0,0.0,0.0,0.0,0.0,0.0,0.0,0.0,0.0,0.0,0.0,0.0,0.0,0.0,0.0,0.0,0.0,0.0,0.0,0.0,0.0,0.0,0.0,0.0,0.0,0.0,0.0,0.0,0.0,0.0,0.0,0.0,0.0,0.0,0.0,0.0,0.0,0.0,0.0,0.0,0.0,-1.5008,-1.3928,-1.3073,-1.2857,-1.3039,-1.3073,-1.277,-1.2549,-1.2498,-1.2811,0.0,0.0,0.0,0.0,0.0,0.0,0.0,0.0,0.0,0.0,0.0,0.0,0.0,0.0,0.0,0.0,0.0,0.0,0.0,0.0,0.0,0.0,0.0,0.0,0.0,0.0,0.0,0.0,0.0,0.0,0.0,0.0,0.0,0.0,0.0,0.0,0.0,0.0,0.0,0.0,0.0,0.0,0.0,0.0,0.0,0.0,0.0,0.0,0.0,0.0,0.0,0.0,0.0,0.0,0.0,0.0,0.0,0.0,0.0,0.0,-2.2978,0.0,0.0,0.0,0.0,0.0,0.0,0.0,0.0,0.0,0.0,0.0,0.0,0.0,0.0,0.0,0.0,0.0,0.0,0.0,0.0,0.0,0.0,0.0,0.0,0.0,0.0,0.0,0.0,0.0,0.0,0.0,0.0,0.0,0.0,0.0,0.0,0.0,0.0,0.0,0.0,0.0,-1.5264,-1.3903,-1.2951,-1.3093,-1.3173,-1.2986,-1.2438,-1.2779,-1.3046,-1.3106,-1.3728,0.0,0.0,0.0,0.0,0.0,0.0,0.0,0.0,0.0,0.0,0.0,0.0,0.0,0.0,0.0,0.0,0.0,0.0,0.0,0.0,0.0,0.0,0.0,0.0,0.0,0.0,0.0,0.0,0.0,0.0,0.0,0.0,0.0,0.0,0.0,0.0,0.0,0.0,0.0,0.0,0.0,0.0,0.0,0.0,0.0,0.0,0.0,0.0,0.0,0.0,0.0,0.0,0.0,0.0,0.0,0.0,0.0,0.0,0.0,0.0,-2.1257,0.0,0.0,0.0,0.0,0.0,0.0,0.0,0.0,0.0,0.0,0.0,0.0,0.0,0.0,0.0,0.0,0.0,0.0,0.0,0.0,0.0,0.0,0.0,0.0,0.0,0.0,0.0,0.0,0.0,0.0,0.0,0.0,0.0,0.0,0.0,0.0,0.0,0.0,0.0,0.0,-1.5398,-1.4222,-1.344,-1.3373,-1.338,-1.3287,-1.2934,-1.3106,-1.3213,-1.3213,-1.3761,0.0,0.0,0.0,0.0,0.0,0.0,0.0,0.0,0.0,0.0,0.0,0.0,0.0,0.0,0.0,0.0,0.0,0.0,0.0,0.0,0.0,0.0,0.0,0.0,0.0,0.0,0.0,0.0,0.0,0.0,0.0,0.0,0.0,0.0,0.0,0.0,0.0,0.0,0.0,0.0,0.0,0.0,0.0,0.0,0.0,0.0,0.0,0.0,0.0,0.0,0.0,0.0,0.0,-2.1237,-2.0494,-1.9011,-1.9305,-1.9178,-1.8754,-1.9732,-1.9059,-1.7416,0.0,0.0,0.0,0.0,0.0,0.0,0.0,0.0,0.0,0.0,0.0,0.0,0.0,0.0,0.0,0.0,0.0,0.0,0.0,0.0,0.0,0.0,0.0,0.0,0.0,-1.7929,-1.8376,0.0,0.0,0.0,0.0,0.0,0.0,0.0,0.0,0.0,0.0,0.0,0.0,-1.5364,-1.4603,-1.3995,-1.3706,-1.368,-1.366,-1.3606,-1.3433,-1.334,-1.3287,-1.3788,-1.4135,0.0,0.0,0.0,0.0,0.0,0.0,0.0,0.0,0.0,0.0,0.0,0.0,0.0,0.0,0.0,0.0,0.0,0.0,0.0,0.0,0.0,0.0,0.0,0.0,0.0,0.0,0.0,0.0,0.0,0.0,0.0,0.0,-1.9357,-2.1159,0.0,0.0,0.0,0.0,0.0,0.0,0.0,0.0,0.0,0.0,0.0,0.0,0.0,-1.9139,-1.97,-1.9917,-1.9897,-1.9652,-2.0144,-2.0005,-1.9319,-1.9606,-1.97,-1.9613,-1.9543,0.0,-1.7686,-1.9094,0.0,0.0,0.0,0.0,0.0,0.0,0.0,0.0,0.0,0.0,0.0,0.0,0.0,0.0,0.0,0.0,0.0,0.0,0.0,0.0,0.0,0.0,-1.6943,-1.6496,-1.6729,-1.693,0.0,-1.6811,-1.7052,-1.6536,-1.6469,0.0,0.0,0.0,0.0,0.0,0.0,0.0,-1.5135,-1.4519,-1.4075,-1.4035,-1.4028,-1.3928,-1.3626,-1.3841,-1.3861,-1.3567,-1.3901,-1.4315,-1.4874,-1.4968,0.0,0.0,0.0,0.0,0.0,0.0,0.0,0.0,0.0,0.0,0.0,0.0,0.0,0.0,0.0,0.0,0.0,0.0,0.0,0.0,0.0,0.0,0.0,0.0,0.0,0.0,0.0,0.0,0.0,-2.1966,-2.1228,-2.0858,-1.9988,-1.9647,0.0,0.0,0.0,0.0,0.0,0.0,0.0,0.0,0.0,-1.9419,-1.9573,-1.9646,-1.9613,-2.0067,-2.0227,-2.0167,-2.0695,-2.0755,-2.0354,-2.0648,-2.0601,-2.0287,-2.016,-1.9619,-1.8861,-1.9119,-1.8755,-1.8097,0.0,0.0,0.0,0.0,-2.0495,-2.0288,-1.9499,-1.8702,0.0,0.0,0.0,0.0,0.0,0.0,0.0,0.0,0.0,0.0,0.0,0.0,0.0,-1.7029,-1.7583,-1.8015,-1.6812,-1.672,-1.6774,0.0,-1.6589,-1.6857,-1.6985,0.0,0.0,0.0,0.0,-1.5491,-1.5244,-1.4549,-1.4088,-1.4088,-1.4088,-1.4102,-1.4093,-1.4255,-1.4349,-1.4382,-1.4509,-1.474,-1.4995,-1.5277,-1.5691,0.0,0.0,0.0,0.0,0.0,0.0,0.0,0.0,0.0,0.0,0.0,0.0,0.0,0.0,0.0,0.0,0.0,0.0,0.0,0.0,0.0,0.0,0.0,0.0,0.0,0.0,0.0,0.0,-2.2909,-2.2116,-1.9524,-1.8877,-1.8584,0.0,0.0,0.0,0.0,0.0,0.0,-1.9573,-1.9793,-1.9947,-2.002,-2.0301,-2.0394,-2.0247,-2.0828,-2.1122,-2.1129,-2.1708,-2.177,-2.1563,-2.1704,-2.1537,-2.1116,-2.0962,-2.0608,-2.008,-1.9339,-1.8731,-1.8209,-1.8135,-1.86,-1.9345,-1.9248,-1.9189,-1.9206,-1.9022,-1.8341,-1.7501,-1.7353,0.0,-1.7308,-1.6934,0.0,0.0,0.0,0.0,-1.7474,-1.7259,-1.807,-1.8684,-1.7503,-1.8184,-1.864,-1.7029,-1.6767,-1.6667,0.0,-1.6449,-1.6777,-1.6851,0.0,0.0,0.0,0.0,-1.5344,-1.519,-1.4536,-1.4115,-1.4195,-1.4202,-1.4315,-1.4609,-1.4636,-1.473,-1.4995,-1.5008,-1.4975,-1.4901,-1.5337,-1.5645,-1.5718,0.0,0.0,0.0,0.0,0.0,0.0,0.0,0.0,0.0,0.0,0.0,0.0,0.0,0.0,0.0,0.0,0.0,0.0,0.0,0.0,0.0,0.0,0.0,0.0,0.0,0.0,0.0,0.0,0.0,-1.7962,-1.7936,0.0,0.0,0.0,0.0,-1.9299,-1.9593,-1.988,-2.0174,-2.014,-2.0341,-2.0621,-2.0915,-2.1196,-2.1527,-2.2038,-2.2331,-2.2338,-2.2652,-2.2861,-2.2834,-2.2498,-2.2358,-2.2298,-2.175,-2.1329,-2.0955,-1.9813,-1.9158,-1.8851,-1.8577,-1.8338,-1.807,-1.8077,-1.7936,-1.7647,-1.7416,-1.7271,-1.7266,-1.7475,-1.7762,-1.7836,-1.7353,-1.738,0.0,0.0,-1.7226,-1.7219,-1.7206,-1.7264,-1.7322,-1.7206,-1.7472,-1.7526,-1.6834,-1.6927,-1.6844,0.0,-1.5464,-1.5571,-1.5845,0.0,-1.5831,-1.5892,-1.5611,-1.5197,-1.4636,-1.4282,-1.4195,-1.4469,-1.4496,-1.4623,-1.4961,-1.4988,-1.4995,-1.5008,-1.5008,-1.4836,-1.4556,-1.4843,-1.5182,-1.5418,-1.5718,0.0,0.0,0.0,0.0,0.0,0.0,0.0,0.0,0.0,0.0,0.0,0.0,0.0,0.0,0.0,0.0,0.0,0.0,0.0,0.0,0.0,0.0,0.0,0.0,0.0,0.0,0.0,0.0,-2.0248,-1.9704,0.0,-1.9038,-1.9466,-1.9733,-1.9653,-2.0094,-2.0494,-2.0782,-2.0982,-2.1303,-2.1784,-2.1897,-2.2091,-2.2459,-2.2605,-2.2706,-2.2706,-2.2812,-2.2928,-2.2921,-2.2552,-2.2318,-2.2118,-2.1789,-2.1276,-2.0782,-2.0174,-1.9646,-1.9158,-1.8677,-1.831,-1.7995,-1.7995,-1.7849,-1.7595,-1.7695,-1.7595,-1.7467,-1.738,-1.7248,-1.7181,-1.7206,-1.7273,-1.7373,-1.746,-1.7481,-1.7481,-1.7481,-1.7481,-1.7481,-1.7481,-1.7508,-1.7422,-1.6834,-1.6787,-1.6627,-1.5832,-1.5832,-1.5992,-1.6099,-1.5952,-1.5844,-1.6086,-1.5705,-1.5257,-1.4856,-1.476,-1.4616,-1.4529,-1.4689,-1.4923,-1.5217,-1.5244,-1.5317,-1.5504,-1.5344,-1.5277,-1.5311,-1.5284,-1.5378,-1.5671,-1.5724,-1.6119,0.0,0.0,0.0,0.0,0.0,0.0,0.0,0.0,0.0,0.0,0.0,0.0,0.0,0.0,0.0,0.0,0.0,0.0,0.0,0.0,0.0,0.0,0.0,0.0,0.0,0.0,-2.1422,-2.1292,-2.0729,-2.0307,-2.0114,-2.0267,-2.0388,-2.0394,-2.0755,-2.1189,-2.1677,-2.179,-2.2064,-2.2552,-2.2565,-2.2612,-2.2712,-2.2812,-2.278,-2.2492,-2.2619,-2.2612,-2.2479,-2.2218,-2.1964,-2.1677,-2.1383,-2.0922,-2.0368,-2.0167,-1.9806,-1.9377,-1.8831,-1.8457,-1.8155,-1.8249,-1.821,-1.805,-1.8156,-1.7929,-1.7549,-1.7414,-1.7161,-1.7021,-1.7172,-1.7266,-1.7367,-1.746,-1.7508,-1.7582,-1.7582,-1.7582,-1.7582,-1.7582,-1.7582,-1.7422,-1.6834,-1.6707,-1.656,-1.6072,-1.6139,-1.6321,-1.6321,-1.6112,-1.6079,-1.6373,-1.5832,-1.5364,-1.5264,-1.5129,-1.4968,-1.483,-1.5077,-1.5337,-1.5524,-1.5725,-1.5838,-1.5784,-1.5738,-1.5691,-1.5685,-1.5685,-1.5732,-1.5778,-1.5925,-1.6219,-1.6707,0.0,0.0,0.0,0.0,0.0,0.0,0.0,0.0,0.0,0.0,0.0,0.0,0.0,0.0,0.0,0.0,0.0,0.0,0.0,0.0,0.0,0.0,0.0,-2.0855,-2.1618,-2.1633,-2.08,-2.0708,-2.0715,-2.0708,-2.0722,-2.0962,-2.1588,-2.1648,-2.203,-2.2819,-2.2585,-2.2565,-2.2921,-2.2928,-2.2726,-2.2438,-2.2699,-2.2472,-2.1641,-2.2124,-2.2091,-2.1601,-2.1601,-2.1376,-2.1082,-2.0788,-2.0334,-1.98,-1.98,-1.9633,-1.9397,-1.9052,-1.8764,-1.8551,-1.8824,-1.8911,-1.8851,-1.8564,-1.8076,-1.7582,-1.7582,-1.7582,-1.7528,-1.73,-1.7414,-1.7522,-1.7293,-1.742,-1.7582,-1.7582,-1.7582,-1.7582,-1.7582,-1.7582,-1.7428,-1.6847,-1.672,-1.6633,-1.6339,-1.6342,-1.6299,-1.6286,-1.6286,-1.638,-1.666,-1.5972,0.0,-1.5792,-1.5337,-1.5142,-1.5378,-1.5671,-1.5798,-1.5804,-1.6373,-1.6453,-1.5831,-1.6092,-1.5992,-1.5431,-1.5945,-1.6112,-1.5832,-1.6126,-1.6426,-1.6707,0.0,0.0,0.0,0.0,0.0,0.0,0.0,0.0,0.0,0.0,0.0,0.0,0.0,0.0,0.0,0.0,0.0,0.0,0.0,0.0,0.0,0.0,-1.978,-2.1528,-2.1128,-2.08,-2.0978,-2.137,-2.1543,-2.14,-2.169,-2.1917,-2.1871,-2.2331,-2.2673,-2.2914,-2.2786,-2.2779,-2.2928,-2.2928,-2.2887,-2.2739,-2.2398,-2.2104,-2.1864,-2.1817,-2.1597,-2.1229,-2.1229,-2.1069,-2.0782,-2.0481,-2.0147,-1.98,-1.98,-1.9633,-1.9417,-1.9279,-1.9199,-1.9112,-1.8971,-1.8595,-1.8189,-1.7936,-1.7722,-1.7582,-1.7582,-1.7582,-1.7569,-1.7488,-1.7515,-1.7562,-1.7482,-1.7522,-1.7582,-1.7582,-1.7582,-1.7582,-1.7582,-1.7582,-1.7482,-1.7159,-1.7079,-1.6991,-1.6647,-1.6811,-1.6891,-1.6627,-1.6587,-1.6613,-1.6693,-1.6319,0.0,-1.5798,-1.5691,-1.5618,-1.5705,-1.5972,-1.6239,-1.6446,-1.642,-1.6319,-1.6159,-1.5825,-1.5658,-1.5705,-1.5658,-1.5698,-1.5778,-1.6326,-1.6627,0.0,0.0,0.0,0.0,0.0,0.0,0.0,0.0,0.0,0.0,0.0,0.0,0.0,0.0,0.0,0.0,0.0,0.0,0.0,0.0,0.0,0.0,-2.0179,-2.0245,-2.1803,-2.1293,-2.1049,-2.1757,-2.2144,-2.2338,-2.2298,-2.2485,-2.2585,-2.2552,-2.2746,-2.2919,-2.3053,-2.2933,-2.2806,-2.2679,-2.2799,-2.2814,-2.2498,-2.2158,-2.1864,-2.1617,-2.1323,-2.1096,-2.0922,-2.0802,-2.0648,0.0,-2.018,-1.9887,-1.9619,-1.9619,-1.9519,0.0,0.0,0.0,0.0,0.0,-1.8444,-1.7969,-1.7842,-1.7695,-1.7582,-1.7582,-1.7582,-1.7582,-1.7582,-1.7582,-1.7582,-1.7582,-1.7582,-1.7582,-1.7582,-1.7582,-1.7582,-1.7582,-1.7582,-1.7468,-1.7105,-1.7112,-1.7112,-1.6767,-1.6947,0.0,-1.7081,-1.6974,-1.6934,-1.7054,-1.662,-1.6253,-1.6199,-1.6092,-1.6012,-1.6012,-1.6386,-1.666,-1.67,-1.678,0.0,0.0,0.0,-1.6019,-1.6192,-1.6152,0.0,0.0,0.0,-1.6894,-1.6894,0.0,0.0,0.0,-1.7501,-1.7582,0.0,0.0,0.0,0.0,0.0,0.0,0.0,0.0,0.0,0.0,0.0,0.0,0.0,0.0,0.0,0.0,-2.0361,-2.0795,-2.1971,-2.1949,-2.2057,-2.2841,-2.2928,-2.2966,-2.3247,-2.3026,-2.2979,-2.3253,-2.3053,-2.302,-2.326,0.0,0.0,0.0,0.0,-2.2612,-2.2091,-2.1984,-2.1677,-2.1156,-2.0835,-2.0641,-2.0568,-2.0334,-2.0194,-2.012,-1.986,-1.9606,-1.9424,-1.9424,-1.9383,-1.9245,-1.9011,-1.8905,-1.8838,-1.8551,-1.827,-1.7989,-1.7955,0.0,0.0,-1.7582,-1.7582,-1.7582,-1.7582,-1.7582,-1.7582,-1.7582,-1.7582,-1.7582,-1.7582,-1.7582,-1.7582,-1.7582,-1.7582,-1.7442,-1.6921,-1.7065,-1.7172,-1.6854,-1.7021,-1.7333,-1.7542,-1.742,-1.734,-1.7542,-1.6945,-1.6466,-1.672,-1.65,-1.6382,-1.6415,0.0,0.0,-1.682,-1.7255,-1.7201,-1.6469,-1.6587,-1.6707,-1.6707,-1.7038,-1.7306,-1.7482,-1.7313,-1.7199,-1.7199,-1.7199,-1.7219,-1.7253,-1.7514,-1.7582,0.0,0.0,0.0,0.0,0.0,0.0,0.0,0.0,0.0,0.0,0.0,0.0,0.0,0.0,0.0,-2.0857,-2.1142,-2.171,-2.2899,-2.2806,-2.274,-2.2908,-2.2928,-2.2886,-2.2946,-2.2899,-2.2886,-2.2946,-2.3133,-2.3153,-2.2966,-2.3133,0.0,-2.2786,-2.2901,-2.2806,-2.276,-2.2057,-2.1648,-2.1527,0.0,0.0,-1.9973,-2.0154,-1.9973,-1.9533,-1.9472,-1.9477,-1.9424,-1.9424,-1.9092,-1.8677,-1.8858,-1.8778,-1.8537,-1.8243,-1.8042,-1.7955,-1.7762,-1.7629,-1.7582,-1.7582,-1.7582,-1.7582,-1.7582,-1.7582,0.0,-1.7582,-1.7582,-1.7582,-1.7582,-1.7582,-1.7582,-1.7582,-1.7582,-1.7549,-1.7435,-1.7462,-1.7482,-1.7428,-1.7462,-1.7515,-1.7569,-1.7535,-1.7515,-1.7575,-1.7293,-1.7052,-1.7112,-1.6807,-1.6714,-1.7005,-1.7132,-1.7273,-1.7395,-1.7353,-1.7213,-1.7045,-1.6807,-1.6707,-1.6707,-1.7038,-1.7112,-1.6881,-1.7105,-1.7199,-1.7199,-1.7199,-1.732,-1.7502,-1.7555,-1.7582,0.0,0.0,0.0,0.0,0.0,0.0,0.0,0.0,0.0,0.0,0.0,-1.9626,0.0,0.0,-2.0869,-2.1456,-2.1797,-2.2245,-2.2993,-2.2959,-2.3042,-2.328,-2.3046,-2.2926,-2.308,-2.2953,-2.2928,-2.2928,-2.3006,-2.3026,-2.2941,-2.3006,-2.2959,-2.2652,-2.2786,-2.2787,-2.2425,-2.1909,-2.1614,-2.1608,-2.0661,-2.0241,-2.0234,-2.008,-1.986,-1.9586,-1.9586,-1.9499,-1.9424,-1.9424,-1.9018,-1.8517,-1.8811,-1.8564,-1.8036,-1.7989,-1.7896,-1.7796,-1.7635,-1.7582,-1.7582,-1.7582,-1.7582,-1.7582,-1.7582,-1.7582,-1.7582,-1.7582,-1.7582,-1.7582,-1.7582,-1.7582,-1.7582,-1.7582,-1.7582,-1.7542,-1.7454,-1.7534,-1.7542,-1.7447,-1.7534,-1.7582,-1.7582,-1.7582,-1.7582,-1.7582,-1.7387,-1.7199,-1.7199,-1.7072,-1.7032,-1.7186,-1.7333,-1.7474,-1.7569,-1.7367,-1.7199,-1.7199,-1.7058,-1.6927,-1.6927,-1.7259,-1.7295,-1.7148,-1.7288,-1.742,-1.742,-1.742,-1.7494,-1.7582,-1.7582,-1.7582,0.0,0.0,0.0,0.0,0.0,0.0,0.0,-1.9382,-1.8898,-1.9132,-1.9646,-2.018,-2.0601,-2.1266,-2.1802,-2.2024,-2.2311,-2.2625,-2.2986,-2.2939,-2.3066,-2.3621,-2.32,-2.2959,-2.3213,-2.3006,-2.2928,-2.2928,-2.2919,-2.2953,-2.2953,-2.3006,-2.2926,-2.2686,-2.2859,-2.2726,-2.2251,-2.1844,-2.1702,-2.1688,-2.0561,-2.0274,-2.0661,-2.0187,-1.9907,-1.98,-1.974,-1.9586,-1.9424,-1.9424,-1.9018,-1.8524,-1.8878,-1.8464,-1.7702,-1.7902,-1.7836,-1.7662,-1.7602,-1.7582,-1.7582,-1.7582,-1.7582,-1.7582,-1.7582,-1.7582,-1.7582,-1.7582,-1.7582,-1.7582,-1.7582,-1.7582,-1.7582,-1.7582,-1.7582,-1.7515,-1.7333,-1.7467,-1.7515,-1.7333,-1.7474,-1.7582,-1.7582,-1.7582,-1.7582,-1.7582,-1.7434,-1.7286,-1.7286,-1.7286,-1.7286,-1.7286,-1.7494,-1.7582,-1.7582,-1.742,-1.7286,-1.7286,-1.7286,-1.7286,-1.7286,-1.7514,-1.7582,-1.7582,-1.7582,-1.7582,-1.7582,-1.7582,-1.7582,-1.7582,-1.7582,-1.7582,-1.9822,-1.9546,-1.9213,-2.0163,-1.9344,-1.8502,0.0,-1.9757,-2.0047,-2.008,-2.0555,-2.0902,-2.0715,-2.137,-2.2031,-2.2318,-2.2619,-2.3013,-2.3587,-2.3276,-2.2993,-2.3333,-2.3073,-2.2879,-2.2913,-2.2954,-2.2928,-2.2928,-2.312,-2.3273,-2.3273,-2.3527,-2.3654,-2.3621,-2.3394,-2.3247,-2.318,-2.2352,-2.1937,-2.1931,-2.1276,-2.0862,-2.0675,-2.0608,-2.0294,-1.9786,-1.9526,-1.9457,-1.9424,-1.9424,-1.9018,-1.8544,-1.9098,-1.8778,-1.7949,-1.7975,-1.7969,-1.7902,-1.7675,-1.7582,-1.7582,-1.7582,-1.7582,-1.7582,-1.7582,-1.7582,-1.7582,-1.7582,-1.7582,-1.7582,-1.7582,-1.7582,-1.7582,-1.7582,-1.7582,-1.7575,-1.7542,-1.7562,-1.7569,-1.7542,-1.7562,-1.7582,-1.7582,-1.7582,-1.7582,-1.7582,-1.7555,-1.7535,-1.7535,-1.7535,-1.7535,-1.7535,-1.7562,-1.7582,-1.7582,-1.7555,-1.7535,-1.7535,-1.7535,-1.7535,-1.7535,-1.7562,-1.7582,-1.7582,-1.7582,-1.7582,-1.7582,-1.7582,-1.7582,-1.7582,-1.7582,-1.7582,-1.7893,-1.9005,-2.0025,-1.9215,-1.9028,-1.9205,-1.9746,-2.0194,-2.0541,-2.0708,-2.1209,-2.1637,-2.1683,-2.2278,-2.2746,0.0,-2.2933,-2.316,-2.3233,-2.2873,-2.2585,-2.2552,-2.2432,-2.2485,-2.2901,-2.2928,-2.2928,-2.2928,-2.2986,-2.3133,-2.3313,-2.3447,-2.3594,-2.3768,-2.348,-2.324,-2.306,-2.2512,-2.2151,-2.1984,-2.1563,-2.1216,-2.0922,-2.0755,-2.0354,-1.9793,-1.9673,-1.9519,-1.9424,-1.9424,-1.9125,-1.8784,-1.9205,-1.8931,-1.8303,-1.8303,-1.8196,-1.7949,-1.7689,-1.7582,-1.7582,-1.7582,-1.7582,-1.7582,-1.7582,-1.7582,-1.7582,-1.7582,-1.7582,-1.7582,-1.7582,-1.7582,-1.7582,-1.7582,-1.7582,-1.7582,-1.7582,-1.7582,-1.7582,-1.7582,-1.7582,-1.7582,-1.7582,-1.7582,-1.7582,-1.7582,-1.7582,-1.7582,-1.7582,-1.7582,-1.7582,-1.7582,-1.7582,-1.7582,-1.7582,-1.7582,-1.7582,-1.7582,-1.7582,-1.7582,-1.7582,-1.7582,-1.7582,-1.7582,-1.7582,-1.7582,-1.7582,-1.7582,-1.7582,-1.7582,-1.7582,-1.7675,-1.7005,-1.854,-1.9939,-1.8786,-1.9172,-1.994,-2.0474,-2.0828,-2.1142,-2.1516,-2.1864,-2.2171,-2.2378,-2.2712,-2.2913,-2.2766,-2.2933,-2.2999,-2.2772,-2.2485,-2.2191,-2.1897,-2.179,-2.1944,-2.2519,-2.2645,-2.2739,-2.2739,-2.2881,-2.3033,-2.3427,-2.3447,-2.3621,-2.3995,-2.3647,-2.334,-2.312,-2.2652,-2.2311,-2.2104,-2.181,-2.1516,-2.1223,-2.0848,-2.0354,-1.98,-1.98,-1.9633,-1.9424,-1.9424,-1.9192,-1.8951,-1.9252,-1.9058,-1.8611,-1.8611,-1.8424,-1.8123,-1.7816,-1.7762,-1.7802,-1.7635,-1.7642,-1.7695,-1.7609,-1.7582,-1.7582,-1.7582,-1.7582,-1.7582,-1.7582,-1.7582,-1.7582,-1.7582,-1.7582,-1.7582,-1.7582,-1.7582,-1.7582,-1.7582,-1.7582,-1.7582,-1.7582,-1.7582,-1.7582,-1.7582,-1.7582,-1.7582,-1.7582,-1.7582,-1.7582,-1.7582,-1.7582,-1.7582,-1.7582,-1.7582,-1.7582,-1.7582,-1.7582,-1.7582,-1.7582,-1.7582,-1.7622,-1.7709,-1.7709,-1.7709,-1.7709,-1.7709,-1.7709,-1.7709,-1.7709,-1.7876,-1.827,-1.8519,-1.876,-1.9539,-1.9773,-2.01,-2.1313,-2.1802,-2.2111,-2.2692,-2.2592,-2.2405,-2.2418,-2.2205,-2.2118,-2.2385,-2.2438,-2.2445,-2.2432,-2.2178,-2.1891,-2.1661,-2.1309,-2.1256,0.0,-2.2104,-2.2432,-2.2432,-2.2699,-2.3196,-2.3728,-2.3754,-2.4022,-2.4596,-2.4055,-2.3754,-2.3741,-2.2859,-2.2412,-2.2398,-2.2111,-2.1817,-2.1581,-2.0942,-2.0354,-1.98,-1.98,-1.9633,-1.9424,-1.9424,-1.9192,-1.8951,-1.9252,-1.9178,-1.8911,-1.8911,-1.8724,-1.8437,-1.8082,-1.8223,-1.837,-1.7776,-1.7789,-1.7922,-1.7675,-1.7582,-1.7582,-1.7582,-1.7582,-1.7582,-1.7582,-1.7582,-1.7582,-1.7582,-1.7582,-1.7582,-1.7582,-1.7582,-1.7582,-1.7582,-1.7582,-1.7582,-1.7582,-1.7582,-1.7582,-1.7582,-1.7582,-1.7582,-1.7582,-1.7582,-1.7582,-1.7582,-1.7582,-1.7582,-1.7582,-1.7582,-1.7582,-1.7582,-1.7582,-1.7582,-1.7582,-1.7582,-1.7722,-1.7969,-1.7975,-1.7975,-1.7975,-1.7975,-1.7975,-1.7975,-1.7975,-1.819,-1.8089,-1.8624,-1.9232,-1.992,-2.0528,-2.1179,-2.1704,-2.2218,-2.2458,-2.2137,-2.1983,-2.1724,-2.1336,-2.1182,-2.1209,-2.1503,-2.1877,-2.2131,-2.2131,-2.2385,-2.2171,-2.1102,-2.1396,0.0,0.0,0.0,0.0,-2.2392,-2.2512,-2.2919,-2.3728,-2.3774,-2.4035,-2.4542,-2.4075,-2.3774,-2.3774,-2.3066,-2.2712,-2.2706,-2.2218,-2.173,-2.1249,-2.0855,-2.0354,-1.98,-1.98,-1.9633,-1.9424,-1.9424,-1.9305,-1.9225,-1.9383,-1.9305,-1.9219,-1.9219,-1.9152,-1.9005,-1.851,-1.8404,-1.8424,-1.8023,-1.7909,-1.7935,-1.7675,-1.7582,-1.7622,-1.7836,-1.7742,-1.7629,-1.7836,-1.7889,-1.7889,-1.7889,-1.7889,-1.7889,-1.7889,-1.7729,-1.7582,-1.7582,-1.7582,-1.7582,-1.7582,-1.7582,-1.7582,-1.7582,-1.7582,-1.7582,-1.7582,-1.7582,-1.7582,-1.7582,-1.7582,-1.7582,-1.7582,-1.7582,-1.7582,-1.7582,-1.7582,-1.7582,-1.7582,-1.7782,-1.7889,-1.7989,-1.8237,-1.8343,-1.8343,-1.8343,-1.8343,-1.8337,-1.8082,-1.8203,-1.849,-1.9239,-2.0107,-2.0588,-2.1289,-2.1937,-2.2231,-2.2425,-2.2358,-2.1755,-2.1303,-2.0935,-2.0454,-2.0107,-2.006,-2.0561,-2.0782,-2.1076,-2.1597,-2.1817,-2.169,-2.1062,-2.1303,-2.1303,0.0,0.0,0.0,-2.2218,-2.2559,-2.304,-2.3734,-2.3868,-2.4142,-2.4623,-2.4175,-2.3928,-2.3928,-2.3434,-2.3133,-2.302,-2.2318,-2.1737,-2.1256,-2.0855,-2.0354,-1.98,-1.98,-1.9633,-1.9424,-1.9424,-1.9424,-1.9424,-1.9424,-1.9424,-1.9424,-1.9424,-1.9424,-1.9357,-1.8811,-1.8718,-1.8718,-1.8155,-1.8062,-1.813,-1.7709,-1.7662,-1.7769,-1.7856,-1.7889,-1.7929,-1.7969,-1.8069,-1.8203,-1.8203,-1.8203,-1.8176,-1.8015,-1.7836,-1.7716,-1.7602,-1.7669,-1.7716,-1.7602,-1.7582,-1.7622,-1.7736,-1.7655,-1.7582,-1.7582,-1.7582,-1.7582,-1.7582,-1.7582,-1.7582,-1.7582,-1.7582,-1.7582,-1.7582,-1.7582,-1.7629,-1.7742,-1.7889,-1.8089,-1.8302,-1.8551,-1.8644,-1.8644,-1.8644,-1.8644,-1.8637,-1.8343,-1.8364,-1.9345,-2.0254,-2.1189,-2.1581,-2.1997,-2.2465,-2.2732,-2.2352,-2.1844,-2.1574,-2.0762,-2.0074,-1.9766,-1.9045,-1.8771,-1.9639,-1.9359,-1.9526,-2.0935,-2.0702,-2.0681,-2.1527,-2.1102,-2.1058,-2.1588,0.0,0.0,-2.1984,0.0,-2.3434,-2.3774,-2.4055,-2.4335,-2.4623,-2.4356,-2.4202,-2.4202,-2.3901,-2.3587,-2.3267,-2.2418,-2.1837,-2.1554,-2.1011,-2.0374,-1.982,-1.9806,-1.9646,-1.945,-1.943,-1.9424,-1.9424,-1.9444,-1.945,-1.945,-1.945,-1.945,-1.9345,-1.9065,-1.9145,-1.9225,-1.8315,-1.8297,-1.8424,-1.7816,-1.7842,-1.7975,-1.7736,-1.8056,-1.843,-1.8109,-1.8303,-1.851,-1.851,-1.851,-1.843,-1.8082,-1.8002,-1.7902,-1.7642,-1.7822,-1.7876,-1.7629,-1.7582,-1.7682,-1.7922,-1.7769,-1.7582,-1.7582,-1.7582,-1.7582,-1.7582,-1.7582,-1.7582,-1.7582,-1.7582,-1.7589,-1.7602,-1.7609,-1.7749,-1.8002,-1.8029,-1.8302,-1.8911,-1.8938,-1.8945,-1.8945,-1.8945,-1.8945,-1.8938,-1.8651,-1.8657,-2.0147,-2.0722,-2.1283,-2.2017,-2.2151,-2.2058,-2.1983,-2.1603,-2.1062,-2.012,-1.9566,-1.9041,-1.8528,-1.849,-1.8704,-1.9372,-2.008,0.0,-2.1356,-2.2071,-2.2291,-2.1695,-2.2063,-2.2191,-2.1904,-2.2004,0.0,0.0,-2.2645,-2.3073,-2.4042,-2.4162,-2.4335,-2.4623,-2.4356,-2.4202,-2.4202,-2.3694,-2.3173,-2.2645,-2.2418,-2.181,-2.0902,-2.0969,-2.0681,-2.0107,-1.9893,-1.976,-1.9673,-1.9459,-1.9424,-1.945,-1.9606,-1.9686,-1.9686,-1.9686,-1.9686,-1.9679,-1.9606,-1.9486,-1.9292,-1.8844,-1.8898,-1.9032,-1.8437,-1.8464,-1.8684,-1.8604,-1.8537,-1.8524,-1.8664,-1.8758,-1.8811,-1.8811,-1.8811,-1.8731,-1.8444,-1.8203,-1.7902,-1.7642,-1.7649,-1.7675,-1.7595,-1.7582,-1.7609,-1.7689,-1.7629,-1.7582,-1.7582,-1.7582,-1.7582,-1.7582,-1.7582,-1.7582,-1.7582,-1.7582,-1.7682,-1.7916,-1.7876,-1.8063,-1.8364,-1.8584,-1.8715,-1.8918,-1.9145,-1.9252,-1.9252,-1.9252,-1.9252,-1.9245,-1.8951,-1.8851,-2.1049,-2.1463,-2.1804,-2.2298,-2.2205,-2.1877,-2.1456,-2.1029,-2.0428,-1.9386,-1.8938,-1.8551,-1.7956,-1.7769,-1.7943,0.0,0.0,0.0,-2.1078,-2.1744,-2.2205,-2.2318,-2.2532,-2.2692,-2.2759,-2.2672,-2.2792,0.0,-2.3106,-2.3307,-2.3975,-2.4255,-2.4469,-2.4636,-2.4476,-2.4396,-2.4396,-2.3814,-2.3347,-2.3006,-2.2605,-2.2011,-2.1249,-2.1156,-2.0855,-2.0408,0.0,-1.9993,-1.9973,-1.9813,-1.9673,-1.9573,-1.9733,-1.98,-1.98,-1.98,-1.988,-1.9993,-1.9993,-1.9887,-1.97,-1.9399,-1.9419,-1.9472,-1.9011,-1.9078,-1.9259,-1.8998,-1.9085,-1.9232,-1.9138,-1.9305,-1.9499,-1.9499,-1.9399,-1.9225,-1.8938,-1.8544,-1.815,-1.7842,-1.7675,-1.7662,-1.7936,-1.7762,-1.7629,-1.7762,-1.7669,-1.7582,-1.7582,-1.7582,-1.7582,-1.7582,-1.7695,-1.7776,-1.7789,-1.7903,-1.8056,-1.823,-1.8243,-1.8377,-1.8664,-1.8838,-1.8985,-1.9118,-1.9279,-1.9424,-1.9424,-1.9424,-1.9424,-1.9417,-1.9058,-1.8925,-2.1951,-2.2318,-2.2525,-2.2492,-2.2171,-2.1717,-2.1129,-2.0508,-1.976,-1.8921,-1.8611,-1.8257,-1.7689,-1.7201,-1.7174,-1.8022,-1.8029,-1.8571,-2.0568,-2.0848,-2.1463,-2.3133,-2.2859,-2.2879,-2.3748,-2.3313,-2.322,-2.3788,-2.3828,-2.3828,-2.3828,-2.4342,-2.4636,-2.4636,-2.4603,-2.4576,-2.4576,-2.3961,-2.3627,-2.3581,-2.2792,-2.2225,-2.1857,-2.1423,-2.1042,-2.0715,0.0,0.0,-2.0173,-2.0173,-2.006,-1.9806,-1.9846,-1.988,-1.9913,-1.9873,-2.004,-2.0294,-2.0294,-2.0294,-2.0247,-1.9953,-1.9887,-1.986,-1.9573,-1.9686,-1.9806,-1.9252,-1.9646,-2.0114,-1.9613,-1.9853,-2.016,-2.0187,-1.9987,-1.9706,-1.9379,-1.8851,-1.837,-1.8089,-1.7822,-1.7776,-1.8384,-1.7983,-1.7689,-1.7949,-1.7782,-1.7582,-1.7582,-1.7582,-1.7582,-1.7582,-1.7842,-1.7975,-1.7995,-1.8323,-1.851,-1.8544,-1.8551,-1.8677,-1.8971,-1.8985,-1.9105,-1.9366,-1.9424,-1.9424,-1.9424,-1.9424,-1.9424,-1.9417,-1.9098,-1.8985,-2.2619,-2.2933,-2.3106,-2.2846,-2.2017,-2.1109,-2.0514,-1.9746,-1.8915,-1.8275,-1.8109,-1.8016,-1.7649,-1.7709,-1.8103,-1.8991,-1.9292,-1.9967,-2.1537,-2.1757,-2.2151,-2.3207,-2.3233,-2.342,-2.4068,-2.3814,0.0,0.0,0.0,-2.4128,-2.4128,-2.4449,-2.4636,-2.4636,-2.4402,-2.4282,-2.4282,-2.344,-2.2899,-2.2652,-2.2492,-2.2011,-2.1276,-2.1657,-2.1543,-2.1022,-2.0728,0.0,-2.0173,-2.0173,-2.006,-1.9826,-2.006,-2.0307,-2.0494,-2.0247,-2.0347,-2.0601,-2.0601,-2.0601,-2.0548,-2.0254,-2.0321,-2.0468,-2.0174,-2.0294,-2.0454,-2.01,-2.0053,-2.0153,-2.0107,-2.0154,-2.0113,-1.9933,-1.9833,-1.9653,-1.9118,-1.8537,-1.8129,-1.8377,-1.7963,-1.7776,-1.8384,-1.7983,-1.7689,-1.7949,-1.7782,-1.7582,-1.7582,-1.7582,-1.7582,-1.7582,-1.7856,-1.7989,-1.7995,-1.8323,-1.8591,-1.8831,-1.8844,-1.8978,-1.9279,-1.9292,-1.9319,-1.9424,-1.9424,-1.9424,-1.9424,-1.9424,-1.9424,-1.9424,-1.9319,-1.9292,-2.3126,-2.3447,-2.3447,-2.2979,-2.1864,-2.0728,-2.014,-1.9332,-1.8617,-1.8337,-1.8277,-1.8136,-1.7669,-1.7582,-1.7769,-1.8343,-1.843,-1.9045,-2.0822,-2.1069,-2.1577,-2.2926,-2.3086,-2.338,-2.4128,-2.3801,-2.3721,0.0,0.0,-2.4202,-2.4202,-2.4335,-2.4409,-2.4409,-2.3981,-2.3748,-2.3748,-2.3006,-2.2559,-2.2418,-2.2418,-2.2038,-2.1349,-2.179,-2.1663,-2.1102,-2.0962,0.0,-2.0688,-2.0688,-2.0514,-2.0274,-2.0408,-2.0548,-2.0675,-2.0688,-2.0775,-2.0922,-2.1139,-2.1029,-2.0875,-2.0735,-2.0788,-2.0875,-2.0735,-2.0788,-2.0842,-2.0548,-2.0575,-2.0655,-2.0501,-2.0575,-2.0615,-2.0327,-2.002,-1.9639,-1.9052,-1.8641,-1.8442,-1.8497,-1.813,-1.7916,-1.821,-1.7883,-1.7629,-1.7782,-1.7675,-1.7582,-1.7582,-1.7582,-1.7582,-1.7582,-1.7996,-1.8277,-1.8277,-1.8691,-1.9005,-1.9145,-1.9152,-1.9219,-1.9417,-1.9424,-1.9424,-1.9424,-1.9424,-1.9424,-1.9424,-1.9424,-1.9424,-1.9424,-1.9424,-1.9424,-2.348,-2.3814,-2.3701,-2.3102,-2.1717,-2.0448,-1.992,-1.9072,-1.841,-1.8477,-1.8544,-1.8417,-1.7876,-1.7542,-1.7435,-1.7729,-1.7588,-1.8016,-1.996,-2.0173,-2.0909,-2.2746,-2.2899,0.0,-2.4202,-2.3768,0.0,0.0,0.0,0.0,-2.4195,-2.4202,-2.4175,-2.4115,-2.3601,-2.3327,-2.3327,-2.2599,-2.2231,-2.2231,-2.2231,-2.1957,-2.1534,-2.1764,-2.1643,-2.1203,-2.1136,0.0,0.0,-2.1082,-2.0942,-2.0675,-2.0675,-2.0755,-2.0882,-2.1049,-2.1189,-2.1323,-2.1561,-2.1403,-2.1196,-2.1129,-2.1109,-2.1109,-2.1109,-2.1109,-2.1062,-2.0828,-2.0935,-2.1056,-2.0828,-2.0942,-2.1015,-2.0668,-2.0134,-1.9579,-1.9118,-1.9018,-1.8951,-1.8724,-1.849,-1.8295,-1.8355,-1.8116,-1.7889,-1.7956,-1.7856,-1.7756,-1.7689,-1.7736,-1.7756,-1.7689,-1.8163,-1.8517,-1.8577,-1.9065,-1.9424,-1.9424,-1.9426,-1.9459,-1.9459,-1.9459,-1.9492,-1.9553,-1.9492,-1.9459,-1.9459,-1.9459,-1.9491,-1.9366,-1.9068,-1.8887,-2.3587,-2.3961,-2.3955,-2.308,-2.1557,-2.0187,-1.9873,-1.8911,-1.8109,-1.8437,-1.8698,-1.8784,-1.8464,-1.8163,-1.8009,-1.8357,-1.8156,-1.8442,-2.002,-2.0173,-2.0989,-2.304,0.0,0.0,-2.4482,-2.4068,0.0,0.0,0.0,0.0,-2.4175,-2.4202,-2.4082,-2.3814,-2.3494,-2.3327,-2.3327,-2.2198,-2.1695,-2.1695,-2.1695,-2.1463,-2.1162,-2.1521,-2.1628,-2.1561,-2.1229,0.0,0.0,-2.1002,-2.0942,-2.0675,-2.0675,-2.1002,-2.1507,-2.1196,-2.1443,-2.1871,-2.1702,-2.1601,-2.1534,-2.1196,-2.1109,-2.1109,-2.1109,-2.1109,-2.1102,-2.1076,-2.1089,-2.1102,-2.1076,-2.1089,-2.0969,-2.0408,-1.9826,-1.9392,-1.9397,-1.9325,-1.9377,-1.935,-1.9265,-1.9332,-1.9593,-1.9172,-1.8891,-1.9165,-1.8751,-1.831,-1.7982,-1.8243,-1.8303,-1.7982,-1.8297,-1.8597,-1.8865,-1.9178,-1.9424,-1.9424,-1.9619,-1.976,-1.976,-1.976,-1.9887,-2.0147,-1.9893,-1.976,-1.976,-1.976,-1.9626,-1.9366,-1.7923,-1.7202,-2.3106,-2.3701,-2.3988,-2.3086,-2.1537,-2.0107,-1.9646,-1.8624,-1.7856,-1.8156,-1.8262,-1.8303,-1.8003,-1.7702,-1.7488,-1.7428,-1.7021,-1.7176,-1.8655,-1.8758,-1.9539,-2.1971,-2.2305,0.0,0.0,0.0,0.0,0.0,0.0,0.0,-2.34,-2.3227,-2.3073,-2.2959,-2.2498,-2.2258,-2.2258,-2.161,-2.1289,-2.1289,-2.1534,-2.1396,-2.1122,-2.148,-2.1521,-2.1276,-2.1162,0.0,0.0,-2.1062,-2.1042,-2.0935,-2.0935,-2.1189,-2.1621,-2.1617,-2.1784,-2.1991,-2.2051,-2.1844,-2.1601,-2.1416,-2.1256,-2.1109,-2.1109,-2.1109,-2.1109,-2.1109,-2.1109,-2.1109,-2.1109,-2.0848,-2.0481,-2.0067,-1.9659,-1.9424,-1.9424,-1.9506,-1.9626,-1.9626,-1.9626,-1.9606,-1.9553,-1.9192,-1.8905,-1.8851,-1.8637,-1.8444,-1.833,-1.8417,-1.851,-1.8515,-1.8677,-1.8798,-1.8911,-1.9199,-1.9446,-1.9619,-1.9733,-1.988,-2.0054,-2.006,-2.0034,-1.9973,-2.0034,-1.9887,-1.9539,-1.9713,-1.9161,-1.7929,-1.7325,-1.6492,-2.2498,-2.3193,-2.3594,-2.2699,-2.1276,-1.9973,-1.9479,-1.8444,-1.7695,-1.8096,-1.8176,-1.811,-1.7889,-1.7609,-1.7315,-1.7014,-1.6547,-1.6613,-1.7696,-1.7722,-1.841,-2.0703,0.0,-2.1824,0.0,0.0,0.0,0.0,0.0,0.0,0.0,-2.2278,-2.2205,-2.2291,-2.1897,-2.1742,-2.1742,-2.1216,-2.0982,-2.0982,-2.1196,-2.1136,-2.0862,-2.1249,-2.1263,-2.0989,0.0,0.0,0.0,-2.1169,-2.1189,-2.1116,-2.1203,-2.1423,-2.1769,-2.1911,-2.2098,-2.2265,-2.2378,-2.2151,-2.1777,-2.1675,-2.141,-2.1223,-2.1136,-2.1109,-2.1109,-2.1109,-2.1169,-2.1223,-2.1129,-2.0802,-2.0394,-2.002,-1.9706,-1.9492,-1.9492,-1.9726,-1.9927,-1.9927,-2.0067,-2.0067,-1.9686,-1.9452,-1.9212,-1.8925,-1.8804,-1.8718,-1.8631,-1.8698,-1.8798,-1.8911,-1.8998,-1.9052,-1.9052,-1.9325,-1.9586,-1.9786,-1.9967,-2.0147,-2.0354,-2.0361,-2.0307,-2.0187,-2.0301,-2.016,-1.9753,-1.9468,-1.8557,-1.7137,-1.6171,-1.4851,-2.1837,-2.2425,-2.2733,-2.1849,-2.0681,-1.9726,-1.9432,-1.8444,-1.7756,-1.8357,-1.8484,-1.8484,-1.8484,-1.8237,-1.7882,-1.7622,-1.738,-1.7293,-1.7549,-1.7589,-1.8029,0.0,0.0,-2.0087,-2.1837,0.0,0.0,0.0,0.0,0.0,0.0,-2.1628,-2.1762,-2.1984,-2.1984,-2.1984,-2.1984,-2.1116,-2.0681,-2.0681,-2.0681,-2.0528,-2.02,-2.0848,-2.0955,0.0,0.0,0.0,0.0,-2.1373,-2.1376,-2.1136,-2.1501,-2.1789,-2.1984,-2.1984,-2.2352,-2.2812,-2.2519,-2.2412,-2.2311,-2.1737,-2.1614,-2.1561,-2.1196,-2.1109,-2.1109,-2.1109,-2.1323,-2.1541,-2.1189,-2.1109,-2.0955,-2.0368,-2.0007,-1.98,-1.98,-2.0027,-2.0227,-2.0227,-2.0695,-2.0909,-2.0327,-2.016,-2.012,-1.9826,-1.9539,-1.9252,-1.8958,-1.9178,-1.9245,-1.8951,-1.9185,-1.9366,-1.9366,-1.9626,-1.98,-1.98,-2.0347,-2.0668,-2.0675,-2.0675,-2.0808,-2.1089,-2.0815,-2.0668,-2.0661,-1.8944,-1.7921,-1.7541,-1.4251,-1.1894,-2.1149,-2.1516,-2.1916,-2.137,-2.0368,-1.9426,-1.9132,-1.8297,-1.7635,-1.7829,-1.7869,-1.7936,-1.8095,-1.7936,-1.7695,-1.7595,-1.7168,-1.6881,0.0,0.0,0.0,-1.9499,-2.1089,-2.2291,0.0,0.0,0.0,0.0,0.0,0.0,0.0,-2.1737,-2.1704,-2.1396,-2.1383,-2.1296,-2.1089,-2.0815,-2.0575,-2.0374,-2.0374,-2.0428,-2.0541,-2.0728,0.0,0.0,0.0,0.0,0.0,-2.1176,-2.1196,-2.1122,-2.1216,-2.155,-2.1984,-2.1984,-2.2358,-2.2846,-2.2752,-2.2458,-2.2091,-2.1911,-2.1782,-2.1601,-2.1443,-2.141,-2.145,-2.165,-2.1777,-2.1737,-2.1236,-2.0962,-2.0661,-2.0074,-1.9867,-1.98,-1.98,-2.0187,-2.0535,-2.0535,-2.0848,-2.0922,-2.0273,-2.0173,-2.0067,-1.9579,-1.9426,-1.9332,-1.9239,-1.9305,-1.939,-1.9239,-1.9486,-1.9586,-1.9444,-1.9633,-1.9887,-2.0087,-2.0461,-2.0768,-2.0962,-1.9808,-1.9177,-1.9079,-1.7955,-1.7196,-1.6801,-1.6459,-1.5599,-1.4198,-1.2087,-1.0834,-2.0608,-2.0775,-2.0962,-2.0555,-1.982,-1.9092,-1.8684,-1.8156,-1.7756,-1.7756,-1.7756,-1.7816,-1.7955,-1.7796,-1.7549,-1.7494,-1.7014,0.0,0.0,0.0,0.0,-1.9619,0.0,0.0,0.0,0.0,0.0,0.0,0.0,0.0,0.0,-2.1663,-2.1603,-2.1122,-2.1002,-2.0862,-2.0675,-2.0454,-2.0254,-2.0067,-2.0067,-2.0227,-2.0508,-2.0508,0.0,0.0,0.0,0.0,0.0,-2.1182,-2.1209,-2.1122,-2.1229,-2.1503,-2.1837,-2.1944,-2.2285,-2.2692,-2.2692,-2.2458,-2.2111,-2.1891,-2.1769,-2.1614,-2.1614,-2.1614,-2.1681,-2.1904,-2.1904,-2.171,-2.1236,-2.0975,-2.0661,-1.9967,-1.9887,-1.996,-1.996,-2.0341,-2.0708,-2.0815,-2.0989,-2.0922,-2.0273,-2.0173,-2.0034,-1.9452,-1.9424,-1.9424,-1.9424,-1.9459,-1.9533,-1.9533,-1.9786,-1.9887,-1.9713,-1.996,-2.016,-2.0227,-2.0615,-2.0922,-2.1102,-1.9419,-1.843,-1.8271,-1.6685,-1.5718,-1.5314,-1.488,-1.3731,-1.1898,-1.0891,-1.0493,0.0,-2.0127,-2.0013,-1.9472,-1.9098,-1.8724,-1.8142,-1.8009,0.0,-1.8015,-1.8009,-1.8002,-1.8015,-1.7822,-1.7522,-1.728,0.0,0.0,0.0,-1.7315,0.0,0.0,-2.0635,0.0,0.0,0.0,0.0,0.0,0.0,0.0,0.0,-2.1323,-2.1329,-2.1056,-2.0768,-2.0628,-2.0641,-2.0087,-1.9786,-1.9766,-1.9766,-1.9933,-2.0173,-2.0173,0.0,0.0,0.0,0.0,0.0,-2.1326,-2.1336,-2.1136,-2.141,-2.1601,-2.1648,-2.1857,-2.2138,-2.2385,-2.2385,-2.2372,-2.2265,-2.173,-2.1635,-2.1655,-2.1675,-2.1661,-2.1708,-2.1937,-2.181,-2.1581,-2.1243,-2.1122,-2.0875,-2.0054,-2.0054,-2.0241,-2.0261,-2.0501,-2.0788,-2.1056,-2.1109,-2.0935,-2.0388,-2.0274,-2.008,-1.9539,-1.9446,-1.9491,-1.9491,-1.9659,-1.9833,-1.9833,-2.0094,-2.0254,-2.0173,-2.0508,-2.0561,-2.0281,-2.0795,-2.1109,-2.1109,-1.9285,-1.8314,-1.8314,-1.6496,-1.5524,-1.5524,-1.3905,-1.2281,-1.0721,-1.0721,-1.0721,-2.0173,0.0,-1.9199,-1.9065,-1.8637,-1.8222,0.0,-1.8155,-1.8055,-1.8337,-1.8203,-1.8062,-1.8343,-1.8143,-1.7836,-1.7528,0.0,-1.7099,-1.7099,0.0,0.0,-2.0374,-2.1249,0.0,0.0,0.0,0.0,0.0,0.0,0.0,0.0,-2.0628,-2.0508,-2.0441,-2.0154,-2.0114,-2.0334,-1.998,-1.9686,-1.9466,-1.9466,-1.974,-2.0173,-2.0173,0.0,0.0,0.0,0.0,-2.0688,-2.0828,-2.0975,-2.1116,-2.1189,-2.1349,-2.1628,-2.1695,-2.1837,-2.2084,-2.2084,-2.1944,-2.1802,-2.1661,-2.1769,-2.1924,-2.2151,-2.2064,-2.1944,-2.2231,-2.2111,-2.1864,-2.1797,-2.1283,-2.0728,-2.0521,-2.0347,-2.0294,-2.0528,-2.0802,-2.1029,-2.1096,-2.1109,-2.1062,-2.0929,-2.0722,-2.0528,-2.0388,-2.0174,-2.0034,-2.0034,-2.0087,-2.0134,-2.0134,-2.0394,-2.0481,-2.0193,-2.0508,-2.0648,-2.0575,-2.0909,-2.1109,-2.1109,-1.8122,-1.6501,-1.6501,-1.3517,-1.1894,-1.1894,-1.1501,-1.1111,-1.0721,-1.0721,-1.0721,-2.0067,-1.9492,-1.8891,-1.8758,-1.8484,-1.8257,-1.8277,-1.8315,-1.8435,-1.8657,-1.8457,-1.8343,-1.8637,-1.811,-1.7582,-1.7467,-1.73,0.0,0.0,0.0,-1.9813,-2.1005,0.0,0.0,0.0,0.0,0.0,0.0,0.0,0.0,0.0,-2.0394,-2.0173,-2.0173,-1.9953,-1.9873,-2.0034,-1.9746,-1.9519,-1.9424,-1.9424,-1.9599,-2.0034,-2.0034,-2.0267,0.0,0.0,0.0,-2.0862,-2.0728,-2.0848,-2.1109,-2.1109,-2.1209,-2.1363,-2.1568,-2.1722,-2.179,-2.179,-2.1597,-2.1349,-2.1349,-2.1543,-2.179,-2.181,-2.1804,-2.1904,-2.2465,-2.2118,-2.1617,-2.175,-2.1236,-2.0641,-2.0508,-2.0454,-2.0481,-2.0641,-2.1009,-2.1269,-2.1136,-2.1329,-2.143,-2.1156,-2.0982,-2.0828,-2.0702,-2.0421,-2.0173,-2.0173,-2.0347,-2.0434,-2.0434,-2.0702,-2.0808,-2.0648,-2.0076,-1.9983,-2.0681,-2.0949,-2.1109,-2.1109,-1.8506,-1.6366,-1.4749,-1.2088,-1.0721,-1.0721,-1.0721,-1.0721,-1.0721,-1.0721,-1.0721,-1.9826,-1.9339,-1.8858,-1.8564,-1.8457,-1.8377,-1.8162,-1.8508,-1.8931,-1.8985,-1.8758,-1.8604,-1.8758,-1.8003,-1.7347,-1.7166,0.0,0.0,-1.8898,-1.9172,-1.9793,0.0,0.0,0.0,0.0,0.0,0.0,0.0,0.0,0.0,0.0,-2.0287,-2.01,-2.01,-1.986,-1.9713,-1.9666,-1.9426,-1.9279,-1.9232,-1.9232,-1.9412,-1.9733,-1.9686,-2.0013,0.0,0.0,0.0,-2.1022,-2.0775,-2.0848,-2.1109,-2.1109,-2.1109,-2.1136,-2.1396,-2.1547,-2.1547,-2.1547,-2.1323,-2.1109,-2.1109,-2.1309,-2.1568,-2.1256,-2.1349,-2.1795,-2.2559,-2.2017,-2.1256,-2.1597,-2.1249,-2.0748,-2.0494,-2.0595,-2.0742,-2.0742,-2.1169,-2.1541,-2.1229,-2.1617,-2.1844,-2.1383,-2.1236,-2.1109,-2.0909,-2.0588,-2.0368,-2.0368,-2.0588,-2.0742,-2.0742,-2.0962,-2.1109,-2.1109,-1.9483,-1.906,-2.0312,-2.0585,-2.0589,-2.0329,-1.8896,-1.6431,-1.2997,-1.1439,-1.0721,-1.0721,-1.0721,-1.0721,-1.0721,-1.0721,-1.0731,-1.9579,-1.9185,-1.8858,-1.8564,-1.8303,-1.8182,-1.8684,-1.8858,-1.8991,-1.9245,-1.9065,-1.8718,-1.8209,-1.8237,-1.7956,-1.6941,0.0,-1.8611,0.0,0.0,0.0,0.0,0.0,0.0,0.0,0.0,0.0,0.0,0.0,0.0,0.0,0.0,-1.9499,-1.9499,-1.9459,-1.9312,-1.9065,-1.9018,-1.8865,-1.8624,-1.8624,-1.8911,-1.9426,-1.9172,-1.9512,0.0,0.0,-2.0201,-2.0735,-2.0695,-2.0848,-2.1109,-2.1109,-2.1109,-2.1116,-2.1162,-2.1176,-2.1176,-2.1176,-2.1149,-2.1109,-2.1109,-2.1309,-2.1608,-2.1561,-2.1581,-2.1748,-2.2311,-2.2004,-2.161,-2.2151,-2.1857,-2.1474,-2.1427,-2.1196,-2.1042,-2.1042,-2.1309,-2.1601,-2.1561,-2.1757,-2.2038,-2.2191,-2.181,-2.1621,-2.175,-2.1323,-2.0975,-2.0975,-2.1015,-2.1042,-2.1042,-2.1082,-2.1109,-2.1109,-1.9483,-1.8622,-1.8836,-1.8872,-1.825,-1.6759,-1.6431,-1.4684,-1.1178,-1.085,-1.0721,-1.0721,-1.0721,-1.0721,-1.0721,-1.0721,-1.0792,-1.9332,-1.9025,-1.8811,-1.8364,-1.827,-1.8357,-1.8624,-1.8691,-1.8771,-1.9072,-1.8764,-1.8408,-1.8455,-1.8237,-1.7976,-1.7916,0.0,-1.9219,0.0,0.0,0.0,0.0,0.0,0.0,0.0,0.0,0.0,0.0,0.0,0.0,0.0,0.0,-1.9052,-1.8898,-1.8891,-1.8751,-1.8395,-1.8395,-1.8464,-1.849,-1.849,-1.8631,-1.8898,-1.8911,-1.9232,-1.9766,0.0,-2.0134,-2.0675,-2.0675,-2.0848,-2.1109,-2.1109,-2.1109,-2.1109,-2.1109,-2.1109,-2.1109,-2.1109,-2.1109,-2.1109,-2.1109,-2.1203,-2.1309,-2.1309,-2.1309,-2.1403,-2.183,-2.1757,-2.1748,-2.2265,-2.1991,-2.1614,-2.1614,-2.1329,-2.1156,-2.1309,-2.1583,-2.179,-2.179,-2.2151,-2.2452,-2.2425,-2.2071,-2.183,-2.1964,-2.1483,-2.1109,-2.1109,-2.1109,-2.1109,-2.1109,-2.1109,-2.1109,-2.1109,-1.8634,-1.7082,-1.7082,-1.7988,-1.7731,-1.5978,-1.5913,-1.4684,-1.2153,-1.1178,-1.0721,-1.0721,-1.0721,-1.0761,-1.0843,-1.0843,-1.0924,-1.9125,-1.8925,-1.8811,-1.8308,-1.8424,-1.8591,-1.8591,-1.8644,-1.8758,-1.8978,-1.8671,-1.8404,-1.8577,-1.7989,0.0,-1.8677,-1.9185,-1.97,0.0,0.0,0.0,0.0,0.0,0.0,0.0,0.0,0.0,0.0,0.0,0.0,0.0,0.0,-1.8724,-1.8497,-1.849,-1.8343,-1.7989,-1.7989,-1.8123,-1.8277,-1.8277,-1.8317,-1.8397,-1.8617,-1.8958,-1.9437,-1.9599,-2.0074,-2.0675,-2.0601,-2.0782,-2.1102,-2.1036,-2.1049,-2.1109,-2.1109,-2.1109,-2.1109,-2.1109,-2.1109,-2.1109,-2.1109,-2.1109,-2.1109,-2.1109,-2.1109,-2.1169,-2.1534,-2.1614,-2.1748,-2.2265,-2.2038,-2.1735,-2.1737,-2.1476,-2.1276,-2.1568,-2.1777,-2.1984,-2.1984,-2.2458,-2.2766,-2.2472,-2.2178,-2.1964,-2.1897,-2.1443,-2.1109,-2.1109,-2.1109,-2.1109,-2.1109,-2.1109,-2.0786,-1.9935,-1.7404,-1.5524,-1.4749,-1.6307,-1.6695,-1.5334,-1.5265,-1.4488,-1.2738,-1.1372,-1.0721,-1.0721,-1.0755,-1.0766,-1.088,-1.0982,-1.1077,-1.9018,-1.8925,-1.8911,-1.8871,-1.8878,-1.8891,-1.8891,-1.9105,-1.937,-1.939,-1.9299,-1.8945,-1.7876,-1.746,-1.7527,-1.8377,-1.9225,0.0,0.0,0.0,0.0,0.0,0.0,0.0,0.0,0.0,0.0,0.0,0.0,0.0,0.0,0.0,0.0,-1.849,-1.849,-1.8337,-1.8023,-1.7982,-1.7909,-1.7649,-1.7649,-1.7796,-1.8029,-1.8049,-1.8571,-1.9424,-1.945,-1.9887,-2.0655,-2.0374,-2.0601,-2.1082,-2.0815,-2.0869,-2.1109,-2.1109,-2.1109,-2.1109,-2.1109,-2.1109,-2.1109,-2.1109,-2.1109,-2.1109,-2.1109,-2.1109,-2.1169,-2.1534,-2.1614,-2.1748,-2.2265,-2.2191,-2.2024,-2.2291,-2.1924,-2.1594,-2.1614,-2.1777,-2.1984,-2.1984,-2.2458,-2.2766,-2.2472,-2.2178,-2.1897,-2.1688,-2.1309,-2.1109,-2.1109,-2.1109,-2.1109,-2.1109,-2.1109,-1.9807,-1.6565,-1.6043,-1.4488,-1.1306,-1.2738,-1.3648,-1.3517,-1.3517,-1.2672,-1.0916,-1.0784,-1.0721,-1.0721,-1.0796,-1.087,-1.0884,-1.1087,-1.1229,-1.8784,-1.8651,-1.8651,-1.8651,-1.8791,-1.8925,-1.8925,-1.9011,-1.9038,-1.8858,-1.9112,-1.9176,-1.8297,-1.8357,-1.864,-1.8738,0.0,0.0,0.0,0.0,0.0,0.0,0.0,0.0,0.0,0.0,0.0,0.0,0.0,0.0,0.0,0.0,0.0,-1.7929,-1.7929,-1.7869,-1.7749,-1.7756,-1.7702,-1.7582,-1.7582,-1.7749,-1.7995,-1.7995,-1.8375,-1.9098,-1.9285,-1.976,-2.0408,-2.0481,-2.0748,-2.1096,-2.0989,-2.0902,-2.0862,-2.1042,-2.1109,-2.1109,-2.1109,-2.1109,-2.1109,-2.1109,-2.1236,-2.139,-2.139,-2.151,-2.1677,-2.179,-2.1824,-2.1877,-2.2091,-2.1937,-2.179,-2.2078,-2.1844,-2.1715,-2.2017,-2.2178,-2.2305,-2.2498,-2.2706,-2.2766,-2.2472,-2.2178,-2.1891,-2.1661,-2.1303,-2.0722,-1.961,-2.0456,-2.0652,-1.961,-2.0618,-1.9936,-1.6322,-1.6186,-1.4803,-1.1264,-1.2469,-1.2852,-1.1847,-1.2841,-1.2578,-1.0863,-1.0796,-1.0796,-1.0796,-1.0853,-1.1043,-1.1226,-1.128,-1.1389,-1.8711,-1.8557,-1.849,-1.849,-1.8704,-1.8925,-1.8925,-1.8998,-1.9005,-1.8811,-1.8858,-1.8878,-1.8664,-1.8804,0.0,0.0,0.0,0.0,0.0,0.0,0.0,0.0,0.0,0.0,0.0,0.0,0.0,0.0,0.0,0.0,0.0,0.0,0.0,0.0,-1.7582,-1.7582,-1.7582,-1.7582,-1.7582,-1.7582,-1.7582,-1.7749,-1.7995,-1.8089,-1.8457,-1.8938,-1.9239,-1.9693,-2.0241,-2.0354,-2.0575,-2.0835,-2.0835,-2.0768,-2.0702,-2.0902,-2.1029,-2.1109,-2.1109,-2.1109,-2.1109,-2.1109,-2.1309,-2.1601,-2.1443,-2.1683,-2.1964,-2.1877,-2.1911,-2.1984,-2.1984,-2.1837,-2.179,-2.2171,-2.1971,-2.1824,-2.2311,-2.2418,-2.2478,-2.2679,-2.2799,-2.2739,-2.2345,-2.2118,-2.1857,-2.147,-2.0783,-1.9871,-1.864,-1.9094,-1.8996,-1.7843,-1.8989,-1.8667,-1.562,-1.5553,-1.442,-1.1365,-1.2105,-1.2168,-1.1012,-1.2154,-1.2199,-1.0948,-1.088,-1.088,-1.088,-1.0992,-1.1145,-1.1392,-1.144,-1.1518,-1.8844,-1.8711,-1.849,-1.8497,-1.8704,-1.8918,-1.8918,-1.9145,-1.9417,-1.943,-1.8651,-1.8203,-1.8811,-1.8388,0.0,-1.9219,0.0,0.0,0.0,0.0,0.0,0.0,0.0,0.0,0.0,0.0,0.0,0.0,0.0,0.0,0.0,0.0,0.0,0.0,-1.7582,-1.7582,-1.7582,-1.7582,-1.7582,-1.7582,-1.7582,-1.7749,-1.8009,-1.8357,-1.8651,-1.8945,-1.9239,-1.9693,-2.0207,-1.992,-1.9973,-2.0227,-2.0173,-2.0408,-2.0668,-2.0675,-2.0855,-2.1109,-2.1109,-2.1109,-2.1109,-2.1109,-2.1309,-2.1561,-2.1203,-2.1523,-2.1931,-2.1708,-2.177,-2.1991,-2.1991,-2.1991,-2.2138,-2.2719,-2.2412,-2.2071,-2.2358,-2.2418,-2.2418,-2.2418,-2.2659,-2.2679,-2.2084,-2.1984,-2.179,-2.1203,-1.961,-1.8506,-1.8506,-1.6953,-1.5939,-1.61,-1.6125,-1.5481,-1.393,-1.381,-1.3066,-1.1303,-1.1165,-1.1165,-1.1234,-1.1165,-1.1101,-1.089,-1.0887,-1.0887,-1.0887,-1.1097,-1.1243,-1.1396,-1.1548,-1.1619,-1.8905,-1.8502,-1.8222,-1.8691,-1.8704,-1.8617,-1.8617,-1.8691,-1.8925,-1.9539,-1.8798,-1.8283,-1.9085,-1.8584,0.0,0.0,0.0,0.0,0.0,0.0,0.0,0.0,0.0,0.0,0.0,0.0,0.0,0.0,0.0,0.0,0.0,0.0,0.0,0.0,-1.7434,-1.7333,-1.7333,-1.7333,-1.7333,-1.7333,-1.7482,-1.7856,-1.8364,-1.845,-1.8764,-1.9239,-1.939,-1.9579,-1.994,-2.0054,-2.0034,-1.9947,-2.0154,-2.016,-2.0114,-2.0521,-2.0728,-2.0835,-2.1036,-2.1109,-2.1109,-2.1109,-2.1309,-2.1601,-2.145,-2.183,-2.2271,-2.2191,-2.2378,-2.2605,-2.2605,-2.2605,-2.2592,-2.2559,-2.2418,-2.2372,-2.2665,-2.2732,-2.2732,-2.2732,-2.2806,-2.2679,-2.2084,-2.1984,-2.1857,-2.1476,-1.9799,-1.8052,-1.6824,-1.5204,-1.4732,-1.5982,-1.639,-1.585,-1.4069,-1.4121,-1.3432,-1.1626,-1.1484,-1.1436,-1.1328,-1.1426,-1.1463,-1.1423,-1.1419,-1.1419,-1.1419,-1.1355,-1.1402,-1.1552,-1.1599,-1.1674,-1.8457,-1.8223,-1.8022,-1.819,-1.8357,-1.843,-1.8183,-1.8317,-1.8671,-1.9319,-1.8648,-1.8229,-1.9052,-1.8564,0.0,0.0,0.0,0.0,0.0,0.0,0.0,0.0,0.0,0.0,0.0,0.0,0.0,0.0,0.0,0.0,0.0,0.0,0.0,0.0,-1.7179,-1.7025,-1.7025,-1.7025,-1.7025,-1.6974,-1.732,-1.7729,-1.8317,-1.8437,-1.8811,-1.943,-1.9492,-1.9639,-1.9813,-1.9987,-1.996,-1.9806,-1.9867,-1.9853,-1.986,-2.0327,-2.0575,-2.0722,-2.1009,-2.1109,-2.1109,-2.1109,-2.1309,-2.1594,-2.141,-2.1784,-2.2245,-2.2245,-2.2458,-2.2712,-2.2901,-2.2928,-2.2819,-2.2639,-2.2599,-2.2645,-2.2894,-2.2928,-2.2654,-2.1947,-2.2372,-2.229,-2.0252,-2.0519,-2.0699,-1.9687,-1.7851,-1.5979,-1.4268,-1.3175,-1.3006,-1.4087,-1.45,-1.4252,-1.315,-1.318,-1.2843,-1.177,-1.1704,-1.1691,-1.166,-1.1687,-1.1704,-1.1704,-1.1704,-1.1677,-1.1619,-1.1528,-1.1531,-1.1619,-1.1677,-1.1748,-1.7856,-1.7876,-1.7856,-1.7387,-1.7816,-1.819,-1.7662,-1.7949,-1.843,-1.8771,-1.8362,-1.8169,-1.8811,-1.8362,0.0,0.0,0.0,0.0,0.0,0.0,0.0,0.0,0.0,0.0,0.0,0.0,0.0,0.0,0.0,0.0,0.0,0.0,0.0,0.0,-1.682,-1.6667,-1.6667,-1.6667,-1.6667,0.0,-1.7072,-1.7488,-1.8002,-1.8357,-1.8811,-1.9379,-1.9646,-1.976,-1.976,-1.976,-1.976,-1.9733,-1.9472,-1.9533,-1.98,-2.0114,-2.0401,-2.0681,-2.1002,-2.1109,-2.1109,-2.1109,-2.1289,-2.1527,-2.1189,-2.1516,-2.1984,-2.1984,-2.2211,-2.2525,-2.2792,-2.2928,-2.2928,-2.2928,-2.2928,-2.2928,-2.2928,-2.2791,-2.216,-2.0409,-2.1321,-2.1227,-1.7453,-1.8213,-1.8586,-1.6441,-1.4824,-1.3215,-1.1438,-1.1244,-1.1236,-1.1379,-1.1402,-1.1467,-1.1606,-1.1619,-1.1681,-1.1823,-1.183,-1.1908,-1.2077,-1.1948,-1.1874,-1.1874,-1.1874,-1.1809,-1.1681,-1.1653,-1.1647,-1.166,-1.1779,-1.1847,-1.8671,-1.8295,-1.7902,-1.7582,-1.7288,-1.7114,-1.7273,-1.7161,-1.7308,-1.8022,-1.8082,-1.8169,-1.8811,0.0,0.0,0.0,0.0,0.0,0.0,0.0,0.0,0.0,0.0,0.0,0.0,0.0,0.0,0.0,0.0,0.0,0.0,0.0,0.0,-1.68,-1.652,-1.6366,-1.6366,-1.6366,-1.6366,0.0,-1.7128,-1.7682,-1.8002,-1.8357,-1.8811,-1.943,-1.9432,-1.9459,-1.9459,-1.9459,-1.9459,-1.9452,-1.9392,-1.9464,-1.9519,-2.004,-2.0274,-2.0401,-2.0929,-2.1109,-2.1109,-2.1109,-2.1156,-2.1196,-2.1129,-2.1516,-2.1984,-2.1984,-2.2358,-2.2779,-2.2846,-2.2928,-2.2928,-2.2928,-2.2928,-2.2928,-2.2928,-2.1741,-2.0548,-2.0196,-1.9217,-1.8143,-1.7107,-1.709,-1.6513,-1.4423,-1.4109,-1.3421,-1.1452,-1.1267,-1.1355,-1.1389,-1.1497,-1.1586,-1.1616,-1.1619,-1.1681,-1.1823,-1.183,-1.1955,-1.223,-1.221,-1.2193,-1.2193,-1.2193,-1.2176,-1.2145,-1.1904,-1.1847,-1.1965,-1.1874,-1.1959,-1.8016,-1.7842,-1.7756,-1.7507,-1.6934,-1.6613,-1.7099,-1.6921,-1.684,-1.7256,-1.7408,-1.7495,-1.7802,0.0,0.0,0.0,0.0,0.0,0.0,0.0,0.0,0.0,0.0,0.0,0.0,0.0,0.0,0.0,0.0,0.0,0.0,-1.6573,-1.65,-1.65,-1.6213,-1.6059,-1.6059,-1.6059,-1.6059,-1.6072,-1.6667,-1.7341,-1.8009,-1.8644,-1.9078,-1.9424,-1.9424,-1.9424,-1.9424,-1.9424,-1.9424,-1.9424,-1.9424,-1.9424,-1.9419,-1.986,-2.0114,-2.0301,-2.0748,-2.0995,-2.1109,-2.1109,-2.1109,-2.1109,-2.1109,-2.1423,-2.181,-2.1944,-2.2305,-2.2679,-2.2894,-2.2928,-2.2647,-2.1741,-2.2229,-2.2928,-2.2928,-2.1459,-1.9883,-1.9012,-1.7958,-1.6649,-1.4828,-1.4335,-1.3812,-1.2677,-1.273,-1.2585,-1.153,-1.145,-1.1501,-1.1501,-1.1572,-1.1619,-1.1619,-1.1681,-1.1782,-1.1932,-1.201,-1.2155,-1.2383,-1.2389,-1.2389,-1.2389,-1.2325,-1.2254,-1.2179,-1.1945,-1.1837,-1.185,-1.1911,-1.2026,-1.7208,-1.7181,-1.7341,-1.6991,-1.6569,-1.6313,-1.6797,-1.666,-1.648,-1.648,-1.66,-1.6707,0.0,0.0,0.0,0.0,0.0,0.0,0.0,0.0,0.0,0.0,0.0,0.0,0.0,0.0,0.0,0.0,0.0,0.0,-1.6553,-1.6326,-1.6192,-1.6192,-1.5959,-1.5784,-1.5784,-1.5784,-1.5784,-1.5784,-1.6186,-1.6947,-1.8015,-1.8858,-1.9272,-1.9424,-1.9424,-1.9424,-1.9424,-1.9424,-1.9424,-1.9424,-1.9424,-1.9424,-1.9406,-1.9693,-1.9953,-2.0201,-2.0494,-2.0788,-2.1036,-2.1036,-2.1069,-2.1109,-2.1109,-2.1349,-2.1742,-2.1917,-2.1992,-2.2,-2.2362,-2.2121,-2.1465,-1.9976,-2.0756,-2.2016,-2.2366,-2.0894,-1.9203,-1.7694,-1.6837,-1.5288,-1.2243,-1.1701,-1.1596,-1.1416,-1.1521,-1.1619,-1.1619,-1.1619,-1.1619,-1.1619,-1.164,-1.1657,-1.1657,-1.1789,-1.1938,-1.2091,-1.222,-1.2352,-1.2494,-1.2501,-1.2515,-1.2539,-1.24,-1.2264,-1.2138,-1.1986,-1.1864,-1.1775,-1.1999,-1.2115,-1.7856,-1.7355,-1.6627,-1.5832,-1.5758,-1.5845,-1.5671,-1.5598,-1.5571,0.0,-1.6172,0.0,0.0,0.0,0.0,0.0,0.0,0.0,0.0,0.0,0.0,0.0,0.0,0.0,0.0,0.0,0.0,0.0,0.0,0.0,-1.5898,-1.5912,-1.5885,-1.5885,-1.5804,-1.5784,-1.5784,-1.5784,-1.5784,-1.5791,-1.6386,-1.7141,-1.8002,-1.8437,-1.8885,-1.9424,-1.9424,-1.9424,-1.9424,-1.9424,-1.9424,-1.9424,-1.9424,-1.9424,-1.9406,-1.9693,-1.9826,-1.99,-2.0187,-2.0488,-2.0735,-2.0735,-2.0902,-2.1109,-2.1109,-2.1496,-2.1937,-2.1977,-2.1098,-2.0205,-2.0407,-1.9123,-1.7765,-1.7627,-1.7814,-1.8444,-2.0126,-1.8932,-1.7544,-1.7288,-1.4723,-1.2297,-1.1558,-1.1647,-1.1708,-1.1433,-1.1521,-1.1619,-1.1619,-1.1619,-1.1619,-1.1619,-1.1728,-1.1803,-1.1803,-1.1942,-1.2098,-1.225,-1.2281,-1.2352,-1.2494,-1.2501,-1.2566,-1.2698,-1.2552,-1.2464,-1.244,-1.2298,-1.2284,-1.2383,-1.2298,-1.2325,-1.7883,-1.6901,-1.5879,-1.5498,-1.5491,-1.5511,-1.5217,-1.5284,-1.5351,-1.519,0.0,0.0,0.0,0.0,0.0,0.0,0.0,0.0,0.0,0.0,0.0,0.0,0.0,0.0,0.0,0.0,0.0,0.0,0.0,-1.5344,-1.5344,-1.5344,-1.5344,-1.5344,-1.5344,-1.5424,-1.5585,-1.5585,-1.5665,-1.5832,-1.6259,-1.676,-1.7301,-1.7602,-1.8243,-1.9125,-1.9292,-1.9424,-1.9424,-1.9424,-1.9424,-1.9424,-1.9424,-1.9424,-1.9379,-1.9512,-1.9659,-1.982,-1.9947,-2.0294,-2.0675,-2.0675,-2.0869,-2.1109,-2.1109,-2.0741,-2.0332,-2.0332,-1.9246,-1.814,-1.8317,-1.7681,-1.6762,-1.5863,-1.6404,-1.7183,-1.6962,-1.6263,-1.5349,-1.4298,-1.2805,-1.1643,-1.1426,-1.1497,-1.1541,-1.1409,-1.1521,-1.1619,-1.1619,-1.1619,-1.1619,-1.1619,-1.1745,-1.183,-1.183,-1.205,-1.225,-1.24,-1.241,-1.2474,-1.2623,-1.263,-1.2661,-1.2729,-1.2501,-1.2423,-1.2501,-1.2274,-1.2193,-1.2257,-1.2281,-1.2325,-1.7522,-1.662,-1.5752,-1.5378,-1.5398,-1.5391,0.0,0.0,-1.511,0.0,0.0,0.0,0.0,0.0,0.0,0.0,0.0,0.0,0.0,0.0,0.0,0.0,0.0,0.0,0.0,0.0,0.0,0.0,0.0,-1.5008,-1.5008,-1.5008,-1.5008,-1.5008,-1.5008,-1.5115,-1.5284,-1.5291,-1.5431,-1.5718,-1.5945,-1.6246,-1.6607,-1.6951,-1.7602,-1.8604,-1.8978,-1.9185,-1.9259,-1.9339,-1.9424,-1.9424,-1.9424,-1.9424,-1.9424,-1.9424,-1.9506,-1.9693,-1.9693,-2.0074,-2.0568,-2.0568,-2.0808,-2.1046,-2.0589,-1.9739,-1.8894,-1.843,-1.7233,-1.6083,-1.6221,-1.5905,-1.5247,-1.3956,-1.4791,-1.5495,-1.457,-1.4432,-1.3872,-1.1972,-1.1619,-1.1582,-1.1467,-1.145,-1.145,-1.145,-1.1545,-1.1619,-1.1619,-1.1619,-1.1633,-1.167,-1.1803,-1.1904,-1.1945,-1.2193,-1.2389,-1.2494,-1.2539,-1.261,-1.2725,-1.2766,-1.2807,-1.284,-1.2552,-1.2454,-1.2559,-1.2338,-1.221,-1.2176,-1.2291,-1.2342,-1.6907,-1.6901,-1.677,-1.5383,-1.5398,-1.5538,0.0,0.0,0.0,0.0,0.0,0.0,0.0,0.0,0.0,0.0,0.0,0.0,0.0,0.0,0.0,0.0,0.0,0.0,0.0,0.0,0.0,0.0,0.0,-1.5008,-1.5008,-1.5008,-1.5008,-1.5008,-1.5008,-1.5015,-1.5028,-1.5028,-1.5182,-1.5418,-1.5431,-1.5745,-1.6355,-1.66,-1.7068,-1.7682,-1.8277,-1.8691,-1.8965,-1.9252,-1.9424,-1.9424,-1.9424,-1.9424,-1.9424,-1.9424,-1.9437,-1.945,-1.945,-1.9773,-2.0254,-2.0254,-2.0641,-2.0779,-1.9158,-1.8818,-1.8632,-1.6979,-1.5262,-1.4033,-1.4259,-1.2924,-1.1525,-1.1688,-1.1832,-1.2323,-1.401,-1.4432,-1.3872,-1.1972,-1.1619,-1.1616,-1.1609,-1.1606,-1.1606,-1.1606,-1.1613,-1.1619,-1.1619,-1.1619,-1.167,-1.1806,-1.1959,-1.2108,-1.2254,-1.2406,-1.2494,-1.2501,-1.2637,-1.2722,-1.2729,-1.2871,-1.3013,-1.3149,-1.2857,-1.2712,-1.2718,-1.2701,-1.262,-1.2478,-1.2488,-1.2491,-1.7328,-1.6934,-1.6462,-1.5698,-1.5398,-1.5144,-1.4636,-1.4522,0.0,0.0,0.0,0.0,0.0,0.0,0.0,0.0,0.0,0.0,0.0,0.0,0.0,0.0,0.0,0.0,0.0,0.0,0.0,0.0,0.0,0.0,-1.4402,-1.4402,-1.4402,-1.4402,-1.4402,-1.4489,-1.4676,-1.4914,-1.5062,-1.5169,-1.5304,-1.5504,-1.5718,-1.6012,-1.6366,-1.6774,-1.7427,-1.8123,-1.8945,-1.9245,-1.9424,-1.9424,-1.9424,-1.9424,-1.9424,-1.9424,-1.9424,-1.9424,-1.9424,-1.8952,-1.8439,-1.849,-1.8096,-1.7517,-1.6969,-1.6099,-1.5184,-1.4599,-1.3162,-1.1859,-1.2181,-1.1749,-1.124,-1.1548,-1.1619,-1.176,-1.2463,-1.2683,-1.2511,-1.1777,-1.1619,-1.1619,-1.1619,-1.1538,-1.1508,-1.1606,-1.1619,-1.1619,-1.1619,-1.1697,-1.1775,-1.1826,-1.2057,-1.2267,-1.2413,-1.2471,-1.2586,-1.2783,-1.2756,-1.2776,-1.2874,-1.302,-1.3078,-1.3037,-1.3024,-1.2969,-1.2878,-1.2681,-1.2556,-1.2501,-1.2501,-1.2501,-1.7514,-1.7065,-1.6446,-1.5952,-1.5538,-1.5124,-1.4636,0.0,0.0,0.0,0.0,0.0,0.0,0.0,0.0,0.0,0.0,0.0,0.0,0.0,0.0,0.0,0.0,0.0,0.0,0.0,0.0,0.0,0.0,0.0,-1.4088,-1.4088,-1.4088,-1.4088,-1.4088,-1.4182,-1.4369,-1.4569,-1.4716,-1.4823,-1.511,-1.5304,-1.5404,-1.5698,-1.6046,-1.644,-1.6878,-1.7562,-1.851,-1.9011,-1.9219,-1.9225,-1.9383,-1.9062,-1.8583,-1.8583,-1.8227,-1.7812,-1.7812,-1.7618,-1.733,-1.697,-1.6659,-1.6324,-1.5331,-1.4232,-1.3193,-1.2606,-1.1567,-1.0789,-1.1084,-1.124,-1.1365,-1.1569,-1.1619,-1.1619,-1.1619,-1.1694,-1.1745,-1.1697,-1.165,-1.1636,-1.1684,-1.1565,-1.1501,-1.1603,-1.1619,-1.1636,-1.1684,-1.1816,-1.1945,-1.2047,-1.2284,-1.2498,-1.2644,-1.2606,-1.2664,-1.2871,-1.2834,-1.2854,-1.2959,-1.3146,-1.318,-1.3034,-1.3078,-1.303,-1.2885,-1.2678,-1.2552,-1.2501,-1.2501,-1.2501,0.0,0.0,0.0,-1.6066,0.0,0.0,-1.4705,0.0,0.0,0.0,0.0,0.0,0.0,0.0,0.0,0.0,0.0,0.0,0.0,0.0,0.0,0.0,0.0,0.0,0.0,0.0,0.0,0.0,0.0,-1.4088,-1.4088,-1.4088,-1.4088,-1.4088,-1.4088,-1.4088,-1.4088,-1.4088,-1.4229,-1.4509,-1.4861,-1.5156,-1.5391,-1.5705,-1.6146,-1.668,-1.6707,-1.7041,-1.7622,-1.8537,-1.8918,-1.8951,-1.9194,-1.8344,-1.6968,-1.6968,-1.5961,-1.4604,-1.4604,-1.5812,-1.7078,-1.5669,-1.6466,-1.7336,-1.4169,-1.3193,-1.2869,-1.1178,-1.0721,-1.0789,-1.1084,-1.1389,-1.1619,-1.1619,-1.1619,-1.1619,-1.1619,-1.1619,-1.166,-1.1796,-1.1714,-1.167,-1.1799,-1.1711,-1.1619,-1.1626,-1.1626,-1.1681,-1.1826,-1.1979,-1.2186,-1.2478,-1.2647,-1.2796,-1.2949,-1.282,-1.2729,-1.2729,-1.2874,-1.2963,-1.2963,-1.3244,-1.3329,-1.3169,-1.303,-1.2885,-1.2722,-1.2722,-1.2647,-1.2501,-1.2501,-1.2501,-1.7088,0.0,0.0,0.0,0.0,0.0,0.0,0.0,0.0,0.0,0.0,0.0,0.0,0.0,0.0,0.0,0.0,0.0,0.0,0.0,0.0,0.0,0.0,0.0,0.0,0.0,0.0,0.0,-1.3968,-1.4088,-1.4088,-1.4088,-1.4088,-1.4088,-1.4088,-1.4088,-1.4088,-1.4088,-1.4128,-1.4215,-1.4767,-1.5055,-1.511,-1.5825,-1.6119,-1.6106,-1.6747,-1.6994,-1.7034,-1.815,-1.8731,-1.8838,-1.7998,-1.7384,-1.685,-1.5666,-1.4955,-1.4604,-1.4604,-1.4937,-1.5171,-1.3832,-1.3797,-1.3848,-1.1999,-1.1439,-1.1306,-1.085,-1.0721,-1.0789,-1.1084,-1.1389,-1.1619,-1.1619,-1.1619,-1.1619,-1.1619,-1.1619,-1.1633,-1.167,-1.1728,-1.1752,-1.1687,-1.1647,-1.1653,-1.1755,-1.1772,-1.1867,-1.2128,-1.2291,-1.2454,-1.2647,-1.2807,-1.2915,-1.3039,-1.282,-1.2729,-1.2729,-1.2874,-1.2963,-1.2963,-1.3244,-1.3281,-1.3024,-1.2979,-1.283,-1.2566,-1.2566,-1.2545,-1.2501,-1.2501,-1.2501,-1.7114,-1.7192,-1.73,-1.6613,0.0,0.0,-1.5732,-1.5518,0.0,0.0,0.0,0.0,0.0,0.0,0.0,0.0,0.0,0.0,0.0,0.0,0.0,0.0,0.0,0.0,0.0,0.0,0.0,-1.3793,-1.3988,-1.4088,-1.4088,-1.4088,-1.4088,-1.4088,-1.4088,-1.4088,-1.4088,-1.4088,-1.4148,-1.4275,-1.4787,-1.5075,-1.5209,-1.5798,-1.6059,-1.6046,-1.661,-1.6804,-1.6787,-1.7849,-1.847,-1.8672,-1.8185,-1.7566,-1.6791,-1.5192,-1.4187,-1.3526,-1.2813,-1.3053,-1.3416,-1.2096,-1.2146,-1.2459,-1.1082,-1.0721,-1.0721,-1.0721,-1.0765,-1.0867,-1.1104,-1.1341,-1.1541,-1.1603,-1.1619,-1.1619,-1.1619,-1.1619,-1.1636,-1.1697,-1.1728,-1.1735,-1.1711,-1.1657,-1.1667,-1.1809,-1.183,-1.1962,-1.2332,-1.2508,-1.2678,-1.2891,-1.3051,-1.3119,-1.3054,-1.2912,-1.28,-1.2732,-1.2874,-1.2963,-1.2963,-1.3183,-1.3197,-1.2966,-1.2898,-1.2745,-1.2501,-1.2501,-1.2501,-1.2501,-1.2501,-1.2535,-1.7253,-1.7226,-1.7213,-1.68,-1.6734,0.0,-1.5725,-1.5545,-1.5304,0.0,0.0,0.0,0.0,0.0,0.0,0.0,0.0,0.0,0.0,0.0,0.0,0.0,0.0,0.0,0.0,-1.3653,-1.376,-1.4068,-1.4088,-1.4088,-1.4088,-1.4088,-1.4088,-1.4088,-1.4088,-1.4088,-1.4088,-1.4088,-1.4229,-1.4479,-1.4823,-1.5162,-1.5404,-1.5732,-1.6005,-1.6226,-1.6326,-1.65,-1.6774,-1.7689,-1.8217,-1.8504,-1.8946,-1.8169,-1.655,-1.4955,-1.3347,-1.1736,-1.0301,-1.0838,-1.1978,-1.0741,-1.14,-1.2459,-1.1082,-1.0721,-1.0721,-1.0721,-1.0829,-1.0982,-1.1124,-1.1277,-1.143,-1.1582,-1.1619,-1.1619,-1.1619,-1.1633,-1.1677,-1.1786,-1.1704,-1.1664,-1.1806,-1.1728,-1.1691,-1.1833,-1.187,-1.2043,-1.2494,-1.2671,-1.2871,-1.3166,-1.3319,-1.3339,-1.3186,-1.3044,-1.2901,-1.2762,-1.2885,-1.305,-1.2983,-1.3122,-1.3122,-1.2966,-1.2793,-1.2637,-1.2501,-1.2501,-1.2501,-1.2501,-1.2501,-1.2583,-1.7001,-1.7321,-1.7689,-1.6901,-1.6887,0.0,-1.6547,-1.6453,-1.6266,0.0,0.0,0.0,0.0,0.0,0.0,0.0,0.0,0.0,0.0,0.0,0.0,0.0,0.0,0.0,0.0,-1.4001,-1.4021,-1.4082,-1.4088,-1.4088,-1.4088,-1.4088,-1.4088,-1.4088,-1.4088,-1.4088,-1.4088,-1.4088,-1.4229,-1.4479,-1.4823,-1.5162,-1.5418,-1.5945,-1.6086,-1.5952,-1.6723,-1.6924,-1.6794,-1.7929,-1.829,-1.8046,-1.7625,-1.6497,-1.4896,-1.3287,-1.1679,-1.024,-0.9879,-1.0838,-1.1978,-1.0741,-1.14,-1.2459,-1.1082,-1.0721,-1.0721,-1.0721,-1.0829,-1.0982,-1.1124,-1.1277,-1.143,-1.1582,-1.1619,-1.1619,-1.1619,-1.1708,-1.1765,-1.1677,-1.164,-1.1664,-1.1806,-1.1809,-1.184,-1.1993,-1.2121,-1.2362,-1.2813,-1.2898,-1.303,-1.3325,-1.3383,-1.3339,-1.3186,-1.3044,-1.2949,-1.2918,-1.2946,-1.3013,-1.3125,-1.3275,-1.323,-1.2966,-1.2688,-1.2532,-1.2501,-1.2501,-1.2501,-1.2501,-1.2501,-1.2583,-1.7228,-1.7468,-1.7709,-1.7255,-1.7255,0.0,0.0,-1.6707,-1.65,0.0,0.0,0.0,0.0,0.0,0.0,0.0,0.0,0.0,0.0,0.0,0.0,0.0,0.0,0.0,0.0,-1.3868,-1.3928,-1.4075,-1.4088,-1.4088,-1.4088,-1.4088,-1.4088,-1.4088,-1.4088,-1.4088,-1.4088,-1.4088,-1.4309,-1.4743,-1.4941,-1.519,-1.5625,-1.5919,-1.5654,-1.4996,-1.5645,-1.5395,-1.4628,-1.5775,-1.6051,-1.5844,-1.6668,-1.602,-1.4426,-1.2813,-1.1675,-1.0899,-1.0061,-1.0301,-1.0955,-1.043,-1.0841,-1.14,-1.0889,-1.0721,-1.0721,-1.0721,-1.0775,-1.0887,-1.1107,-1.1219,-1.1335,-1.1565,-1.1619,-1.1619,-1.1619,-1.1677,-1.1735,-1.1765,-1.1687,-1.1643,-1.1711,-1.1782,-1.1884,-1.204,-1.2193,-1.2454,-1.2901,-1.2963,-1.3074,-1.337,-1.34,-1.3308,-1.3085,-1.3068,-1.3003,-1.2854,-1.2986,-1.3098,-1.3169,-1.3247,-1.3146,-1.2851,-1.262,-1.2501,-1.2501,-1.2501,-1.2501,-1.2501,-1.2501,-1.2627,-1.7488,-1.7582,-1.7529,-1.7259,0.0,-1.7476,0.0,0.0,0.0,0.0,0.0,0.0,0.0,0.0,0.0,0.0,0.0,0.0,0.0,0.0,0.0,0.0,0.0,0.0,0.0,-1.372,-1.3828,-1.4068,-1.4088,-1.4088,-1.4088,-1.4088,-1.4088,-1.4088,-1.4142,-1.4142,-1.4088,-1.4202,-1.4539,-1.5008,-1.5068,-1.518,-1.5439,-1.5439,-1.4781,-1.3715,-1.4066,-1.3523,-1.2518,-1.3507,-1.36,-1.3333,-1.5632,-1.5542,-1.4004,-1.2693,-1.1976,-1.1555,-1.024,-0.9822,-0.9873,-1.0178,-1.0321,-1.0409,-1.0649,-1.0721,-1.0721,-1.0721,-1.0741,-1.0826,-1.1094,-1.1255,-1.1277,-1.1555,-1.1619,-1.1626,-1.1653,-1.166,-1.1701,-1.1833,-1.1752,-1.1677,-1.1725,-1.1813,-1.1928,-1.2084,-1.2233,-1.2484,-1.2905,-1.2963,-1.3074,-1.337,-1.3373,-1.3271,-1.3064,-1.3098,-1.3054,-1.2871,-1.3054,-1.3186,-1.3214,-1.3163,-1.3003,-1.2735,-1.2579,-1.2501,-1.2501,-1.2501,-1.2501,-1.2501,-1.2532,-1.2695,0.0,0.0,0.0,0.0,-1.6801,0.0,0.0,0.0,-1.7736,-1.7408,0.0,0.0,0.0,0.0,0.0,0.0,0.0,0.0,0.0,0.0,0.0,0.0,0.0,0.0,0.0,0.0,-1.4048,-1.4082,-1.4088,-1.4088,-1.4088,-1.4088,-1.4088,-1.4088,-1.4335,-1.4349,-1.4088,-1.4646,-1.4941,-1.5015,-1.5224,-1.4939,-1.4118,-1.4118,-1.3409,-1.2201,-1.2617,-1.2751,-1.2663,-1.3507,-1.3065,-1.1946,-1.406,-1.3885,-1.2453,-1.2273,-1.1318,-1.0061,-0.9879,-0.9822,-0.9873,-1.0178,-1.046,-1.0677,-1.0711,-1.0721,-1.0721,-1.0721,-1.0819,-1.0958,-1.1121,-1.1263,-1.1409,-1.1579,-1.1619,-1.1653,-1.1779,-1.1806,-1.1775,-1.1674,-1.1735,-1.1877,-1.2098,-1.2081,-1.2088,-1.224,-1.2386,-1.2596,-1.2918,-1.2963,-1.3074,-1.337,-1.3278,-1.3241,-1.3342,-1.3125,-1.3081,-1.3312,-1.3227,-1.3234,-1.337,-1.3125,-1.2905,-1.2732,-1.2579,-1.2501,-1.2501,-1.2501,-1.2501,-1.2505,-1.264,-1.2796,0.0,0.0,0.0,0.0,0.0,0.0,-1.7284,0.0,-1.8217,0.0,0.0,0.0,0.0,0.0,0.0,0.0,0.0,0.0,0.0,0.0,0.0,0.0,0.0,0.0,0.0,0.0,0.0,0.0,0.0,-1.3069,-1.3069,-1.373,-1.4088,-1.4088,-1.4369,-1.4382,-1.4088,-1.4713,-1.5008,-1.5008,-1.4498,-1.4108,-1.3878,-1.3102,-1.2131,-1.1028,-1.1242,-1.1041,-1.0682,-1.1094,-1.0921,-1.0516,-1.1463,-1.1378,-1.0838,-1.0838,-1.0361,-0.9822,-0.9822,-0.988,-0.9943,-1.0304,-1.0544,-1.0721,-1.0721,-1.0721,-1.0721,-1.0721,-1.0829,-1.0982,-1.1124,-1.1277,-1.143,-1.1582,-1.1619,-1.1657,-1.1799,-1.1765,-1.1691,-1.1633,-1.1667,-1.1813,-1.2145,-1.2125,-1.2115,-1.2267,-1.241,-1.2613,-1.2922,-1.2963,-1.3074,-1.337,-1.3342,-1.3295,-1.3271,-1.3234,-1.323,-1.3264,-1.3292,-1.3295,-1.3268,-1.3071,-1.2888,-1.2732,-1.2579,-1.2501,-1.2501,-1.2501,-1.2549,-1.2634,-1.2701,-1.2857,-1.3397,0.0,0.0,0.0,0.0,0.0,0.0,0.0,0.0,0.0,0.0,0.0,0.0,0.0,-1.52,-1.5007,0.0,-1.4144,0.0,0.0,0.0,0.0,0.0,0.0,0.0,0.0,0.0,0.0,-1.2063,-1.1986,-1.2279,-1.3118,-1.3779,-1.4088,-1.4449,-1.4502,-1.4208,-1.4863,-1.5164,-1.5084,-1.4043,-1.3453,-1.3295,-1.1989,-1.0816,-0.9808,-0.9856,-0.9563,-0.911,-0.9303,-0.9469,-0.9625,-0.9768,-0.9822,-0.9822,-0.9822,-0.9822,-0.9822,-0.9822,-0.9951,-1.0154,-1.0409,-1.0595,-1.0721,-1.0721,-1.0721,-1.0721,-1.0721,-1.086,-1.1029,-1.1134,-1.1307,-1.1484,-1.1592,-1.1619,-1.167,-1.1853,-1.1748,-1.1643,-1.1725,-1.1674,-1.1735,-1.2101,-1.2108,-1.2128,-1.2318,-1.2437,-1.2613,-1.2922,-1.2963,-1.3057,-1.3312,-1.3339,-1.3295,-1.3183,-1.3275,-1.3308,-1.3241,-1.3302,-1.3271,-1.3122,-1.2976,-1.2823,-1.2671,-1.2559,-1.2501,-1.2501,-1.2501,-1.2603,-1.2793,-1.2793,-1.2929,0.0,0.0,0.0,-1.3595,0.0,0.0,0.0,0.0,-1.4881,0.0,0.0,0.0,0.0,-1.589,-1.5671,-1.5117,-1.367,0.0,0.0,0.0,0.0,0.0,0.0,0.0,0.0,0.0,0.0,-1.2721,-1.1473,-1.1123,-1.2242,-1.2328,-1.2899,-1.4046,-1.4649,-1.481,-1.4509,-1.5318,-1.5658,-1.5391,-1.4372,-1.3193,-1.1896,-1.0632,-0.9464,-0.8388,-0.8525,-0.8712,-0.8912,-0.9262,-0.9469,-0.9625,-0.9768,-0.9822,-0.9822,-0.9822,-0.9822,-0.9822,-0.9822,-1.0019,-1.0297,-1.0443,-1.0595,-1.0721,-1.0721,-1.0721,-1.0721,-1.0721,-1.0931,-1.1158,-1.1231,-1.1385,-1.1613,-1.1616,-1.1619,-1.1697,-1.1993,-1.1823,-1.1704,-1.1993,-1.1816,-1.1714,-1.2013,-1.2064,-1.2159,-1.245,-1.2498,-1.2613,-1.2922,-1.2963,-1.3017,-1.3163,-1.318,-1.3176,-1.3173,-1.3176,-1.3241,-1.3386,-1.3258,-1.3115,-1.2973,-1.282,-1.2664,-1.2511,-1.2505,-1.2501,-1.2501,-1.2501,-1.2657,-1.2956,-1.2956,-1.303,0.0,0.0,-1.1229,-1.1812,0.0,0.0,0.0,0.0,0.0,0.0,0.0,0.0,0.0,-1.3477,-1.2999,-1.3768,-1.2438,-1.1709,0.0,0.0,0.0,0.0,0.0,0.0,0.0,0.0,0.0,-1.0329,-0.9821,-0.9623,0.0,-1.1706,-1.2804,-1.3207,-1.4571,-1.511,-1.4816,-1.5491,-1.5685,-1.5398,-1.3475,-1.2334,-1.1848,-0.9657,-0.8574,-0.8418,-0.8567,-0.8859,-0.9245,-0.9449,-0.9618,-0.9754,-0.9802,-0.9822,-0.9822,-0.9822,-0.9822,-0.9849,-1.0053,-1.0195,-1.0321,-1.0565,-1.0677,-1.0721,-1.0721,-1.0721,-1.0721,-1.0721,-1.0863,-1.1043,-1.1138,-1.1314,-1.1494,-1.1596,-1.1619,-1.1674,-1.1867,-1.1759,-1.1677,-1.187,-1.1752,-1.1681,-1.1874,-1.1993,-1.2162,-1.2457,-1.2586,-1.2729,-1.2935,-1.3044,-1.3119,-1.3166,-1.3264,-1.3285,-1.3183,-1.3264,-1.3346,-1.3397,-1.3258,-1.3108,-1.3046,-1.2813,-1.2657,-1.2505,-1.2501,-1.2501,-1.2501,-1.2501,-1.2661,-1.2963,-1.2963,-1.3091,-0.8623,-0.8856,0.0,-1.0826,-1.1248,0.0,-1.2726,0.0,0.0,0.0,0.0,0.0,0.0,-1.1846,-1.1483,-1.2349,-1.111,-1.0355,0.0,-1.2279,0.0,0.0,0.0,0.0,0.0,0.0,0.0,-0.9137,-0.8654,-0.8549,0.0,0.0,-1.245,-1.2856,-1.4533,-1.5304,-1.5117,-1.5591,-1.5496,-1.4831,-1.2844,-1.1653,-1.117,-0.897,-0.8201,-0.8489,-0.8645,-0.8967,-0.9395,-0.9547,-0.9693,-0.9822,-0.9822,-0.9822,-0.9822,-0.9822,-0.9856,-0.9947,-1.0249,-1.0354,-1.0395,-1.0639,-1.0721,-1.0721,-1.0721,-1.0721,-1.0721,-1.0721,-1.0867,-1.1046,-1.1138,-1.1318,-1.1497,-1.1596,-1.1619,-1.1657,-1.1799,-1.1718,-1.166,-1.1803,-1.1714,-1.1664,-1.1806,-1.1915,-1.2064,-1.2308,-1.2566,-1.2766,-1.2868,-1.3051,-1.3152,-1.3102,-1.3278,-1.3359,-1.3261,-1.3346,-1.3376,-1.3322,-1.318,-1.303,-1.2885,-1.2732,-1.2603,-1.2505,-1.2501,-1.2501,-1.2501,-1.2501,-1.264,-1.2905,-1.2905,-1.3081]}]]